Darstellungsparameter: Aktuell verwendete Einstellungen:
Skalierung der Graphiken ... ?
xyx+y,   Skalierungsfaktor:      Skalierung: Modus: x, Faktor: 1
Darstellungszeitraum ... ?
Vom - - bis: - -   Zeitraum: 20.11.2019 - 18.12.2019
Min/Max/Avg-Anzeige ... ?
Zeige MMA aktuell
Zeige MMA Monat
Zeige MMA alles
Zeige --A aktuell
Zeige --A Monat
Zeige --A alles
Keine MMA-Anzeige
MMA:
Average (ber die Originaldaten)
MMA-Basis: 20.11.2019 - 18.12.2019
Quicknavigation für Darstellung... ?
Tage:      1T, 2T, 3T, 5T -1T -2T -3T -5T +1T +2T +3T +5T
Wochen: 1W, 2W, 3W -1W -2W -3W +1W +2W +3W
Monate: 1M, 3M, 6M -1M -3M -6M +1M +3M +6M
Jahre:    1J, 3J, 5J, 10J -1J -3J -5J -10J +1J +3J +5J +10J
Nutze für die Darstellung ... ?
Originaldaten oder Mittelwerte auf ...
Stundenbasis Tagesbasis Wochenbasis
Monatsbasis Jahresbasis      Datenbasis: Original-Daten
Darstellen als:
Statistik (Auto) Statistik J:M      Darstellung:
Zur Graphik,    zurück zur Übersicht aller Sensoren.
 
Tabellarische Datenbersicht: ?
 
Sensor: Nr:Datum:Temp:Feuchte:
Aussen-T/F 1 20-11-2019 00:09:17 -0.7 C 42 %
2 20-11-2019 00:19:17 -0.6 C 42 %
3 20-11-2019 00:29:17 -0.5 C 42 %
4 20-11-2019 00:39:17 -0.7 C 42 %
5 20-11-2019 00:49:17 -0.7 C 43 %
6 20-11-2019 00:59:17 -0.8 C 42 %
7 20-11-2019 01:09:17 -0.8 C 42 %
8 20-11-2019 01:19:17 -1.1 C 42 %
9 20-11-2019 01:29:17 -1.1 C 42 %
10 20-11-2019 01:39:17 -0.7 C 43 %
11 20-11-2019 01:49:17 -0.6 C 43 %
12 20-11-2019 01:59:17 -0.5 C 43 %
13 20-11-2019 02:09:17 -0.4 C 43 %
14 20-11-2019 02:19:17 -0.4 C 43 %
15 20-11-2019 02:29:17 -0.5 C 43 %
16 20-11-2019 02:39:17 -0.5 C 43 %
17 20-11-2019 02:49:17 -0.4 C 43 %
18 20-11-2019 02:59:17 -0.4 C 43 %
19 20-11-2019 03:09:17 -0.3 C 43 %
20 20-11-2019 03:19:17 -0.3 C 43 %
21 20-11-2019 03:29:17 -0.4 C 43 %
22 20-11-2019 03:39:17 -0.5 C 43 %
23 20-11-2019 03:49:17 -0.5 C 43 %
24 20-11-2019 03:59:17 -0.7 C 43 %
25 20-11-2019 04:09:17 -0.6 C 43 %
Sensor: Nr:Datum:Temp:Feuchte:
Aussen-T/F 26 20-11-2019 04:19:17 -0.5 C 43 %
27 20-11-2019 04:29:17 -0.6 C 42 %
28 20-11-2019 04:39:17 -0.5 C 42 %
29 20-11-2019 04:49:17 -0.5 C 42 %
30 20-11-2019 04:59:17 -0.4 C 42 %
31 20-11-2019 05:09:17 -0.3 C 42 %
32 20-11-2019 05:19:17 -0.3 C 42 %
33 20-11-2019 05:29:17 -0.3 C 42 %
34 20-11-2019 05:39:17 -0.3 C 42 %
35 20-11-2019 05:49:17 -0.3 C 42 %
36 20-11-2019 05:59:17 -0.2 C 42 %
37 20-11-2019 06:09:17 -0.1 C 42 %
38 20-11-2019 06:19:17 -0.1 C 42 %
39 20-11-2019 06:29:17 0 C 42 %
40 20-11-2019 06:39:17 0 C 42 %
41 20-11-2019 06:49:17 0 C 42 %
42 20-11-2019 06:59:17 0.2 C 42 %
43 20-11-2019 07:09:17 0.2 C 42 %
44 20-11-2019 07:19:17 0.2 C 42 %
45 20-11-2019 07:29:17 0.4 C 42 %
46 20-11-2019 07:39:18 0.3 C 42 %
47 20-11-2019 07:49:17 0.4 C 42 %
48 20-11-2019 07:59:17 0.4 C 42 %
49 20-11-2019 08:09:17 0.4 C 42 %
50 20-11-2019 08:19:17 0.5 C 42 %
Sensor: Nr:Datum:Temp:Feuchte:
Aussen-T/F 51 20-11-2019 08:29:17 0.6 C 42 %
52 20-11-2019 08:39:17 0.7 C 43 %
53 20-11-2019 08:49:17 0.8 C 43 %
54 20-11-2019 08:59:17 0.9 C 43 %
55 20-11-2019 09:09:17 1.1 C 42 %
56 20-11-2019 09:19:17 1 C 42 %
57 20-11-2019 09:29:17 1.2 C 42 %
58 20-11-2019 09:39:17 1.6 C 42 %
59 20-11-2019 09:49:17 1.7 C 42 %
60 20-11-2019 09:59:17 2 C 41 %
61 20-11-2019 10:09:17 2.1 C 41 %
62 20-11-2019 10:19:17 2.4 C 41 %
63 20-11-2019 10:29:17 2.9 C 41 %
64 20-11-2019 10:39:17 3 C 39 %
65 20-11-2019 10:49:17 2.6 C 39 %
66 20-11-2019 10:59:17 2.5 C 38 %
67 20-11-2019 11:09:17 2.6 C 38 %
68 20-11-2019 11:19:17 3.3 C 38 %
69 20-11-2019 11:29:17 3.3 C 37 %
70 20-11-2019 11:39:17 3 C 35 %
71 20-11-2019 11:49:17 3.7 C 35 %
72 20-11-2019 11:59:17 4.3 C 31 %
73 20-11-2019 12:09:17 3.9 C 30 %
74 20-11-2019 12:19:17 4.3 C 30 %
75 20-11-2019 12:29:17 4.5 C 30 %
Sensor: Nr:Datum:Temp:Feuchte:
Aussen-T/F 76 20-11-2019 12:39:17 4.5 C 27 %
77 20-11-2019 12:49:17 4.6 C 26 %
78 20-11-2019 12:59:17 4.5 C 26 %
79 20-11-2019 13:09:17 4.7 C 25 %
80 20-11-2019 13:19:17 4.5 C 23 %
81 20-11-2019 13:29:17 4.4 C 23 %
82 20-11-2019 13:39:17 4.7 C 20 %
83 20-11-2019 13:49:17 5.1 C 20 %
84 20-11-2019 13:59:17 4.8 C 20 %
85 20-11-2019 14:09:17 4.8 C 20 %
86 20-11-2019 14:19:17 4.8 C 20 %
87 20-11-2019 14:29:17 4.7 C 20 %
88 20-11-2019 14:39:17 4.7 C 20 %
89 20-11-2019 14:49:17 4.7 C 20 %
90 20-11-2019 14:59:17 4.7 C 20 %
91 20-11-2019 15:09:17 4.7 C 20 %
92 20-11-2019 15:19:17 4.7 C 20 %
93 20-11-2019 15:29:17 4.6 C 20 %
94 20-11-2019 15:39:17 4.5 C 20 %
95 20-11-2019 15:49:17 4.3 C 21 %
96 20-11-2019 15:59:17 3.4 C 26 %
97 20-11-2019 16:09:17 2.7 C 28 %
98 20-11-2019 16:19:17 2.2 C 29 %
99 20-11-2019 16:29:17 1.8 C 30 %
100 20-11-2019 16:39:17 1.8 C 30 %
Sensor: Nr:Datum:Temp:Feuchte:
Aussen-T/F 101 20-11-2019 16:49:17 1.5 C 32 %
102 20-11-2019 16:59:17 1.5 C 32 %
103 20-11-2019 17:09:17 1.7 C 32 %
104 20-11-2019 17:19:17 1.8 C 34 %
105 20-11-2019 17:29:17 1.7 C 35 %
106 20-11-2019 17:39:17 0.9 C 35 %
107 20-11-2019 17:49:17 0.5 C 38 %
108 20-11-2019 17:59:17 0.6 C 40 %
109 20-11-2019 18:09:17 0.3 C 40 %
110 20-11-2019 18:19:17 0.2 C 41 %
111 20-11-2019 18:29:17 0.1 C 40 %
112 20-11-2019 18:39:17 0 C 41 %
113 20-11-2019 18:49:17 -0.2 C 41 %
114 20-11-2019 18:59:17 -0.7 C 41 %
115 20-11-2019 19:09:17 -0.9 C 41 %
116 20-11-2019 19:19:17 -1.1 C 41 %
117 20-11-2019 19:29:17 -1.2 C 41 %
118 20-11-2019 19:39:18 -1.2 C 42 %
119 20-11-2019 19:49:18 -1.4 C 42 %
120 20-11-2019 19:59:18 -1.5 C 42 %
121 20-11-2019 20:09:18 -1.6 C 42 %
122 20-11-2019 20:19:17 -1.7 C 42 %
123 20-11-2019 20:29:17 -1.4 C 43 %
124 20-11-2019 20:39:17 -1.4 C 43 %
125 20-11-2019 20:59:17 -1.7 C 43 %
Sensor: Nr:Datum:Temp:Feuchte:
Aussen-T/F 126 20-11-2019 20:59:17 -1.8 C 43 %
127 20-11-2019 21:09:17 -1.8 C 42 %
128 20-11-2019 21:19:17 -2 C 42 %
129 20-11-2019 21:29:17 -2.1 C 42 %
130 20-11-2019 21:39:17 -2.1 C 42 %
131 20-11-2019 21:49:17 -2.3 C 42 %
132 20-11-2019 21:59:17 -2.1 C 42 %
133 20-11-2019 22:09:17 -2 C 43 %
134 20-11-2019 22:19:17 -2.1 C 42 %
135 20-11-2019 22:29:17 -2.2 C 42 %
136 20-11-2019 22:39:17 -2.1 C 42 %
137 20-11-2019 22:49:17 -1.8 C 43 %
138 20-11-2019 22:59:17 -1.7 C 43 %
139 20-11-2019 23:09:17 -1.6 C 43 %
140 20-11-2019 23:19:17 -1.4 C 43 %
141 20-11-2019 23:29:17 -1.6 C 43 %
142 20-11-2019 23:39:17 -1.3 C 43 %
143 20-11-2019 23:49:17 -1.1 C 43 %
144 20-11-2019 23:59:17 -1.1 C 43 %
145 21-11-2019 00:09:17 -1.3 C 43 %
146 21-11-2019 00:29:17 -1.8 C 42 %
147 21-11-2019 00:30:17 -1.9 C 42 %
148 21-11-2019 00:39:17 -2 C 41 %
149 21-11-2019 00:50:17 -2.1 C 41 %
150 21-11-2019 01:00:17 -2.4 C 41 %
Sensor: Nr:Datum:Temp:Feuchte:
Aussen-T/F 151 21-11-2019 01:10:17 -2.4 C 41 %
152 21-11-2019 01:20:17 -2.5 C 41 %
153 21-11-2019 01:30:17 -2.3 C 41 %
154 21-11-2019 01:40:17 -2.7 C 40 %
155 21-11-2019 01:50:17 -2.6 C 41 %
156 21-11-2019 02:00:17 -2.6 C 40 %
157 21-11-2019 02:10:17 -2.7 C 40 %
158 21-11-2019 02:20:17 -2.2 C 42 %
159 21-11-2019 02:30:17 -2.3 C 42 %
160 21-11-2019 02:40:17 -1.9 C 42 %
161 21-11-2019 02:50:17 -2.1 C 42 %
162 21-11-2019 03:00:17 -2.2 C 41 %
163 21-11-2019 03:10:17 -2.4 C 41 %
164 21-11-2019 03:20:17 -2.3 C 41 %
165 21-11-2019 03:30:17 -2.1 C 42 %
166 21-11-2019 03:40:17 -1.8 C 42 %
167 21-11-2019 03:50:17 -1.6 C 42 %
168 21-11-2019 04:00:17 -1.5 C 42 %
169 21-11-2019 04:10:17 -1.3 C 43 %
170 21-11-2019 04:20:17 -1.1 C 43 %
171 21-11-2019 04:30:17 -1 C 43 %
172 21-11-2019 04:40:17 -1 C 43 %
173 21-11-2019 04:50:17 -1 C 43 %
174 21-11-2019 05:00:17 -1 C 43 %
175 21-11-2019 05:10:17 -0.7 C 43 %
Sensor: Nr:Datum:Temp:Feuchte:
Aussen-T/F 176 21-11-2019 05:20:17 -0.6 C 43 %
177 21-11-2019 05:30:17 -0.6 C 43 %
178 21-11-2019 05:40:17 -0.5 C 43 %
179 21-11-2019 05:50:17 -0.4 C 43 %
180 21-11-2019 06:00:17 -0.3 C 43 %
181 21-11-2019 06:10:17 -0.3 C 43 %
182 21-11-2019 06:20:17 -0.3 C 43 %
183 21-11-2019 06:30:17 -0.3 C 43 %
184 21-11-2019 06:40:17 -0.3 C 43 %
185 21-11-2019 06:50:17 -0.2 C 43 %
186 21-11-2019 07:00:17 -0.2 C 43 %
187 21-11-2019 07:10:17 -0.2 C 43 %
188 21-11-2019 07:20:17 -0.1 C 43 %
189 21-11-2019 07:30:17 -0.2 C 43 %
190 21-11-2019 07:40:17 -0.2 C 43 %
191 21-11-2019 07:50:17 -0.1 C 43 %
192 21-11-2019 08:00:17 -0.1 C 43 %
193 21-11-2019 08:10:17 0 C 43 %
194 21-11-2019 08:20:17 0 C 43 %
195 21-11-2019 08:30:17 0.1 C 43 %
196 21-11-2019 08:40:17 0.2 C 43 %
197 21-11-2019 08:50:17 0.2 C 43 %
198 21-11-2019 09:00:17 0.2 C 43 %
199 21-11-2019 09:10:17 0.3 C 43 %
200 21-11-2019 09:20:17 0.4 C 43 %
Sensor: Nr:Datum:Temp:Feuchte:
Aussen-T/F 201 21-11-2019 09:30:17 0.6 C 43 %
202 21-11-2019 09:40:17 0.8 C 43 %
203 21-11-2019 09:50:17 1.1 C 42 %
204 21-11-2019 10:00:17 1.1 C 41 %
205 21-11-2019 10:10:17 1.2 C 40 %
206 21-11-2019 10:20:17 1.6 C 40 %
207 21-11-2019 10:30:17 1.5 C 39 %
208 21-11-2019 10:40:17 1.5 C 39 %
209 21-11-2019 10:50:17 1.7 C 38 %
210 21-11-2019 11:00:17 2.1 C 37 %
211 21-11-2019 11:10:17 2.2 C 37 %
212 21-11-2019 11:20:17 2.3 C 34 %
213 21-11-2019 11:30:17 2.5 C 33 %
214 21-11-2019 11:40:17 2.7 C 33 %
215 21-11-2019 11:50:17 3 C 32 %
216 21-11-2019 12:00:17 2.8 C 32 %
217 21-11-2019 12:10:17 2.5 C 33 %
218 21-11-2019 12:20:17 2.6 C 34 %
219 21-11-2019 12:30:18 2.8 C 35 %
220 21-11-2019 12:40:18 3.1 C 35 %
221 21-11-2019 12:50:18 3.3 C 34 %
222 21-11-2019 13:00:17 3.1 C 31 %
223 21-11-2019 13:10:17 3.7 C 34 %
224 21-11-2019 13:20:17 3.9 C 31 %
225 21-11-2019 13:30:17 4.1 C 32 %
Sensor: Nr:Datum:Temp:Feuchte:
Aussen-T/F 226 21-11-2019 13:40:17 4 C 31 %
227 21-11-2019 13:50:17 3.9 C 32 %
228 21-11-2019 14:00:17 3.9 C 31 %
229 21-11-2019 14:10:17 3.9 C 30 %
230 21-11-2019 14:20:17 4.2 C 31 %
231 21-11-2019 14:30:17 4.4 C 31 %
232 21-11-2019 14:40:17 4.4 C 30 %
233 21-11-2019 14:50:17 4.1 C 29 %
234 21-11-2019 15:00:17 4.1 C 30 %
235 21-11-2019 15:10:17 4.2 C 29 %
236 21-11-2019 15:20:17 4.4 C 30 %
237 21-11-2019 15:30:17 4.3 C 30 %
238 21-11-2019 15:40:17 4.2 C 29 %
239 21-11-2019 15:50:17 4.3 C 30 %
240 21-11-2019 16:00:17 4.3 C 30 %
241 21-11-2019 16:10:17 4.2 C 31 %
242 21-11-2019 16:20:17 4 C 33 %
243 21-11-2019 16:30:17 3.9 C 36 %
244 21-11-2019 16:40:17 3.7 C 37 %
245 21-11-2019 16:50:17 3.7 C 39 %
246 21-11-2019 17:00:17 3.6 C 39 %
247 21-11-2019 17:10:17 3.6 C 38 %
248 21-11-2019 17:20:17 3.5 C 39 %
249 21-11-2019 17:30:17 3.4 C 39 %
250 21-11-2019 17:40:17 3.4 C 39 %
Sensor: Nr:Datum:Temp:Feuchte:
Aussen-T/F 251 21-11-2019 17:50:17 3.3 C 39 %
252 21-11-2019 18:00:17 3.3 C 39 %
253 21-11-2019 18:10:17 3.3 C 39 %
254 21-11-2019 18:20:17 3.3 C 38 %
255 21-11-2019 18:30:17 3.3 C 39 %
256 21-11-2019 18:40:17 3.4 C 39 %
257 21-11-2019 18:50:17 3.3 C 40 %
258 21-11-2019 19:00:17 3.3 C 40 %
259 21-11-2019 19:10:17 3.2 C 40 %
260 21-11-2019 19:20:17 3 C 39 %
261 21-11-2019 19:30:17 3 C 40 %
262 21-11-2019 19:40:17 3.1 C 41 %
263 21-11-2019 19:50:17 2.9 C 41 %
264 21-11-2019 20:00:17 2.5 C 40 %
265 21-11-2019 20:10:17 2 C 40 %
266 21-11-2019 20:20:17 1.9 C 42 %
267 21-11-2019 20:30:17 2.1 C 42 %
268 21-11-2019 20:40:17 1.6 C 42 %
269 21-11-2019 20:50:17 1.5 C 42 %
270 21-11-2019 21:00:17 1.6 C 43 %
271 21-11-2019 21:10:17 1.6 C 43 %
272 21-11-2019 21:20:17 1.3 C 43 %
273 21-11-2019 21:30:17 1.3 C 43 %
274 21-11-2019 21:40:17 1.5 C 43 %
275 21-11-2019 21:50:17 1.2 C 43 %
Sensor: Nr:Datum:Temp:Feuchte:
Aussen-T/F 276 21-11-2019 22:00:17 1 C 42 %
277 21-11-2019 22:10:17 0.8 C 44 %
278 21-11-2019 22:20:17 1.2 C 43 %
279 21-11-2019 22:30:17 0.9 C 44 %
280 21-11-2019 22:40:17 0.8 C 44 %
281 21-11-2019 22:50:17 1 C 43 %
282 21-11-2019 23:00:17 1.1 C 43 %
283 21-11-2019 23:10:17 1.4 C 43 %
284 21-11-2019 23:20:17 1 C 43 %
285 21-11-2019 23:30:17 1 C 43 %
286 21-11-2019 23:40:17 1.5 C 43 %
287 21-11-2019 23:50:17 1.5 C 43 %
288 22-11-2019 00:00:17 1.3 C 43 %
289 22-11-2019 00:10:17 1.3 C 43 %
290 22-11-2019 00:20:17 1.3 C 43 %
291 22-11-2019 00:30:17 1.3 C 43 %
292 22-11-2019 00:40:17 1 C 42 %
293 22-11-2019 00:50:17 1.1 C 42 %
294 22-11-2019 01:00:17 1 C 42 %
295 22-11-2019 01:10:17 1.2 C 43 %
296 22-11-2019 01:20:17 0.9 C 43 %
297 22-11-2019 01:30:17 1 C 42 %
298 22-11-2019 01:40:17 1 C 42 %
299 22-11-2019 01:50:17 0.6 C 43 %
300 22-11-2019 02:00:17 0.4 C 43 %
Sensor: Nr:Datum:Temp:Feuchte:
Aussen-T/F 301 22-11-2019 02:10:17 0 C 42 %
302 22-11-2019 02:20:17 1 C 42 %
303 22-11-2019 02:30:17 0.8 C 44 %
304 22-11-2019 02:40:17 0.7 C 43 %
305 22-11-2019 02:50:17 0.5 C 43 %
306 22-11-2019 03:00:17 0.6 C 43 %
307 22-11-2019 03:10:17 0.8 C 44 %
308 22-11-2019 03:20:17 0.8 C 43 %
309 22-11-2019 03:30:17 0.6 C 43 %
310 22-11-2019 03:40:17 0.7 C 43 %
311 22-11-2019 03:50:17 1.1 C 42 %
312 22-11-2019 04:00:17 1.1 C 42 %
313 22-11-2019 04:10:17 1.1 C 42 %
314 22-11-2019 04:20:17 1.2 C 42 %
315 22-11-2019 04:30:17 1.3 C 42 %
316 22-11-2019 04:40:17 1.3 C 42 %
317 22-11-2019 04:50:17 1.2 C 42 %
318 22-11-2019 05:00:18 1.4 C 42 %
319 22-11-2019 05:10:18 1.6 C 42 %
320 22-11-2019 05:20:17 1.9 C 42 %
321 22-11-2019 05:30:17 2.1 C 41 %
322 22-11-2019 05:40:17 2.2 C 41 %
323 22-11-2019 05:50:17 2.6 C 41 %
324 22-11-2019 06:00:18 2.5 C 41 %
325 22-11-2019 06:10:18 2.8 C 41 %
Sensor: Nr:Datum:Temp:Feuchte:
Aussen-T/F 326 22-11-2019 06:20:18 2.6 C 41 %
327 22-11-2019 06:30:18 2.7 C 41 %
328 22-11-2019 06:40:18 2.9 C 41 %
329 22-11-2019 06:50:18 3 C 41 %
330 22-11-2019 07:00:17 3 C 41 %
331 22-11-2019 07:10:17 3 C 41 %
332 22-11-2019 07:20:17 3.1 C 41 %
333 22-11-2019 07:30:17 3.2 C 41 %
334 22-11-2019 07:40:17 3.4 C 41 %
335 22-11-2019 07:50:17 3.4 C 41 %
336 22-11-2019 08:00:17 3.4 C 41 %
337 22-11-2019 08:10:17 3.5 C 41 %
338 22-11-2019 08:20:17 3.7 C 41 %
339 22-11-2019 08:30:17 3.8 C 41 %
340 22-11-2019 08:40:17 3.7 C 41 %
341 22-11-2019 08:50:17 3.7 C 41 %
342 22-11-2019 09:00:17 3.9 C 41 %
343 22-11-2019 09:10:17 3.9 C 40 %
344 22-11-2019 09:20:17 4 C 39 %
345 22-11-2019 09:30:17 3.8 C 39 %
346 22-11-2019 09:40:17 3.7 C 39 %
347 22-11-2019 09:50:17 3.5 C 39 %
348 22-11-2019 10:00:17 3.3 C 39 %
349 22-11-2019 10:10:17 3.5 C 40 %
350 22-11-2019 10:20:17 3.5 C 39 %
Sensor: Nr:Datum:Temp:Feuchte:
Aussen-T/F 351 22-11-2019 10:30:17 3.6 C 40 %
352 22-11-2019 10:40:17 4.1 C 39 %
353 22-11-2019 10:50:17 4.3 C 39 %
354 22-11-2019 11:00:17 4.2 C 38 %
355 22-11-2019 11:10:17 4.4 C 38 %
356 22-11-2019 11:20:17 4.5 C 37 %
357 22-11-2019 11:30:17 5 C 35 %
358 22-11-2019 11:40:17 5.3 C 33 %
359 22-11-2019 11:50:17 5.3 C 32 %
360 22-11-2019 12:00:17 5.6 C 32 %
361 22-11-2019 12:10:17 5.5 C 32 %
362 22-11-2019 12:20:17 5.6 C 32 %
363 22-11-2019 12:30:17 5.6 C 32 %
364 22-11-2019 12:40:17 5.8 C 32 %
365 22-11-2019 12:50:17 5.8 C 31 %
366 22-11-2019 13:00:17 5.7 C 30 %
367 22-11-2019 13:10:17 5.9 C 31 %
368 22-11-2019 13:20:17 6 C 30 %
369 22-11-2019 13:30:17 5.7 C 29 %
370 22-11-2019 13:40:17 5.5 C 29 %
371 22-11-2019 13:50:17 5.5 C 29 %
372 22-11-2019 14:00:17 5.5 C 29 %
373 22-11-2019 14:10:17 5.7 C 29 %
374 22-11-2019 14:20:17 5.7 C 28 %
375 22-11-2019 14:30:17 5.9 C 28 %
Sensor: Nr:Datum:Temp:Feuchte:
Aussen-T/F 376 22-11-2019 14:40:17 5.8 C 27 %
377 22-11-2019 14:50:17 5.8 C 28 %
378 22-11-2019 15:00:17 5.6 C 28 %
379 22-11-2019 15:10:17 5.6 C 28 %
380 22-11-2019 15:20:17 5.6 C 29 %
381 22-11-2019 15:30:17 5.5 C 28 %
382 22-11-2019 15:40:17 5.4 C 29 %
383 22-11-2019 15:50:17 5.4 C 29 %
384 22-11-2019 16:00:17 5.3 C 29 %
385 22-11-2019 16:10:17 5.3 C 30 %
386 22-11-2019 16:20:17 5.2 C 30 %
387 22-11-2019 16:30:17 5.2 C 30 %
388 22-11-2019 16:40:17 5.1 C 31 %
389 22-11-2019 16:50:17 5 C 31 %
390 22-11-2019 17:00:17 4.9 C 32 %
391 22-11-2019 17:10:17 4.9 C 33 %
392 22-11-2019 17:20:17 4.8 C 34 %
393 22-11-2019 17:30:17 4.9 C 33 %
394 22-11-2019 17:40:17 4.9 C 32 %
395 22-11-2019 17:50:17 5 C 31 %
396 22-11-2019 18:00:17 5 C 30 %
397 22-11-2019 18:10:17 4.8 C 32 %
398 22-11-2019 18:20:17 4.7 C 34 %
399 22-11-2019 18:30:17 4.8 C 33 %
400 22-11-2019 18:40:17 4.8 C 32 %
Sensor: Nr:Datum:Temp:Feuchte:
Aussen-T/F 401 22-11-2019 18:50:17 4.8 C 32 %
402 22-11-2019 19:00:17 4.8 C 31 %
403 22-11-2019 19:10:17 4.7 C 32 %
404 22-11-2019 19:20:17 4.8 C 30 %
405 22-11-2019 19:30:17 4.8 C 30 %
406 22-11-2019 19:40:17 4.8 C 30 %
407 22-11-2019 19:50:17 4.7 C 31 %
408 22-11-2019 20:00:17 4.6 C 31 %
409 22-11-2019 20:10:17 4.6 C 30 %
410 22-11-2019 20:20:17 4.6 C 30 %
411 22-11-2019 20:30:17 4.5 C 30 %
412 22-11-2019 20:40:17 4.5 C 30 %
413 22-11-2019 20:50:17 4.3 C 30 %
414 22-11-2019 21:00:17 4.3 C 30 %
415 22-11-2019 21:10:17 4.4 C 31 %
416 22-11-2019 21:20:17 4.3 C 31 %
417 22-11-2019 21:30:17 4.3 C 31 %
418 22-11-2019 21:40:17 4.3 C 31 %
419 22-11-2019 21:50:17 4.3 C 30 %
420 22-11-2019 22:00:17 4.2 C 31 %
421 22-11-2019 22:10:17 4.2 C 31 %
422 22-11-2019 22:20:17 4.2 C 30 %
423 22-11-2019 22:30:17 4.2 C 30 %
424 22-11-2019 22:40:17 4.2 C 29 %
425 22-11-2019 22:50:17 4.1 C 30 %
Sensor: Nr:Datum:Temp:Feuchte:
Aussen-T/F 426 22-11-2019 23:00:17 4 C 30 %
427 22-11-2019 23:10:17 4.1 C 28 %
428 22-11-2019 23:20:17 4 C 30 %
429 22-11-2019 23:30:17 4 C 30 %
430 22-11-2019 23:40:17 4 C 30 %
431 22-11-2019 23:50:17 3.9 C 31 %
432 23-11-2019 00:00:17 4 C 29 %
433 23-11-2019 00:10:17 4 C 29 %
434 23-11-2019 00:20:17 4 C 29 %
435 23-11-2019 00:30:17 4 C 29 %
436 23-11-2019 00:40:17 4 C 28 %
437 23-11-2019 00:50:17 4 C 29 %
438 23-11-2019 01:00:17 4.1 C 28 %
439 23-11-2019 01:10:17 4.2 C 27 %
440 23-11-2019 01:20:17 4.1 C 29 %
441 23-11-2019 01:30:17 4 C 30 %
442 23-11-2019 01:40:17 4.1 C 29 %
443 23-11-2019 01:50:17 4 C 29 %
444 23-11-2019 02:00:17 4.1 C 27 %
445 23-11-2019 02:10:17 4.1 C 27 %
446 23-11-2019 02:20:17 4 C 30 %
447 23-11-2019 02:30:18 3.8 C 32 %
448 23-11-2019 02:40:18 3.7 C 32 %
449 23-11-2019 02:50:17 3.6 C 32 %
450 23-11-2019 03:00:17 3.6 C 33 %
Sensor: Nr:Datum:Temp:Feuchte:
Aussen-T/F 451 23-11-2019 03:10:17 3.7 C 32 %
452 23-11-2019 03:20:17 3.8 C 31 %
453 23-11-2019 03:30:17 3.7 C 32 %
454 23-11-2019 03:40:17 3.5 C 33 %
455 23-11-2019 03:50:17 3.2 C 34 %
456 23-11-2019 04:00:17 3.2 C 35 %
457 23-11-2019 04:10:17 3.1 C 38 %
458 23-11-2019 04:20:17 3.3 C 36 %
459 23-11-2019 04:30:17 3 C 36 %
460 23-11-2019 04:40:17 3 C 37 %
461 23-11-2019 04:50:17 3 C 37 %
462 23-11-2019 05:00:17 3 C 38 %
463 23-11-2019 05:10:17 3 C 39 %
464 23-11-2019 05:20:17 2.7 C 39 %
465 23-11-2019 05:30:17 2.9 C 40 %
466 23-11-2019 05:40:17 2.8 C 40 %
467 23-11-2019 05:50:17 2.9 C 40 %
468 23-11-2019 06:00:17 3 C 39 %
469 23-11-2019 06:10:17 3 C 39 %
470 23-11-2019 06:20:17 3 C 39 %
471 23-11-2019 06:30:17 3 C 40 %
472 23-11-2019 06:40:17 3.1 C 40 %
473 23-11-2019 06:50:17 3 C 40 %
474 23-11-2019 07:00:17 3.2 C 40 %
475 23-11-2019 07:10:17 3.2 C 39 %
Sensor: Nr:Datum:Temp:Feuchte:
Aussen-T/F 476 23-11-2019 07:20:17 3.3 C 40 %
477 23-11-2019 07:30:17 3.2 C 39 %
478 23-11-2019 07:40:17 3.3 C 40 %
479 23-11-2019 07:50:17 3.2 C 40 %
480 23-11-2019 08:00:17 3.3 C 39 %
481 23-11-2019 08:10:17 3.3 C 40 %
482 23-11-2019 08:20:17 3.2 C 40 %
483 23-11-2019 08:30:17 3.3 C 40 %
484 23-11-2019 08:40:17 3.4 C 40 %
485 23-11-2019 08:50:17 3.8 C 37 %
486 23-11-2019 09:00:17 4.2 C 33 %
487 23-11-2019 09:10:17 4.3 C 33 %
488 23-11-2019 09:20:17 4.5 C 33 %
489 23-11-2019 09:30:17 4.9 C 31 %
490 23-11-2019 09:40:17 5.1 C 31 %
491 23-11-2019 09:50:17 5.4 C 27 %
492 23-11-2019 10:00:17 5.4 C 26 %
493 23-11-2019 10:10:17 5.7 C 26 %
494 23-11-2019 10:20:17 6 C 26 %
495 23-11-2019 10:30:17 6 C 25 %
496 23-11-2019 10:40:17 6.1 C 26 %
497 23-11-2019 10:50:17 6.2 C 25 %
498 23-11-2019 11:00:17 6.4 C 25 %
499 23-11-2019 11:10:17 6.6 C 25 %
500 23-11-2019 11:20:17 6.7 C 25 %
Sensor: Nr:Datum:Temp:Feuchte:
Aussen-T/F 501 23-11-2019 11:30:17 7.1 C 21 %
502 23-11-2019 11:40:17 7.1 C 23 %
503 23-11-2019 11:50:17 7 C 25 %
504 23-11-2019 12:00:17 6.4 C 28 %
505 23-11-2019 12:10:17 6.4 C 28 %
506 23-11-2019 12:20:17 6.5 C 27 %
507 23-11-2019 12:30:17 6.5 C 28 %
508 23-11-2019 12:40:17 6.5 C 29 %
509 23-11-2019 12:50:17 7.3 C 25 %
510 23-11-2019 13:00:17 7.3 C 25 %
511 23-11-2019 13:10:17 6.7 C 28 %
512 23-11-2019 13:20:17 6.8 C 29 %
513 23-11-2019 13:30:17 6.6 C 29 %
514 23-11-2019 13:40:17 6.6 C 30 %
515 23-11-2019 13:50:17 6.6 C 30 %
516 23-11-2019 14:00:17 6.6 C 30 %
517 23-11-2019 14:10:17 6.8 C 30 %
518 23-11-2019 14:20:17 7 C 29 %
519 23-11-2019 14:30:17 7.2 C 27 %
520 23-11-2019 14:40:17 7.1 C 28 %
521 23-11-2019 14:50:17 7.2 C 28 %
522 23-11-2019 15:00:17 7.7 C 26 %
523 23-11-2019 15:10:17 8.1 C 26 %
524 23-11-2019 15:20:17 8.4 C 23 %
525 23-11-2019 15:30:17 8.4 C 25 %
Sensor: Nr:Datum:Temp:Feuchte:
Aussen-T/F 526 23-11-2019 15:40:17 8.1 C 25 %
527 23-11-2019 15:50:17 7.5 C 26 %
528 23-11-2019 16:00:17 7.5 C 26 %
529 23-11-2019 16:10:17 7.3 C 25 %
530 23-11-2019 16:20:17 7.3 C 25 %
531 23-11-2019 16:30:17 6.5 C 28 %
532 23-11-2019 16:40:17 5.9 C 31 %
533 23-11-2019 16:50:17 5.7 C 32 %
534 23-11-2019 17:00:17 5.7 C 32 %
535 23-11-2019 17:10:17 5.8 C 31 %
536 23-11-2019 17:20:17 5.6 C 32 %
537 23-11-2019 17:30:17 5.5 C 33 %
538 23-11-2019 17:40:17 5.3 C 32 %
539 23-11-2019 17:50:17 5.3 C 33 %
540 23-11-2019 18:00:17 5.3 C 33 %
541 23-11-2019 18:10:17 5 C 34 %
542 23-11-2019 18:20:17 5.3 C 34 %
543 23-11-2019 18:30:17 5.3 C 34 %
544 23-11-2019 18:40:17 5.3 C 34 %
545 23-11-2019 18:50:17 4.9 C 36 %
546 23-11-2019 19:00:17 5.1 C 35 %
547 23-11-2019 19:10:17 5 C 36 %
548 23-11-2019 19:20:17 5 C 36 %
549 23-11-2019 19:30:17 5 C 36 %
550 23-11-2019 19:40:17 4.7 C 36 %
Sensor: Nr:Datum:Temp:Feuchte:
Aussen-T/F 551 23-11-2019 19:50:17 4.7 C 38 %
552 23-11-2019 20:00:17 4.5 C 40 %
553 23-11-2019 20:10:17 4.2 C 39 %
554 23-11-2019 20:20:17 4.1 C 40 %
555 23-11-2019 20:30:17 3.6 C 40 %
556 23-11-2019 20:40:18 3.6 C 40 %
557 23-11-2019 20:50:17 3.6 C 42 %
558 23-11-2019 21:00:17 3.6 C 42 %
559 23-11-2019 21:10:17 3.5 C 42 %
560 23-11-2019 21:20:17 3.3 C 41 %
561 23-11-2019 21:30:17 3.2 C 41 %
562 23-11-2019 21:40:17 3.2 C 42 %
563 23-11-2019 21:50:17 3.2 C 42 %
564 23-11-2019 22:00:17 3.1 C 42 %
565 23-11-2019 22:10:17 2.8 C 42 %
566 23-11-2019 22:20:17 2.6 C 42 %
567 23-11-2019 22:30:17 2.7 C 42 %
568 23-11-2019 22:40:17 2.6 C 42 %
569 23-11-2019 22:50:17 2.6 C 42 %
570 23-11-2019 23:00:17 2.5 C 42 %
571 23-11-2019 23:10:17 2.2 C 42 %
572 23-11-2019 23:20:17 2.2 C 42 %
573 23-11-2019 23:30:17 2 C 42 %
574 23-11-2019 23:40:17 2.1 C 42 %
575 23-11-2019 23:50:17 2.1 C 42 %
Sensor: Nr:Datum:Temp:Feuchte:
Aussen-T/F 576 24-11-2019 00:00:17 1.9 C 43 %
577 24-11-2019 00:10:17 1.7 C 43 %
578 24-11-2019 00:20:17 1.7 C 43 %
579 24-11-2019 00:30:17 1.6 C 43 %
580 24-11-2019 00:40:17 1.4 C 42 %
581 24-11-2019 00:50:18 1.1 C 42 %
582 24-11-2019 01:00:18 1.2 C 43 %
583 24-11-2019 01:10:18 1.4 C 43 %
584 24-11-2019 01:20:17 1.3 C 43 %
585 24-11-2019 01:30:17 1.2 C 42 %
586 24-11-2019 01:40:17 1.2 C 43 %
587 24-11-2019 01:50:17 1.1 C 43 %
588 24-11-2019 02:00:17 1.1 C 43 %
589 24-11-2019 02:10:17 1.1 C 43 %
590 24-11-2019 02:20:17 1.2 C 43 %
591 24-11-2019 02:30:17 1 C 42 %
592 24-11-2019 02:40:17 1.1 C 42 %
593 24-11-2019 02:50:17 1.1 C 42 %
594 24-11-2019 03:00:17 0.9 C 44 %
595 24-11-2019 03:10:17 1.1 C 43 %
596 24-11-2019 03:20:17 1.2 C 42 %
597 24-11-2019 03:30:17 1 C 42 %
598 24-11-2019 03:40:17 0.7 C 43 %
599 24-11-2019 03:50:17 0.6 C 43 %
600 24-11-2019 04:00:17 0.5 C 43 %
Sensor: Nr:Datum:Temp:Feuchte:
Aussen-T/F 601 24-11-2019 04:10:17 0.5 C 43 %
602 24-11-2019 04:20:17 0.6 C 43 %
603 24-11-2019 04:30:17 0.5 C 43 %
604 24-11-2019 04:40:17 0.5 C 43 %
605 24-11-2019 04:50:17 0.6 C 44 %
606 24-11-2019 05:00:17 0.6 C 44 %
607 24-11-2019 05:10:17 0.8 C 44 %
608 24-11-2019 05:20:17 1 C 42 %
609 24-11-2019 05:30:17 1.1 C 42 %
610 24-11-2019 05:40:17 1 C 42 %
611 24-11-2019 05:50:17 0.6 C 43 %
612 24-11-2019 06:00:18 0.4 C 43 %
613 24-11-2019 06:10:18 0.5 C 43 %
614 24-11-2019 06:20:17 0.5 C 43 %
615 24-11-2019 06:30:17 0.5 C 43 %
616 24-11-2019 06:40:17 0.5 C 43 %
617 24-11-2019 06:50:17 0.3 C 43 %
618 24-11-2019 07:00:18 0.4 C 43 %
619 24-11-2019 07:10:18 0.1 C 43 %
620 24-11-2019 07:20:18 0.1 C 43 %
621 24-11-2019 07:30:17 0.1 C 43 %
622 24-11-2019 07:40:17 -0.3 C 43 %
623 24-11-2019 07:50:18 -0.3 C 43 %
624 24-11-2019 08:00:18 -0.1 C 43 %
625 24-11-2019 08:10:18 0.1 C 43 %
Sensor: Nr:Datum:Temp:Feuchte:
Aussen-T/F 626 24-11-2019 08:20:17 -0.1 C 43 %
627 24-11-2019 08:30:17 0.3 C 43 %
628 24-11-2019 08:40:17 0.5 C 43 %
629 24-11-2019 08:50:17 0.5 C 43 %
630 24-11-2019 09:00:17 0.6 C 43 %
631 24-11-2019 09:10:17 0.7 C 43 %
632 24-11-2019 09:20:17 0.8 C 43 %
633 24-11-2019 09:30:17 0.8 C 43 %
634 24-11-2019 09:40:17 1 C 42 %
635 24-11-2019 09:50:17 1.1 C 42 %
636 24-11-2019 10:00:17 1.2 C 42 %
637 24-11-2019 10:10:17 1.5 C 42 %
638 24-11-2019 10:20:17 1.7 C 42 %
639 24-11-2019 10:30:17 2 C 42 %
640 24-11-2019 10:40:17 2.2 C 41 %
641 24-11-2019 10:50:17 2.7 C 42 %
642 24-11-2019 11:00:17 2.5 C 41 %
643 24-11-2019 11:10:17 2.1 C 40 %
644 24-11-2019 11:20:17 2.2 C 40 %
645 24-11-2019 11:30:17 2.2 C 40 %
646 24-11-2019 11:40:17 2.3 C 40 %
647 24-11-2019 11:50:17 2.5 C 40 %
648 24-11-2019 12:00:17 2.7 C 41 %
649 24-11-2019 12:10:17 3 C 40 %
650 24-11-2019 12:20:17 3.4 C 40 %
Sensor: Nr:Datum:Temp:Feuchte:
Aussen-T/F 651 24-11-2019 12:30:17 3.8 C 40 %
652 24-11-2019 12:40:17 4 C 38 %
653 24-11-2019 12:50:17 4.2 C 38 %
654 24-11-2019 13:00:17 4.6 C 38 %
655 24-11-2019 13:10:17 5.1 C 35 %
656 24-11-2019 13:20:17 5 C 35 %
657 24-11-2019 13:30:17 5 C 35 %
658 24-11-2019 13:40:17 4.7 C 35 %
659 24-11-2019 13:50:17 4.8 C 35 %
660 24-11-2019 14:00:17 5.1 C 35 %
661 24-11-2019 14:10:17 5.1 C 35 %
662 24-11-2019 14:20:17 5 C 35 %
663 24-11-2019 14:30:17 4.8 C 37 %
664 24-11-2019 14:40:17 4.6 C 37 %
665 24-11-2019 14:50:17 4.6 C 39 %
666 24-11-2019 15:00:17 4.5 C 38 %
667 24-11-2019 15:10:17 4.7 C 40 %
668 24-11-2019 15:20:17 4.9 C 39 %
669 24-11-2019 15:30:17 4.8 C 38 %
670 24-11-2019 15:40:17 4.7 C 38 %
671 24-11-2019 15:50:17 4.6 C 38 %
672 24-11-2019 16:00:17 4.5 C 40 %
673 24-11-2019 16:10:17 4.2 C 39 %
674 24-11-2019 16:20:17 3.9 C 40 %
675 24-11-2019 16:30:17 3.7 C 41 %
Sensor: Nr:Datum:Temp:Feuchte:
Aussen-T/F 676 24-11-2019 16:40:17 3.5 C 41 %
677 24-11-2019 16:50:17 3.2 C 41 %
678 24-11-2019 17:00:17 3 C 41 %
679 24-11-2019 17:10:17 2.8 C 42 %
680 24-11-2019 17:20:17 2.7 C 42 %
681 24-11-2019 17:30:17 2.6 C 42 %
682 24-11-2019 17:40:17 2.4 C 42 %
683 24-11-2019 17:50:17 2.6 C 43 %
684 24-11-2019 18:00:17 2.5 C 42 %
685 24-11-2019 18:10:17 2.8 C 43 %
686 24-11-2019 18:20:17 2.6 C 42 %
687 24-11-2019 18:30:17 2.9 C 43 %
688 24-11-2019 18:40:17 2.6 C 42 %
689 24-11-2019 18:50:17 2.7 C 42 %
690 24-11-2019 19:00:17 2.5 C 42 %
691 24-11-2019 19:10:17 2.6 C 42 %
692 24-11-2019 19:20:17 2.6 C 42 %
693 24-11-2019 19:30:17 2.8 C 42 %
694 24-11-2019 19:40:17 2.7 C 42 %
695 24-11-2019 19:50:17 2.7 C 42 %
696 24-11-2019 20:00:17 2.5 C 42 %
697 24-11-2019 20:10:17 2.4 C 42 %
698 24-11-2019 20:20:17 2.1 C 41 %
699 24-11-2019 20:30:17 2 C 41 %
700 24-11-2019 20:40:17 2 C 41 %
Sensor: Nr:Datum:Temp:Feuchte:
Aussen-T/F 701 24-11-2019 20:50:17 2 C 42 %
702 24-11-2019 21:00:17 1.8 C 42 %
703 24-11-2019 21:10:17 2.2 C 42 %
704 24-11-2019 21:20:17 2 C 42 %
705 24-11-2019 21:30:17 2 C 42 %
706 24-11-2019 21:40:17 1.8 C 43 %
707 24-11-2019 21:50:17 1.8 C 43 %
708 24-11-2019 22:00:17 1.7 C 42 %
709 24-11-2019 22:10:17 1.3 C 42 %
710 24-11-2019 22:20:17 1.2 C 42 %
711 24-11-2019 22:30:17 1.2 C 42 %
712 24-11-2019 22:40:17 1 C 42 %
713 24-11-2019 22:50:17 1 C 42 %
714 24-11-2019 23:00:17 1.2 C 42 %
715 24-11-2019 23:10:17 1 C 42 %
716 24-11-2019 23:20:17 1 C 42 %
717 24-11-2019 23:30:17 0.8 C 43 %
718 24-11-2019 23:40:17 0.8 C 43 %
719 24-11-2019 23:50:17 0.9 C 43 %
720 25-11-2019 00:00:18 0.8 C 43 %
721 25-11-2019 00:10:18 0.9 C 43 %
722 25-11-2019 00:20:17 1.2 C 42 %
723 25-11-2019 00:30:17 1.4 C 42 %
724 25-11-2019 00:40:17 1.5 C 42 %
725 25-11-2019 00:50:18 1.5 C 42 %
Sensor: Nr:Datum:Temp:Feuchte:
Aussen-T/F 726 25-11-2019 01:00:18 1.5 C 42 %
727 25-11-2019 01:10:18 1.5 C 42 %
728 25-11-2019 01:20:17 1.6 C 42 %
729 25-11-2019 01:30:17 1.5 C 42 %
730 25-11-2019 01:40:17 1.4 C 42 %
731 25-11-2019 01:50:17 1.3 C 42 %
732 25-11-2019 02:00:17 1.3 C 42 %
733 25-11-2019 02:10:17 1.3 C 42 %
734 25-11-2019 02:20:17 1.2 C 42 %
735 25-11-2019 02:30:17 1.3 C 42 %
736 25-11-2019 02:40:17 1.4 C 42 %
737 25-11-2019 02:50:17 1.5 C 42 %
738 25-11-2019 03:00:17 1.6 C 42 %
739 25-11-2019 03:10:17 1.5 C 42 %
740 25-11-2019 03:20:17 1.5 C 42 %
741 25-11-2019 03:30:17 1.5 C 42 %
742 25-11-2019 03:40:17 1.6 C 42 %
743 25-11-2019 03:50:17 1.7 C 42 %
744 25-11-2019 04:00:17 1.8 C 42 %
745 25-11-2019 04:10:17 1.8 C 42 %
746 25-11-2019 04:20:17 1.9 C 42 %
747 25-11-2019 04:30:17 2 C 41 %
748 25-11-2019 04:40:17 2.1 C 41 %
749 25-11-2019 04:50:17 2.1 C 41 %
750 25-11-2019 05:00:17 2.2 C 41 %
Sensor: Nr:Datum:Temp:Feuchte:
Aussen-T/F 751 25-11-2019 05:10:17 2.1 C 41 %
752 25-11-2019 05:20:17 2.2 C 41 %
753 25-11-2019 05:30:17 2.4 C 41 %
754 25-11-2019 05:40:17 2.4 C 41 %
755 25-11-2019 05:50:17 2.5 C 41 %
756 25-11-2019 06:00:17 2.5 C 41 %
757 25-11-2019 06:10:17 2.5 C 41 %
758 25-11-2019 06:20:17 2.5 C 41 %
759 25-11-2019 06:30:17 2.6 C 41 %
760 25-11-2019 06:40:17 2.6 C 41 %
761 25-11-2019 06:50:17 2.8 C 41 %
762 25-11-2019 07:00:17 2.8 C 41 %
763 25-11-2019 07:10:17 2.8 C 41 %
764 25-11-2019 07:20:17 2.8 C 41 %
765 25-11-2019 07:30:17 2.8 C 41 %
766 25-11-2019 07:40:17 2.8 C 41 %
767 25-11-2019 07:50:17 2.8 C 41 %
768 25-11-2019 08:00:17 2.9 C 41 %
769 25-11-2019 08:10:17 3 C 41 %
770 25-11-2019 08:20:17 3.1 C 41 %
771 25-11-2019 08:30:18 3.2 C 41 %
772 25-11-2019 08:40:18 3.3 C 42 %
773 25-11-2019 08:50:17 3.4 C 42 %
774 25-11-2019 09:00:17 3.6 C 43 %
775 25-11-2019 09:10:17 3.6 C 43 %
Sensor: Nr:Datum:Temp:Feuchte:
Aussen-T/F 776 25-11-2019 09:20:17 3.7 C 43 %
777 25-11-2019 09:30:17 3.6 C 43 %
778 25-11-2019 09:40:17 3.8 C 43 %
779 25-11-2019 09:50:17 3.8 C 42 %
780 25-11-2019 10:00:17 4.1 C 42 %
781 25-11-2019 10:10:17 4.5 C 43 %
782 25-11-2019 10:20:17 4.5 C 43 %
783 25-11-2019 10:30:17 5.1 C 40 %
784 25-11-2019 10:40:17 5.1 C 38 %
785 25-11-2019 10:50:17 5.1 C 37 %
786 25-11-2019 11:00:17 5.1 C 37 %
787 25-11-2019 11:10:17 5.2 C 37 %
788 25-11-2019 11:20:17 5.3 C 37 %
789 25-11-2019 11:30:17 5.4 C 37 %
790 25-11-2019 11:40:17 5.8 C 37 %
791 25-11-2019 11:50:17 6.3 C 36 %
792 25-11-2019 12:00:17 6.1 C 33 %
793 25-11-2019 12:10:17 6.4 C 33 %
794 25-11-2019 12:20:17 6.3 C 33 %
795 25-11-2019 12:30:17 6.3 C 32 %
796 25-11-2019 12:40:17 6.6 C 32 %
797 25-11-2019 12:50:17 6.6 C 32 %
798 25-11-2019 13:00:17 6.7 C 31 %
799 25-11-2019 13:10:17 6.8 C 33 %
800 25-11-2019 13:20:17 7 C 32 %
Sensor: Nr:Datum:Temp:Feuchte:
Aussen-T/F 801 25-11-2019 13:30:17 7 C 32 %
802 25-11-2019 13:40:17 7 C 33 %
803 25-11-2019 13:50:17 6.9 C 32 %
804 25-11-2019 14:00:17 6.9 C 33 %
805 25-11-2019 14:10:17 6.8 C 31 %
806 25-11-2019 14:20:17 6.8 C 35 %
807 25-11-2019 14:30:17 6.8 C 36 %
808 25-11-2019 14:40:17 6.9 C 36 %
809 25-11-2019 14:50:17 6.8 C 35 %
810 25-11-2019 15:00:17 6.7 C 35 %
811 25-11-2019 15:10:17 6.7 C 35 %
812 25-11-2019 15:20:17 6.7 C 34 %
813 25-11-2019 15:30:17 6.7 C 35 %
814 25-11-2019 15:40:17 6.6 C 33 %
815 25-11-2019 15:50:17 6.5 C 34 %
816 25-11-2019 16:00:17 6.5 C 35 %
817 25-11-2019 16:10:17 6.4 C 36 %
818 25-11-2019 16:20:17 6.3 C 36 %
819 25-11-2019 16:30:17 6.2 C 37 %
820 25-11-2019 16:40:17 6.1 C 38 %
821 25-11-2019 16:50:17 6.1 C 38 %
822 25-11-2019 17:00:17 6 C 38 %
823 25-11-2019 17:10:17 6 C 38 %
824 25-11-2019 17:20:17 5.9 C 38 %
825 25-11-2019 17:30:17 5.9 C 39 %
Sensor: Nr:Datum:Temp:Feuchte:
Aussen-T/F 826 25-11-2019 17:40:17 5.8 C 39 %
827 25-11-2019 17:50:17 5.9 C 39 %
828 25-11-2019 18:00:18 5.9 C 39 %
829 25-11-2019 18:10:18 5.9 C 40 %
830 25-11-2019 18:20:17 5.9 C 39 %
831 25-11-2019 18:30:17 5.9 C 40 %
832 25-11-2019 18:40:17 5.9 C 40 %
833 25-11-2019 18:50:17 5.8 C 40 %
834 25-11-2019 19:00:17 5.8 C 39 %
835 25-11-2019 19:10:17 5.4 C 38 %
836 25-11-2019 19:20:17 5 C 38 %
837 25-11-2019 19:30:17 5.1 C 40 %
838 25-11-2019 19:40:17 5 C 40 %
839 25-11-2019 19:50:17 5.2 C 40 %
840 25-11-2019 20:00:17 5.1 C 41 %
841 25-11-2019 20:10:17 5.3 C 41 %
842 25-11-2019 20:20:17 5.4 C 41 %
843 25-11-2019 20:30:17 5.4 C 41 %
844 25-11-2019 20:40:17 5.2 C 40 %
845 25-11-2019 20:50:17 5.1 C 40 %
846 25-11-2019 21:00:17 5.3 C 40 %
847 25-11-2019 21:10:17 5.1 C 39 %
848 25-11-2019 21:20:17 5.1 C 39 %
849 25-11-2019 21:30:17 5.2 C 40 %
850 25-11-2019 21:40:17 5 C 40 %
Sensor: Nr:Datum:Temp:Feuchte:
Aussen-T/F 851 25-11-2019 21:50:17 4.7 C 40 %
852 25-11-2019 22:00:17 4.7 C 40 %
853 25-11-2019 22:10:17 4.3 C 40 %
854 25-11-2019 22:20:17 4.1 C 40 %
855 25-11-2019 22:30:17 3.9 C 41 %
856 25-11-2019 22:40:17 4.1 C 41 %
857 25-11-2019 22:50:17 3.8 C 42 %
858 25-11-2019 23:00:17 3.5 C 42 %
859 25-11-2019 23:10:17 3.3 C 42 %
860 25-11-2019 23:20:17 3.1 C 42 %
861 25-11-2019 23:30:17 2.7 C 42 %
862 25-11-2019 23:40:17 3 C 42 %
863 25-11-2019 23:50:17 2.8 C 43 %
864 26-11-2019 00:00:17 2.3 C 42 %
865 26-11-2019 00:10:17 2.3 C 42 %
866 26-11-2019 00:20:17 2.5 C 42 %
867 26-11-2019 00:30:17 2.4 C 42 %
868 26-11-2019 00:40:17 2.5 C 43 %
869 26-11-2019 00:50:17 3.1 C 42 %
870 26-11-2019 01:00:17 3.3 C 42 %
871 26-11-2019 01:10:17 3.4 C 42 %
872 26-11-2019 01:20:17 3.4 C 42 %
873 26-11-2019 01:30:17 3.4 C 42 %
874 26-11-2019 01:40:17 3.5 C 42 %
875 26-11-2019 01:50:17 3.6 C 42 %
Sensor: Nr:Datum:Temp:Feuchte:
Aussen-T/F 876 26-11-2019 02:00:17 3.8 C 42 %
877 26-11-2019 02:10:17 3.8 C 42 %
878 26-11-2019 02:20:17 3.8 C 41 %
879 26-11-2019 02:30:17 3.8 C 41 %
880 26-11-2019 02:40:17 3.9 C 41 %
881 26-11-2019 02:50:17 4.3 C 41 %
882 26-11-2019 03:00:17 4.5 C 41 %
883 26-11-2019 03:10:17 4.5 C 41 %
884 26-11-2019 03:20:17 4.5 C 41 %
885 26-11-2019 03:30:17 4.1 C 40 %
886 26-11-2019 03:40:17 4.4 C 40 %
887 26-11-2019 03:50:17 4.6 C 41 %
888 26-11-2019 04:00:17 4.8 C 41 %
889 26-11-2019 04:10:17 5.1 C 40 %
890 26-11-2019 04:20:17 5.2 C 40 %
891 26-11-2019 04:30:18 5.2 C 40 %
892 26-11-2019 04:40:18 5.4 C 40 %
893 26-11-2019 04:50:17 5.6 C 40 %
894 26-11-2019 05:00:18 5.7 C 40 %
895 26-11-2019 05:10:18 5.7 C 40 %
896 26-11-2019 05:20:17 5.8 C 40 %
897 26-11-2019 05:30:17 5.8 C 40 %
898 26-11-2019 05:40:17 5.8 C 40 %
899 26-11-2019 05:50:17 5.9 C 40 %
900 26-11-2019 06:00:17 5.9 C 40 %
Sensor: Nr:Datum:Temp:Feuchte:
Aussen-T/F 901 26-11-2019 06:10:17 5.9 C 40 %
902 26-11-2019 06:20:17 6 C 39 %
903 26-11-2019 06:30:17 6.2 C 40 %
904 26-11-2019 06:40:17 6.2 C 39 %
905 26-11-2019 06:50:17 6.2 C 39 %
906 26-11-2019 07:00:17 6.5 C 40 %
907 26-11-2019 07:10:17 6.5 C 40 %
908 26-11-2019 07:20:17 6.6 C 39 %
909 26-11-2019 07:30:17 6.6 C 39 %
910 26-11-2019 07:40:17 6.6 C 39 %
911 26-11-2019 07:50:17 6.7 C 39 %
912 26-11-2019 08:00:17 6.8 C 39 %
913 26-11-2019 08:10:17 6.9 C 39 %
914 26-11-2019 08:20:17 6.8 C 38 %
915 26-11-2019 08:30:17 6.8 C 38 %
916 26-11-2019 08:40:17 6.7 C 38 %
917 26-11-2019 08:50:17 6.8 C 38 %
918 26-11-2019 09:00:17 7 C 37 %
919 26-11-2019 09:10:17 7.4 C 38 %
920 26-11-2019 09:20:17 7.6 C 37 %
921 26-11-2019 09:30:17 7.9 C 36 %
922 26-11-2019 09:40:17 8.3 C 33 %
923 26-11-2019 09:50:17 8.5 C 31 %
924 26-11-2019 10:00:17 8.8 C 32 %
925 26-11-2019 10:10:17 9.1 C 32 %
Sensor: Nr:Datum:Temp:Feuchte:
Aussen-T/F 926 26-11-2019 10:20:17 9.4 C 32 %
927 26-11-2019 10:30:17 9.6 C 32 %
928 26-11-2019 10:40:17 9.7 C 31 %
929 26-11-2019 10:50:17 9.9 C 31 %
930 26-11-2019 11:00:17 10.3 C 29 %
931 26-11-2019 11:10:17 10.5 C 29 %
932 26-11-2019 11:20:17 10.6 C 26 %
933 26-11-2019 11:30:17 10.7 C 26 %
934 26-11-2019 11:40:17 10.6 C 26 %
935 26-11-2019 11:50:17 10.5 C 26 %
936 26-11-2019 12:00:17 10.6 C 27 %
937 26-11-2019 12:10:17 10.6 C 28 %
938 26-11-2019 12:20:17 10.4 C 26 %
939 26-11-2019 12:30:17 10.4 C 27 %
940 26-11-2019 12:40:17 10.8 C 27 %
941 26-11-2019 12:50:17 10.7 C 26 %
942 26-11-2019 13:00:17 10.8 C 27 %
943 26-11-2019 13:10:17 10.8 C 27 %
944 26-11-2019 13:20:17 11 C 26 %
945 26-11-2019 13:30:17 10.8 C 26 %
946 26-11-2019 13:40:17 10.6 C 26 %
947 26-11-2019 13:50:17 10.5 C 27 %
948 26-11-2019 14:00:17 10.2 C 30 %
949 26-11-2019 14:10:17 10.2 C 30 %
950 26-11-2019 14:20:17 10.5 C 30 %
Sensor: Nr:Datum:Temp:Feuchte:
Aussen-T/F 951 26-11-2019 14:30:17 10.2 C 28 %
952 26-11-2019 14:40:17 10.6 C 28 %
953 26-11-2019 14:50:17 10.6 C 28 %
954 26-11-2019 15:00:17 10.7 C 27 %
955 26-11-2019 15:10:17 10.9 C 26 %
956 26-11-2019 15:20:17 11.1 C 26 %
957 26-11-2019 15:30:17 11.1 C 26 %
958 26-11-2019 15:40:17 10.6 C 27 %
959 26-11-2019 15:50:17 10.5 C 28 %
960 26-11-2019 16:00:17 10.1 C 30 %
961 26-11-2019 16:10:17 10 C 30 %
962 26-11-2019 16:20:17 9.9 C 31 %
963 26-11-2019 16:30:17 10 C 30 %
964 26-11-2019 16:40:17 10 C 29 %
965 26-11-2019 16:50:17 9.7 C 30 %
966 26-11-2019 17:00:17 9.6 C 30 %
967 26-11-2019 17:10:17 9.4 C 31 %
968 26-11-2019 17:20:17 9.3 C 31 %
969 26-11-2019 17:30:17 9.2 C 31 %
970 26-11-2019 17:40:17 9.1 C 31 %
971 26-11-2019 17:50:17 8.9 C 32 %
972 26-11-2019 18:00:17 8.8 C 34 %
973 26-11-2019 18:10:17 8.9 C 36 %
974 26-11-2019 18:20:17 8.9 C 37 %
975 26-11-2019 18:30:17 9 C 35 %
Sensor: Nr:Datum:Temp:Feuchte:
Aussen-T/F 976 26-11-2019 18:40:17 8.9 C 35 %
977 26-11-2019 18:50:17 9.1 C 34 %
978 26-11-2019 19:00:17 9.7 C 31 %
979 26-11-2019 19:10:17 9.5 C 31 %
980 26-11-2019 19:20:17 9.6 C 30 %
981 26-11-2019 19:30:17 9.6 C 30 %
982 26-11-2019 19:40:17 9.7 C 30 %
983 26-11-2019 19:50:17 9.5 C 30 %
984 26-11-2019 20:00:17 9.5 C 30 %
985 26-11-2019 20:10:17 9.2 C 31 %
986 26-11-2019 20:20:17 8.9 C 32 %
987 26-11-2019 20:30:17 8.4 C 35 %
988 26-11-2019 20:40:17 8.2 C 35 %
989 26-11-2019 20:50:17 8 C 37 %
990 26-11-2019 21:00:17 7.9 C 38 %
991 26-11-2019 21:10:17 8.3 C 39 %
992 26-11-2019 21:20:17 8.5 C 37 %
993 26-11-2019 21:30:17 8.7 C 36 %
994 26-11-2019 21:40:17 8.8 C 35 %
995 26-11-2019 21:50:17 8.8 C 35 %
996 26-11-2019 22:00:17 8.9 C 35 %
997 26-11-2019 22:10:17 8.8 C 34 %
998 26-11-2019 22:20:17 8.6 C 34 %
999 26-11-2019 22:30:17 8.4 C 35 %
1000 26-11-2019 22:40:17 8.1 C 35 %
Sensor: Nr:Datum:Temp:Feuchte:
Aussen-T/F 1001 26-11-2019 22:50:17 7.8 C 36 %
1002 26-11-2019 23:00:17 7.9 C 39 %
1003 26-11-2019 23:10:17 7.9 C 39 %
1004 26-11-2019 23:20:17 8 C 38 %
1005 26-11-2019 23:30:17 7.8 C 38 %
1006 26-11-2019 23:40:17 7.7 C 38 %
1007 26-11-2019 23:50:17 7.8 C 39 %
1008 27-11-2019 00:00:17 7.6 C 39 %
1009 27-11-2019 00:10:17 7.5 C 39 %
1010 27-11-2019 00:20:17 7.6 C 40 %
1011 27-11-2019 00:30:17 7.6 C 39 %
1012 27-11-2019 00:40:17 7.9 C 40 %
1013 27-11-2019 00:50:17 7.7 C 39 %
1014 27-11-2019 01:00:17 7.4 C 39 %
1015 27-11-2019 01:10:17 7.6 C 40 %
1016 27-11-2019 01:20:17 7.6 C 40 %
1017 27-11-2019 01:30:17 7.8 C 40 %
1018 27-11-2019 01:40:17 7.8 C 40 %
1019 27-11-2019 01:50:17 8 C 39 %
1020 27-11-2019 02:00:17 8.1 C 39 %
1021 27-11-2019 02:10:17 8.1 C 38 %
1022 27-11-2019 02:20:17 8.1 C 38 %
1023 27-11-2019 02:30:17 8 C 39 %
1024 27-11-2019 02:40:17 7.8 C 40 %
1025 27-11-2019 02:50:17 7.7 C 40 %
Sensor: Nr:Datum:Temp:Feuchte:
Aussen-T/F 1026 27-11-2019 03:00:17 7.8 C 40 %
1027 27-11-2019 03:10:17 7.6 C 41 %
1028 27-11-2019 03:20:17 7.5 C 40 %
1029 27-11-2019 03:30:17 7.2 C 40 %
1030 27-11-2019 03:40:17 7.1 C 40 %
1031 27-11-2019 03:50:17 7 C 40 %
1032 27-11-2019 04:00:17 7.1 C 40 %
1033 27-11-2019 04:10:17 7.3 C 40 %
1034 27-11-2019 04:20:17 7.5 C 40 %
1035 27-11-2019 04:30:17 7.6 C 40 %
1036 27-11-2019 04:40:17 7.6 C 40 %
1037 27-11-2019 04:50:17 7.4 C 39 %
1038 27-11-2019 05:00:17 7.1 C 38 %
1039 27-11-2019 05:10:17 7.4 C 39 %
1040 27-11-2019 05:20:17 7.8 C 37 %
1041 27-11-2019 05:30:17 7.7 C 37 %
1042 27-11-2019 05:40:17 8 C 35 %
1043 27-11-2019 05:50:17 8 C 35 %
1044 27-11-2019 06:00:18 8 C 34 %
1045 27-11-2019 06:10:18 7.8 C 35 %
1046 27-11-2019 06:20:17 7.8 C 36 %
1047 27-11-2019 06:30:17 7.6 C 37 %
1048 27-11-2019 06:40:17 7.7 C 39 %
1049 27-11-2019 06:50:17 7.6 C 39 %
1050 27-11-2019 07:00:17 7.8 C 37 %
Sensor: Nr:Datum:Temp:Feuchte:
Aussen-T/F 1051 27-11-2019 07:10:17 7.8 C 35 %
1052 27-11-2019 07:20:17 7.9 C 35 %
1053 27-11-2019 07:30:17 8.1 C 34 %
1054 27-11-2019 07:40:17 8 C 32 %
1055 27-11-2019 07:50:17 8 C 34 %
1056 27-11-2019 08:00:17 8.2 C 33 %
1057 27-11-2019 08:10:17 8.2 C 33 %
1058 27-11-2019 08:20:17 8.3 C 34 %
1059 27-11-2019 08:30:17 8.4 C 33 %
1060 27-11-2019 08:40:17 8.4 C 33 %
1061 27-11-2019 08:50:17 8.4 C 35 %
1062 27-11-2019 09:00:17 8.6 C 35 %
1063 27-11-2019 09:10:17 8.6 C 36 %
1064 27-11-2019 09:20:17 8.8 C 36 %
1065 27-11-2019 09:30:17 9.1 C 33 %
1066 27-11-2019 09:40:17 9 C 34 %
1067 27-11-2019 09:50:17 9 C 34 %
1068 27-11-2019 10:00:17 9.1 C 35 %
1069 27-11-2019 10:10:17 9.2 C 35 %
1070 27-11-2019 10:20:17 9.3 C 35 %
1071 27-11-2019 10:30:17 9.7 C 31 %
1072 27-11-2019 10:40:17 10 C 29 %
1073 27-11-2019 10:50:17 10.4 C 27 %
1074 27-11-2019 11:00:17 11 C 25 %
1075 27-11-2019 11:10:17 11.3 C 24 %
Sensor: Nr:Datum:Temp:Feuchte:
Aussen-T/F 1076 27-11-2019 11:20:17 11.6 C 22 %
1077 27-11-2019 11:30:17 11.7 C 22 %
1078 27-11-2019 11:40:17 12.1 C 20 %
1079 27-11-2019 11:50:17 12.4 C 20 %
1080 27-11-2019 12:00:17 12.7 C 20 %
1081 27-11-2019 12:10:17 12.7 C 20 %
1082 27-11-2019 12:20:18 12.7 C 20 %
1083 27-11-2019 12:30:17 12.7 C 20 %
1084 27-11-2019 12:40:17 12.8 C 20 %
1085 27-11-2019 12:50:17 12.8 C 20 %
1086 27-11-2019 13:00:17 12.7 C 20 %
1087 27-11-2019 13:10:17 12.8 C 20 %
1088 27-11-2019 13:20:17 12.8 C 20 %
1089 27-11-2019 13:30:17 12.6 C 20 %
1090 27-11-2019 13:40:17 12.7 C 20 %
1091 27-11-2019 13:50:17 12.9 C 20 %
1092 27-11-2019 14:00:17 13.1 C 20 %
1093 27-11-2019 14:10:17 13 C 20 %
1094 27-11-2019 14:20:17 12.9 C 20 %
1095 27-11-2019 14:30:17 12.9 C 20 %
1096 27-11-2019 14:40:17 12.9 C 20 %
1097 27-11-2019 14:50:17 12.9 C 20 %
1098 27-11-2019 15:00:17 12.7 C 20 %
1099 27-11-2019 15:10:17 12.8 C 20 %
1100 27-11-2019 15:20:17 12.8 C 20 %
Sensor: Nr:Datum:Temp:Feuchte:
Aussen-T/F 1101 27-11-2019 15:30:17 12.8 C 20 %
1102 27-11-2019 15:40:17 12.5 C 20 %
1103 27-11-2019 15:50:17 12.2 C 20 %
1104 27-11-2019 16:00:17 11.5 C 20 %
1105 27-11-2019 16:10:17 11.1 C 20 %
1106 27-11-2019 16:20:17 10.8 C 25 %
1107 27-11-2019 16:30:17 10.3 C 26 %
1108 27-11-2019 16:40:17 9.9 C 29 %
1109 27-11-2019 16:50:18 9.7 C 30 %
1110 27-11-2019 17:00:17 9.5 C 31 %
1111 27-11-2019 17:10:17 9.8 C 31 %
1112 27-11-2019 17:20:17 9.8 C 31 %
1113 27-11-2019 17:30:17 9.8 C 31 %
1114 27-11-2019 17:40:17 9.7 C 33 %
1115 27-11-2019 17:50:17 9.6 C 33 %
1116 27-11-2019 18:00:17 9.7 C 32 %
1117 27-11-2019 18:10:17 9.7 C 32 %
1118 27-11-2019 18:20:17 9.9 C 31 %
1119 27-11-2019 18:30:17 9.9 C 31 %
1120 27-11-2019 18:40:17 9.8 C 32 %
1121 27-11-2019 18:50:17 9.7 C 34 %
1122 27-11-2019 19:00:17 9.7 C 36 %
1123 27-11-2019 19:10:17 9.8 C 34 %
1124 27-11-2019 19:20:17 9.7 C 33 %
1125 27-11-2019 19:30:17 10 C 31 %
Sensor: Nr:Datum:Temp:Feuchte:
Aussen-T/F 1126 27-11-2019 19:40:17 10 C 31 %
1127 27-11-2019 19:50:17 10.4 C 28 %
1128 27-11-2019 20:00:17 10.8 C 26 %
1129 27-11-2019 20:10:17 10.9 C 26 %
1130 27-11-2019 20:20:17 11 C 25 %
1131 27-11-2019 20:30:17 10.6 C 26 %
1132 27-11-2019 20:40:17 9.9 C 30 %
1133 27-11-2019 20:50:17 9.7 C 31 %
1134 27-11-2019 21:00:17 9.8 C 33 %
1135 27-11-2019 21:10:17 9.8 C 32 %
1136 27-11-2019 21:20:17 9.6 C 33 %
1137 27-11-2019 21:30:17 9.8 C 32 %
1138 27-11-2019 21:40:17 10.1 C 31 %
1139 27-11-2019 21:50:17 10.2 C 29 %
1140 27-11-2019 22:00:17 10.3 C 28 %
1141 27-11-2019 22:10:17 10.6 C 27 %
1142 27-11-2019 22:20:17 10.9 C 26 %
1143 27-11-2019 22:30:17 10.9 C 26 %
1144 27-11-2019 22:40:17 10.8 C 25 %
1145 27-11-2019 22:50:17 10.7 C 25 %
1146 27-11-2019 23:00:17 11.1 C 24 %
1147 27-11-2019 23:10:17 11.3 C 23 %
1148 27-11-2019 23:20:17 11.1 C 23 %
1149 27-11-2019 23:30:17 11.5 C 21 %
1150 27-11-2019 23:40:18 11.5 C 21 %
Sensor: Nr:Datum:Temp:Feuchte:
Aussen-T/F 1151 27-11-2019 23:50:17 11.2 C 21 %
1152 28-11-2019 00:00:18 11.2 C 21 %
1153 28-11-2019 00:10:18 11.3 C 20 %
1154 28-11-2019 00:20:17 11.2 C 20 %
1155 28-11-2019 00:30:17 11.2 C 20 %
1156 28-11-2019 00:40:17 11.5 C 20 %
1157 28-11-2019 00:50:17 11.3 C 20 %
1158 28-11-2019 01:00:17 11.4 C 20 %
1159 28-11-2019 01:10:17 11.4 C 20 %
1160 28-11-2019 01:20:17 11.4 C 20 %
1161 28-11-2019 01:30:17 11.4 C 20 %
1162 28-11-2019 01:40:17 11.1 C 20 %
1163 28-11-2019 01:50:17 11.1 C 20 %
1164 28-11-2019 02:00:18 10.8 C 20 %
1165 28-11-2019 02:10:18 10.5 C 20 %
1166 28-11-2019 02:20:17 10.7 C 20 %
1167 28-11-2019 02:30:17 11 C 20 %
1168 28-11-2019 02:40:17 10.5 C 21 %
1169 28-11-2019 02:50:17 10.8 C 20 %
1170 28-11-2019 03:00:17 10.9 C 20 %
1171 28-11-2019 03:10:17 10.3 C 20 %
1172 28-11-2019 03:20:18 10.8 C 20 %
1173 28-11-2019 03:30:18 10.6 C 20 %
1174 28-11-2019 03:40:18 10.9 C 20 %
1175 28-11-2019 03:50:18 10.9 C 20 %
Sensor: Nr:Datum:Temp:Feuchte:
Aussen-T/F 1176 28-11-2019 04:00:18 10.7 C 20 %
1177 28-11-2019 04:10:18 10.6 C 20 %
1178 28-11-2019 04:20:17 10.6 C 20 %
1179 28-11-2019 04:30:17 10.6 C 20 %
1180 28-11-2019 04:40:17 10.5 C 20 %
1181 28-11-2019 04:50:17 10.3 C 20 %
1182 28-11-2019 05:00:17 10.5 C 20 %
1183 28-11-2019 05:10:17 10.2 C 20 %
1184 28-11-2019 05:20:17 10.1 C 20 %
1185 28-11-2019 05:30:17 10.4 C 20 %
1186 28-11-2019 05:40:17 10.1 C 20 %
1187 28-11-2019 05:50:17 10.2 C 20 %
1188 28-11-2019 06:00:17 9.9 C 20 %
1189 28-11-2019 06:10:17 10.1 C 20 %
1190 28-11-2019 06:20:17 10.2 C 20 %
1191 28-11-2019 06:30:17 10.5 C 20 %
1192 28-11-2019 06:40:17 10.6 C 20 %
1193 28-11-2019 06:50:17 10.5 C 20 %
1194 28-11-2019 07:00:17 10.4 C 20 %
1195 28-11-2019 07:10:17 10 C 20 %
1196 28-11-2019 07:20:17 10 C 20 %
1197 28-11-2019 07:30:17 10 C 20 %
1198 28-11-2019 07:40:17 10.2 C 20 %
1199 28-11-2019 07:50:17 10.3 C 20 %
1200 28-11-2019 08:00:17 10.4 C 20 %
Sensor: Nr:Datum:Temp:Feuchte:
Aussen-T/F 1201 28-11-2019 08:10:17 10.2 C 20 %
1202 28-11-2019 08:20:17 10.2 C 20 %
1203 28-11-2019 08:30:17 10.1 C 20 %
1204 28-11-2019 08:40:17 10.1 C 20 %
1205 28-11-2019 08:50:17 10.1 C 20 %
1206 28-11-2019 09:00:17 10.3 C 20 %
1207 28-11-2019 09:10:17 10.7 C 20 %
1208 28-11-2019 09:20:17 11 C 20 %
1209 28-11-2019 09:30:17 11 C 20 %
1210 28-11-2019 09:40:17 11.1 C 20 %
1211 28-11-2019 09:50:17 11.1 C 20 %
1212 28-11-2019 10:00:17 11.3 C 20 %
1213 28-11-2019 10:10:17 11.3 C 20 %
1214 28-11-2019 10:20:17 11.5 C 20 %
1215 28-11-2019 10:30:17 11.6 C 20 %
1216 28-11-2019 10:40:17 11.7 C 20 %
1217 28-11-2019 10:50:17 11.7 C 20 %
1218 28-11-2019 11:00:17 11.7 C 20 %
1219 28-11-2019 11:10:17 11.8 C 20 %
1220 28-11-2019 11:20:17 11.9 C 20 %
1221 28-11-2019 11:30:17 11.9 C 20 %
1222 28-11-2019 11:40:17 12.2 C 20 %
1223 28-11-2019 11:50:17 11.9 C 20 %
1224 28-11-2019 12:00:17 11.6 C 20 %
1225 28-11-2019 12:10:17 11.5 C 20 %
Sensor: Nr:Datum:Temp:Feuchte:
Aussen-T/F 1226 28-11-2019 12:20:17 11.1 C 20 %
1227 28-11-2019 12:30:17 11.1 C 20 %
1228 28-11-2019 12:40:17 10.9 C 20 %
1229 28-11-2019 12:50:17 11.2 C 20 %
1230 28-11-2019 13:00:17 11.2 C 20 %
1231 28-11-2019 13:10:17 11.7 C 20 %
1232 28-11-2019 13:20:17 11.8 C 20 %
1233 28-11-2019 13:30:17 12.1 C 20 %
1234 28-11-2019 13:40:17 11.4 C 20 %
1235 28-11-2019 13:50:17 11.4 C 20 %
1236 28-11-2019 14:00:17 11.3 C 20 %
1237 28-11-2019 14:10:17 11.4 C 20 %
1238 28-11-2019 14:20:17 11.2 C 20 %
1239 28-11-2019 14:30:17 11.1 C 20 %
1240 28-11-2019 14:40:17 11.2 C 20 %
1241 28-11-2019 14:50:17 11.2 C 20 %
1242 28-11-2019 15:00:17 11.2 C 20 %
1243 28-11-2019 15:10:17 11.1 C 20 %
1244 28-11-2019 15:20:17 11 C 20 %
1245 28-11-2019 15:30:17 10.2 C 23 %
1246 28-11-2019 15:40:17 10.2 C 21 %
1247 28-11-2019 15:50:17 10.3 C 21 %
1248 28-11-2019 16:00:17 10.5 C 21 %
1249 28-11-2019 16:10:17 10.3 C 22 %
1250 28-11-2019 16:20:17 10.5 C 21 %
Sensor: Nr:Datum:Temp:Feuchte:
Aussen-T/F 1251 28-11-2019 16:30:17 10.6 C 21 %
1252 28-11-2019 16:40:17 10.4 C 21 %
1253 28-11-2019 16:50:17 10.4 C 21 %
1254 28-11-2019 17:00:17 10.3 C 22 %
1255 28-11-2019 17:10:17 9.7 C 27 %
1256 28-11-2019 17:20:17 9.5 C 29 %
1257 28-11-2019 17:30:17 9.4 C 30 %
1258 28-11-2019 17:40:17 9.3 C 30 %
1259 28-11-2019 17:50:17 9.6 C 28 %
1260 28-11-2019 18:00:17 9.8 C 27 %
1261 28-11-2019 18:10:17 10.2 C 25 %
1262 28-11-2019 18:20:17 10.3 C 25 %
1263 28-11-2019 18:30:17 10.2 C 25 %
1264 28-11-2019 18:40:17 10.2 C 25 %
1265 28-11-2019 18:50:17 10.2 C 25 %
1266 28-11-2019 19:00:17 10.1 C 25 %
1267 28-11-2019 19:10:17 9.8 C 26 %
1268 28-11-2019 19:20:17 9.8 C 26 %
1269 28-11-2019 19:30:17 9.8 C 26 %
1270 28-11-2019 19:40:17 9.9 C 26 %
1271 28-11-2019 19:50:17 10.1 C 25 %
1272 28-11-2019 20:00:17 10.1 C 26 %
1273 28-11-2019 20:10:17 9.8 C 26 %
1274 28-11-2019 20:20:17 9.8 C 26 %
1275 28-11-2019 20:30:17 9.8 C 27 %
Sensor: Nr:Datum:Temp:Feuchte:
Aussen-T/F 1276 28-11-2019 20:40:17 10.1 C 26 %
1277 28-11-2019 20:50:17 10 C 25 %
1278 28-11-2019 21:00:17 10.1 C 25 %
1279 28-11-2019 21:10:17 9.7 C 27 %
1280 28-11-2019 21:20:17 9.9 C 27 %
1281 28-11-2019 21:30:17 10.1 C 26 %
1282 28-11-2019 21:40:17 10 C 26 %
1283 28-11-2019 21:50:17 10 C 25 %
1284 28-11-2019 22:00:17 9.6 C 27 %
1285 28-11-2019 22:10:17 9.6 C 28 %
1286 28-11-2019 22:20:17 9.6 C 28 %
1287 28-11-2019 22:30:17 9.5 C 28 %
1288 28-11-2019 22:40:17 9.6 C 28 %
1289 28-11-2019 22:50:17 9.5 C 28 %
1290 28-11-2019 23:00:17 9.5 C 28 %
1291 28-11-2019 23:10:17 9.5 C 29 %
1292 28-11-2019 23:20:17 9.6 C 28 %
1293 28-11-2019 23:30:17 9.2 C 30 %
1294 28-11-2019 23:40:17 9.1 C 32 %
1295 28-11-2019 23:50:17 8.9 C 35 %
1296 29-11-2019 00:00:17 8.9 C 34 %
1297 29-11-2019 00:10:17 8.7 C 36 %
1298 29-11-2019 00:20:17 8.8 C 35 %
1299 29-11-2019 00:30:17 8.7 C 36 %
1300 29-11-2019 00:40:17 8.7 C 35 %
Sensor: Nr:Datum:Temp:Feuchte:
Aussen-T/F 1301 29-11-2019 00:50:17 8.6 C 35 %
1302 29-11-2019 01:00:17 8.6 C 36 %
1303 29-11-2019 01:10:17 8.5 C 37 %
1304 29-11-2019 01:20:17 8.3 C 37 %
1305 29-11-2019 01:30:17 8.3 C 36 %
1306 29-11-2019 01:40:17 8.3 C 36 %
1307 29-11-2019 01:50:17 8.1 C 39 %
1308 29-11-2019 02:00:17 8.1 C 40 %
1309 29-11-2019 02:10:17 8.1 C 40 %
1310 29-11-2019 02:20:17 8.1 C 40 %
1311 29-11-2019 02:30:17 8.1 C 40 %
1312 29-11-2019 02:40:17 8.1 C 40 %
1313 29-11-2019 02:50:17 8 C 40 %
1314 29-11-2019 03:00:17 8 C 40 %
1315 29-11-2019 03:10:17 8 C 40 %
1316 29-11-2019 03:20:17 7.9 C 40 %
1317 29-11-2019 03:30:17 7.8 C 40 %
1318 29-11-2019 03:40:17 7.7 C 40 %
1319 29-11-2019 03:50:17 7.6 C 40 %
1320 29-11-2019 04:00:17 7.6 C 40 %
1321 29-11-2019 04:10:17 7.6 C 40 %
1322 29-11-2019 04:20:17 7.6 C 40 %
1323 29-11-2019 04:30:17 7.5 C 40 %
1324 29-11-2019 04:40:17 7.5 C 40 %
1325 29-11-2019 04:50:17 7.2 C 38 %
Sensor: Nr:Datum:Temp:Feuchte:
Aussen-T/F 1326 29-11-2019 05:00:17 6.8 C 34 %
1327 29-11-2019 05:10:17 6.4 C 33 %
1328 29-11-2019 05:20:17 6.2 C 34 %
1329 29-11-2019 05:30:17 6.2 C 35 %
1330 29-11-2019 05:40:18 6.1 C 36 %
1331 29-11-2019 05:50:17 6 C 36 %
1332 29-11-2019 06:00:17 6 C 38 %
1333 29-11-2019 06:10:17 5.9 C 38 %
1334 29-11-2019 06:20:17 5.9 C 38 %
1335 29-11-2019 06:30:17 5.9 C 40 %
1336 29-11-2019 06:40:17 5.9 C 40 %
1337 29-11-2019 06:50:17 5.8 C 36 %
1338 29-11-2019 07:00:17 5.7 C 35 %
1339 29-11-2019 07:10:17 5.6 C 37 %
1340 29-11-2019 07:20:17 5.4 C 37 %
1341 29-11-2019 07:30:17 5.4 C 40 %
1342 29-11-2019 07:40:17 5.4 C 37 %
1343 29-11-2019 07:50:17 5.4 C 39 %
1344 29-11-2019 08:00:17 5.3 C 40 %
1345 29-11-2019 08:10:17 5.2 C 40 %
1346 29-11-2019 08:20:17 5.1 C 40 %
1347 29-11-2019 08:30:17 5 C 40 %
1348 29-11-2019 08:40:17 5 C 40 %
1349 29-11-2019 08:50:17 5 C 39 %
1350 29-11-2019 09:00:17 5 C 39 %
Sensor: Nr:Datum:Temp:Feuchte:
Aussen-T/F 1351 29-11-2019 09:10:17 5 C 39 %
1352 29-11-2019 09:20:17 4.8 C 37 %
1353 29-11-2019 09:30:17 4.6 C 37 %
1354 29-11-2019 09:40:17 4.6 C 37 %
1355 29-11-2019 09:50:17 4.7 C 36 %
1356 29-11-2019 10:00:17 4.8 C 32 %
1357 29-11-2019 10:10:17 5.1 C 31 %
1358 29-11-2019 10:20:17 5.8 C 27 %
1359 29-11-2019 10:30:17 5.9 C 29 %
1360 29-11-2019 10:40:17 5.7 C 27 %
1361 29-11-2019 10:50:17 5.4 C 28 %
1362 29-11-2019 11:00:17 5.6 C 30 %
1363 29-11-2019 11:10:17 5.9 C 26 %
1364 29-11-2019 11:20:17 6 C 27 %
1365 29-11-2019 11:30:17 6.4 C 26 %
1366 29-11-2019 11:40:17 7 C 23 %
1367 29-11-2019 11:50:17 7.3 C 21 %
1368 29-11-2019 12:00:17 7.2 C 20 %
1369 29-11-2019 12:10:17 7.2 C 20 %
1370 29-11-2019 12:20:17 7.1 C 20 %
1371 29-11-2019 12:30:17 7.6 C 20 %
1372 29-11-2019 12:40:17 7.2 C 20 %
1373 29-11-2019 12:50:17 6.9 C 21 %
1374 29-11-2019 13:00:17 6.6 C 21 %
1375 29-11-2019 13:10:17 6.2 C 23 %
Sensor: Nr:Datum:Temp:Feuchte:
Aussen-T/F 1376 29-11-2019 13:20:17 5.9 C 25 %
1377 29-11-2019 13:30:17 6.1 C 25 %
1378 29-11-2019 13:40:17 6.1 C 25 %
1379 29-11-2019 13:50:17 6.5 C 20 %
1380 29-11-2019 14:00:17 6.5 C 20 %
1381 29-11-2019 14:10:17 7 C 20 %
1382 29-11-2019 14:20:17 7.3 C 20 %
1383 29-11-2019 14:30:17 7.3 C 20 %
1384 29-11-2019 14:40:17 6.9 C 20 %
1385 29-11-2019 14:50:17 6.5 C 20 %
1386 29-11-2019 15:00:17 7.3 C 20 %
1387 29-11-2019 15:10:17 7.3 C 20 %
1388 29-11-2019 15:20:17 7.2 C 20 %
1389 29-11-2019 15:30:17 7.2 C 20 %
1390 29-11-2019 15:40:17 7.2 C 20 %
1391 29-11-2019 15:50:17 6.7 C 20 %
1392 29-11-2019 16:00:17 6.4 C 20 %
1393 29-11-2019 16:10:17 5.6 C 20 %
1394 29-11-2019 16:20:17 6.2 C 20 %
1395 29-11-2019 16:30:17 6 C 20 %
1396 29-11-2019 16:40:18 5.3 C 20 %
1397 29-11-2019 16:50:17 5.3 C 20 %
1398 29-11-2019 17:00:18 4.5 C 23 %
1399 29-11-2019 17:10:18 4 C 26 %
1400 29-11-2019 17:20:17 4 C 26 %
Sensor: Nr:Datum:Temp:Feuchte:
Aussen-T/F 1401 29-11-2019 17:30:18 3.9 C 27 %
1402 29-11-2019 17:40:18 4 C 26 %
1403 29-11-2019 17:50:17 3.8 C 27 %
1404 29-11-2019 18:00:17 4.2 C 26 %
1405 29-11-2019 18:10:18 4.6 C 25 %
1406 29-11-2019 18:20:17 5 C 21 %
1407 29-11-2019 18:30:17 5 C 21 %
1408 29-11-2019 18:40:17 4.8 C 23 %
1409 29-11-2019 18:50:17 4.7 C 26 %
1410 29-11-2019 19:00:17 4.8 C 21 %
1411 29-11-2019 19:10:17 4.8 C 21 %
1412 29-11-2019 19:20:17 4.8 C 21 %
1413 29-11-2019 19:30:17 4.4 C 25 %
1414 29-11-2019 19:40:17 4.6 C 21 %
1415 29-11-2019 19:50:17 4.4 C 25 %
1416 29-11-2019 20:00:17 4 C 26 %
1417 29-11-2019 20:10:17 4 C 26 %
1418 29-11-2019 20:20:17 4.3 C 25 %
1419 29-11-2019 20:30:17 4.7 C 23 %
1420 29-11-2019 20:40:17 4 C 25 %
1421 29-11-2019 20:50:17 3.9 C 26 %
1422 29-11-2019 21:00:17 3.8 C 28 %
1423 29-11-2019 21:10:17 3.9 C 27 %
1424 29-11-2019 21:20:17 3.8 C 27 %
1425 29-11-2019 21:30:17 3.8 C 28 %
Sensor: Nr:Datum:Temp:Feuchte:
Aussen-T/F 1426 29-11-2019 21:40:17 3.9 C 28 %
1427 29-11-2019 21:50:17 3.2 C 30 %
1428 29-11-2019 22:00:17 3.3 C 29 %
1429 29-11-2019 22:10:17 2.6 C 32 %
1430 29-11-2019 22:20:17 2.1 C 35 %
1431 29-11-2019 22:30:17 1.9 C 37 %
1432 29-11-2019 22:40:17 1.7 C 40 %
1433 29-11-2019 22:50:17 1.8 C 41 %
1434 29-11-2019 23:00:17 1.5 C 38 %
1435 29-11-2019 23:10:17 1.1 C 39 %
1436 29-11-2019 23:20:17 1.3 C 41 %
1437 29-11-2019 23:30:17 1.5 C 42 %
1438 29-11-2019 23:40:17 1.6 C 41 %
1439 29-11-2019 23:50:17 1.7 C 41 %
1440 30-11-2019 00:00:17 1.9 C 40 %
1441 30-11-2019 00:10:17 1.8 C 40 %
1442 30-11-2019 00:20:17 1.8 C 40 %
1443 30-11-2019 00:30:17 2 C 37 %
1444 30-11-2019 00:40:17 1.7 C 37 %
1445 30-11-2019 00:50:17 1.6 C 40 %
1446 30-11-2019 01:00:17 1.3 C 40 %
1447 30-11-2019 01:10:17 1 C 40 %
1448 30-11-2019 01:20:17 0.7 C 41 %
1449 30-11-2019 01:30:17 0.5 C 42 %
1450 30-11-2019 01:40:17 0.7 C 44 %
Sensor: Nr:Datum:Temp:Feuchte:
Aussen-T/F 1451 30-11-2019 01:50:17 0.5 C 43 %
1452 30-11-2019 02:00:17 0.4 C 44 %
1453 30-11-2019 02:10:17 0.9 C 45 %
1454 30-11-2019 02:20:17 1.1 C 44 %
1455 30-11-2019 02:30:17 1.2 C 44 %
1456 30-11-2019 02:40:17 0.8 C 43 %
1457 30-11-2019 02:50:17 0.8 C 43 %
1458 30-11-2019 03:00:17 0.9 C 43 %
1459 30-11-2019 03:10:17 0.7 C 43 %
1460 30-11-2019 03:20:17 0.3 C 41 %
1461 30-11-2019 03:30:17 0.5 C 44 %
1462 30-11-2019 03:40:17 0.2 C 43 %
1463 30-11-2019 03:50:17 0.6 C 44 %
1464 30-11-2019 04:00:17 1 C 44 %
1465 30-11-2019 04:10:17 1.3 C 43 %
1466 30-11-2019 04:20:17 1.3 C 41 %
1467 30-11-2019 04:30:17 1.4 C 40 %
1468 30-11-2019 04:40:17 1.3 C 40 %
1469 30-11-2019 04:50:17 1 C 38 %
1470 30-11-2019 05:00:17 0.6 C 40 %
1471 30-11-2019 05:10:17 1.1 C 41 %
1472 30-11-2019 05:20:17 0.8 C 40 %
1473 30-11-2019 05:30:17 0.3 C 40 %
1474 30-11-2019 05:40:17 -0.5 C 40 %
1475 30-11-2019 05:50:17 -0.7 C 41 %
Sensor: Nr:Datum:Temp:Feuchte:
Aussen-T/F 1476 30-11-2019 06:00:17 -0.7 C 43 %
1477 30-11-2019 06:10:17 -0.9 C 43 %
1478 30-11-2019 06:20:17 -1 C 43 %
1479 30-11-2019 06:30:17 -1.2 C 43 %
1480 30-11-2019 06:40:17 -1.3 C 43 %
1481 30-11-2019 06:50:17 -1.2 C 44 %
1482 30-11-2019 07:00:17 -1.4 C 44 %
1483 30-11-2019 07:10:17 -1.4 C 43 %
1484 30-11-2019 07:20:17 -1.4 C 43 %
1485 30-11-2019 07:30:17 -1.5 C 43 %
1486 30-11-2019 07:40:17 -1.2 C 44 %
1487 30-11-2019 07:50:17 -1.1 C 44 %
1488 30-11-2019 08:00:17 -1 C 44 %
1489 30-11-2019 08:10:17 -0.7 C 44 %
1490 30-11-2019 08:20:17 -0.6 C 44 %
1491 30-11-2019 08:30:17 -0.7 C 44 %
1492 30-11-2019 08:40:17 -0.6 C 44 %
1493 30-11-2019 08:50:17 -0.7 C 44 %
1494 30-11-2019 09:00:17 -0.7 C 44 %
1495 30-11-2019 09:10:17 -0.6 C 44 %
1496 30-11-2019 09:20:17 -0.7 C 44 %
1497 30-11-2019 09:30:17 -0.7 C 44 %
1498 30-11-2019 09:40:17 -0.6 C 44 %
1499 30-11-2019 09:50:17 -0.3 C 44 %
1500 30-11-2019 10:00:17 -0.3 C 44 %
Sensor: Nr:Datum:Temp:Feuchte:
Aussen-T/F 1501 30-11-2019 10:10:17 0 C 44 %
1502 30-11-2019 10:20:17 0.1 C 43 %
1503 30-11-2019 10:30:17 0.4 C 43 %
1504 30-11-2019 10:40:17 0.5 C 43 %
1505 30-11-2019 10:50:17 0.4 C 43 %
1506 30-11-2019 11:00:18 0.5 C 42 %
1507 30-11-2019 11:10:18 0.6 C 42 %
1508 30-11-2019 11:20:17 0.6 C 42 %
1509 30-11-2019 11:30:17 0.4 C 41 %
1510 30-11-2019 11:40:17 0.6 C 41 %
1511 30-11-2019 11:50:17 0.9 C 41 %
1512 30-11-2019 12:00:17 1.1 C 40 %
1513 30-11-2019 12:10:17 0.9 C 38 %
1514 30-11-2019 12:20:17 1.3 C 39 %
1515 30-11-2019 12:30:17 1.4 C 37 %
1516 30-11-2019 12:40:17 1.4 C 36 %
1517 30-11-2019 12:50:17 2.3 C 36 %
1518 30-11-2019 13:00:17 2.4 C 36 %
1519 30-11-2019 13:10:17 1.8 C 36 %
1520 30-11-2019 13:20:17 2.2 C 36 %
1521 30-11-2019 13:30:17 2.1 C 36 %
1522 30-11-2019 13:40:17 2.3 C 36 %
1523 30-11-2019 13:50:17 2.3 C 36 %
1524 30-11-2019 14:00:17 2 C 36 %
1525 30-11-2019 14:10:17 2.1 C 38 %
Sensor: Nr:Datum:Temp:Feuchte:
Aussen-T/F 1526 30-11-2019 14:20:17 2.2 C 38 %
1527 30-11-2019 14:30:17 2.2 C 38 %
1528 30-11-2019 14:40:17 2.4 C 38 %
1529 30-11-2019 14:50:17 2.2 C 37 %
1530 30-11-2019 15:00:17 1.9 C 39 %
1531 30-11-2019 15:10:17 1.8 C 40 %
1532 30-11-2019 15:20:18 1.9 C 41 %
1533 30-11-2019 15:30:17 1.8 C 41 %
1534 30-11-2019 15:40:17 1.6 C 41 %
1535 30-11-2019 15:50:17 1.7 C 42 %
1536 30-11-2019 16:00:17 1.5 C 42 %
1537 30-11-2019 16:10:17 1.5 C 42 %
1538 30-11-2019 16:20:17 1.4 C 43 %
1539 30-11-2019 16:30:17 1.3 C 43 %
1540 30-11-2019 16:40:17 1.3 C 43 %
1541 30-11-2019 16:50:17 1.1 C 43 %
1542 30-11-2019 17:00:17 0.9 C 44 %
1543 30-11-2019 17:10:17 0.9 C 44 %
1544 30-11-2019 17:20:17 0.6 C 44 %
1545 30-11-2019 17:30:17 0.6 C 44 %
1546 30-11-2019 17:40:17 0.6 C 44 %
1547 30-11-2019 17:50:17 0.5 C 44 %
1548 30-11-2019 18:00:17 0.4 C 44 %
1549 30-11-2019 18:10:17 0.3 C 44 %
1550 30-11-2019 18:20:17 0.3 C 44 %
Sensor: Nr:Datum:Temp:Feuchte:
Aussen-T/F 1551 30-11-2019 18:30:17 0.4 C 44 %
1552 30-11-2019 18:40:17 0.4 C 44 %
1553 30-11-2019 18:50:17 0.4 C 44 %
1554 30-11-2019 19:00:17 0.2 C 44 %
1555 30-11-2019 19:10:17 0 C 44 %
1556 30-11-2019 19:20:17 0 C 44 %
1557 30-11-2019 19:30:17 0 C 44 %
1558 30-11-2019 19:40:17 -0.1 C 44 %
1559 30-11-2019 19:50:17 -0.1 C 44 %
1560 30-11-2019 20:00:17 -0.2 C 44 %
1561 30-11-2019 20:10:18 -0.2 C 44 %
1562 30-11-2019 20:20:18 -0.2 C 44 %
1563 30-11-2019 20:30:17 -0.2 C 44 %
1564 30-11-2019 20:40:17 -0.4 C 44 %
1565 30-11-2019 20:50:17 -0.3 C 44 %
1566 30-11-2019 21:00:17 -0.2 C 44 %
1567 30-11-2019 21:10:17 -0.3 C 44 %
1568 30-11-2019 21:20:17 -0.3 C 44 %
1569 30-11-2019 21:30:17 -0.4 C 44 %
1570 30-11-2019 21:40:17 -0.2 C 44 %
1571 30-11-2019 21:50:17 -0.3 C 44 %
1572 30-11-2019 22:00:17 -0.3 C 44 %
1573 30-11-2019 22:10:17 -0.3 C 44 %
1574 30-11-2019 22:20:17 -0.3 C 44 %
1575 30-11-2019 22:30:17 -0.1 C 44 %
Sensor: Nr:Datum:Temp:Feuchte:
Aussen-T/F 1576 30-11-2019 22:40:17 0 C 44 %
1577 30-11-2019 22:50:17 0 C 44 %
1578 30-11-2019 23:00:17 0 C 44 %
1579 30-11-2019 23:10:17 0 C 44 %
1580 30-11-2019 23:20:17 -0.1 C 44 %
1581 30-11-2019 23:30:17 -0.4 C 43 %
1582 30-11-2019 23:40:17 -0.5 C 43 %
1583 30-11-2019 23:50:17 -0.4 C 43 %
1584 01-12-2019 00:00:17 -0.2 C 43 %
1585 01-12-2019 00:10:17 -0.3 C 43 %
1586 01-12-2019 00:20:17 -0.3 C 43 %
1587 01-12-2019 00:30:17 -0.3 C 43 %
1588 01-12-2019 00:40:17 -0.3 C 43 %
1589 01-12-2019 00:50:18 -0.2 C 43 %
1590 01-12-2019 01:00:17 0 C 44 %
1591 01-12-2019 01:10:17 -0.1 C 43 %
1592 01-12-2019 01:20:17 -0.1 C 43 %
1593 01-12-2019 01:30:17 -0.1 C 43 %
1594 01-12-2019 01:40:17 -0.1 C 43 %
1595 01-12-2019 01:50:17 -0.2 C 43 %
1596 01-12-2019 02:00:17 -0.1 C 43 %
1597 01-12-2019 02:10:17 -0.2 C 43 %
1598 01-12-2019 02:20:17 -0.2 C 43 %
1599 01-12-2019 02:30:17 -0.2 C 43 %
1600 01-12-2019 02:40:17 -0.3 C 43 %
Sensor: Nr:Datum:Temp:Feuchte:
Aussen-T/F 1601 01-12-2019 02:50:17 -0.2 C 43 %
1602 01-12-2019 03:00:17 -0.3 C 43 %
1603 01-12-2019 03:10:17 -0.3 C 43 %
1604 01-12-2019 03:20:17 -0.4 C 43 %
1605 01-12-2019 03:30:17 -0.4 C 43 %
1606 01-12-2019 03:40:17 -0.4 C 43 %
1607 01-12-2019 03:50:17 -0.4 C 43 %
1608 01-12-2019 04:00:17 -0.4 C 43 %
1609 01-12-2019 04:10:17 -0.8 C 42 %
1610 01-12-2019 04:20:17 -1.1 C 42 %
1611 01-12-2019 04:30:17 -1.3 C 42 %
1612 01-12-2019 04:40:17 -0.9 C 43 %
1613 01-12-2019 04:50:17 -0.9 C 43 %
1614 01-12-2019 05:00:17 -0.7 C 43 %
1615 01-12-2019 05:10:17 -0.8 C 43 %
1616 01-12-2019 05:20:17 -0.9 C 43 %
1617 01-12-2019 05:30:17 -1.1 C 43 %
1618 01-12-2019 05:40:17 -1 C 43 %
1619 01-12-2019 05:50:17 -0.9 C 43 %
1620 01-12-2019 06:00:17 -1 C 43 %
1621 01-12-2019 06:10:17 -1.1 C 43 %
1622 01-12-2019 06:20:17 -1.3 C 43 %
1623 01-12-2019 06:30:17 -1 C 43 %
1624 01-12-2019 06:40:17 -0.9 C 43 %
1625 01-12-2019 06:50:17 -0.9 C 43 %
Sensor: Nr:Datum:Temp:Feuchte:
Aussen-T/F 1626 01-12-2019 07:00:17 -0.8 C 43 %
1627 01-12-2019 07:10:17 -0.7 C 43 %
1628 01-12-2019 07:20:17 -0.5 C 43 %
1629 01-12-2019 07:30:17 -0.5 C 43 %
1630 01-12-2019 07:40:17 -0.3 C 43 %
1631 01-12-2019 07:50:17 -0.2 C 43 %
1632 01-12-2019 08:00:17 -0.1 C 43 %
1633 01-12-2019 08:10:17 -0.1 C 43 %
1634 01-12-2019 08:20:17 -0.2 C 43 %
1635 01-12-2019 08:30:17 -0.2 C 43 %
1636 01-12-2019 08:40:17 -0.2 C 43 %
1637 01-12-2019 08:50:17 0 C 43 %
1638 01-12-2019 09:00:17 0 C 42 %
1639 01-12-2019 09:10:17 0.2 C 42 %
1640 01-12-2019 09:20:17 0.1 C 42 %
1641 01-12-2019 09:30:17 0.1 C 42 %
1642 01-12-2019 09:40:17 0.2 C 41 %
1643 01-12-2019 09:50:17 0.3 C 41 %
1644 01-12-2019 10:00:17 0.5 C 41 %
1645 01-12-2019 10:10:17 0.6 C 41 %
1646 01-12-2019 10:20:17 0.7 C 40 %
1647 01-12-2019 10:30:17 0.8 C 39 %
1648 01-12-2019 10:40:17 1 C 38 %
1649 01-12-2019 10:50:17 1.1 C 37 %
1650 01-12-2019 11:00:17 1.4 C 36 %
Sensor: Nr:Datum:Temp:Feuchte:
Aussen-T/F 1651 01-12-2019 11:10:17 1.9 C 34 %
1652 01-12-2019 11:20:17 2.1 C 32 %
1653 01-12-2019 11:30:17 2.7 C 30 %
1654 01-12-2019 11:40:17 3 C 27 %
1655 01-12-2019 11:50:17 2.9 C 20 %
1656 01-12-2019 12:00:17 3 C 21 %
1657 01-12-2019 12:10:17 3.1 C 20 %
1658 01-12-2019 12:20:17 3.3 C 20 %
1659 01-12-2019 12:30:18 3.3 C 20 %
1660 01-12-2019 12:40:18 3.3 C 20 %
1661 01-12-2019 12:50:18 3.4 C 20 %
1662 01-12-2019 13:00:17 3.3 C 20 %
1663 01-12-2019 13:10:17 3.4 C 20 %
1664 01-12-2019 13:20:18 3.5 C 20 %
1665 01-12-2019 13:30:18 3.5 C 20 %
1666 01-12-2019 13:40:18 3.6 C 20 %
1667 01-12-2019 13:50:17 3.8 C 20 %
1668 01-12-2019 14:00:17 3.9 C 20 %
1669 01-12-2019 14:10:18 3.9 C 20 %
1670 01-12-2019 14:20:18 3.7 C 20 %
1671 01-12-2019 14:30:17 3.7 C 20 %
1672 01-12-2019 14:40:17 3.6 C 20 %
1673 01-12-2019 14:50:17 3.6 C 20 %
1674 01-12-2019 15:00:17 3.5 C 20 %
1675 01-12-2019 15:10:17 3.3 C 20 %
Sensor: Nr:Datum:Temp:Feuchte:
Aussen-T/F 1676 01-12-2019 15:20:17 3.2 C 21 %
1677 01-12-2019 15:30:17 3 C 20 %
1678 01-12-2019 15:40:17 3 C 21 %
1679 01-12-2019 15:50:17 2.7 C 25 %
1680 01-12-2019 16:00:17 2.6 C 25 %
1681 01-12-2019 16:10:17 2.5 C 25 %
1682 01-12-2019 16:20:17 2.4 C 25 %
1683 01-12-2019 16:30:18 2.4 C 25 %
1684 01-12-2019 16:40:18 2.2 C 25 %
1685 01-12-2019 16:50:18 2.2 C 25 %
1686 01-12-2019 17:00:18 2.2 C 25 %
1687 01-12-2019 17:10:18 2.2 C 25 %
1688 01-12-2019 17:20:17 2.3 C 25 %
1689 01-12-2019 17:30:17 2.3 C 25 %
1690 01-12-2019 17:40:17 2.3 C 25 %
1691 01-12-2019 17:50:17 2.3 C 25 %
1692 01-12-2019 18:00:17 2.3 C 25 %
1693 01-12-2019 18:10:17 2.3 C 25 %
1694 01-12-2019 18:20:17 2.3 C 25 %
1695 01-12-2019 18:30:17 2.3 C 25 %
1696 01-12-2019 18:40:17 2.3 C 25 %
1697 01-12-2019 18:50:17 2.3 C 23 %
1698 01-12-2019 19:00:17 2.3 C 23 %
1699 01-12-2019 19:10:18 2.4 C 25 %
1700 01-12-2019 19:20:17 2.3 C 25 %
Sensor: Nr:Datum:Temp:Feuchte:
Aussen-T/F 1701 01-12-2019 19:30:17 2.3 C 25 %
1702 01-12-2019 19:40:17 2.3 C 25 %
1703 01-12-2019 19:50:17 2.2 C 26 %
1704 01-12-2019 20:00:17 2.5 C 25 %
1705 01-12-2019 20:10:17 2.2 C 25 %
1706 01-12-2019 20:20:17 2.1 C 25 %
1707 01-12-2019 20:30:18 2.1 C 25 %
1708 01-12-2019 20:40:18 2.1 C 25 %
1709 01-12-2019 20:50:17 2 C 27 %
1710 01-12-2019 21:00:17 1.9 C 27 %
1711 01-12-2019 21:10:17 1.8 C 28 %
1712 01-12-2019 21:20:17 1.6 C 30 %
1713 01-12-2019 21:30:18 1.5 C 29 %
1714 01-12-2019 21:40:18 1.6 C 28 %
1715 01-12-2019 21:50:17 1.6 C 28 %
1716 01-12-2019 22:00:17 1.5 C 29 %
1717 01-12-2019 22:10:17 1.4 C 29 %
1718 01-12-2019 22:20:17 1.4 C 30 %
1719 01-12-2019 22:30:18 1.3 C 28 %
1720 01-12-2019 22:40:18 1.2 C 29 %
1721 01-12-2019 22:50:17 1.1 C 29 %
1722 01-12-2019 23:00:17 0.8 C 30 %
1723 01-12-2019 23:10:17 0.8 C 30 %
1724 01-12-2019 23:20:18 0.7 C 30 %
1725 01-12-2019 23:30:17 0.5 C 32 %
Sensor: Nr:Datum:Temp:Feuchte:
Aussen-T/F 1726 01-12-2019 23:40:17 0.3 C 33 %
1727 01-12-2019 23:50:17 0.2 C 33 %
1728 02-12-2019 00:00:17 0.1 C 33 %
1729 02-12-2019 00:10:17 0.2 C 33 %
1730 02-12-2019 00:20:17 0.3 C 32 %
1731 02-12-2019 00:30:17 0.3 C 32 %
1732 02-12-2019 00:40:17 0.2 C 32 %
1733 02-12-2019 00:50:18 0.2 C 35 %
1734 02-12-2019 01:00:17 0.1 C 36 %
1735 02-12-2019 01:10:17 0 C 38 %
1736 02-12-2019 01:20:17 -0.2 C 36 %
1737 02-12-2019 01:30:17 0.2 C 34 %
1738 02-12-2019 01:40:17 -0.2 C 35 %
1739 02-12-2019 01:50:17 -0.9 C 35 %
1740 02-12-2019 02:00:18 -0.9 C 37 %
1741 02-12-2019 02:10:18 -0.9 C 37 %
1742 02-12-2019 02:20:17 -0.5 C 37 %
1743 02-12-2019 02:30:17 -1 C 36 %
1744 02-12-2019 02:40:17 -1.1 C 37 %
1745 02-12-2019 02:50:17 -1.1 C 36 %
1746 02-12-2019 03:00:17 -1 C 37 %
1747 02-12-2019 03:10:17 -1.2 C 38 %
1748 02-12-2019 03:20:17 -1.3 C 37 %
1749 02-12-2019 03:30:18 -1.3 C 38 %
1750 02-12-2019 03:40:18 -1.4 C 37 %
Sensor: Nr:Datum:Temp:Feuchte:
Aussen-T/F 1751 02-12-2019 03:50:17 -1.4 C 37 %
1752 02-12-2019 04:00:18 -1.7 C 39 %
1753 02-12-2019 04:10:18 -1.4 C 40 %
1754 02-12-2019 04:20:17 -1.1 C 40 %
1755 02-12-2019 04:30:17 -1 C 40 %
1756 02-12-2019 04:40:17 -0.8 C 36 %
1757 02-12-2019 04:50:17 -1.1 C 37 %
1758 02-12-2019 05:00:17 -1.4 C 40 %
1759 02-12-2019 05:10:17 -1.1 C 40 %
1760 02-12-2019 05:20:17 -1.2 C 39 %
1761 02-12-2019 05:30:17 -1.6 C 40 %
1762 02-12-2019 05:40:17 -1.4 C 41 %
1763 02-12-2019 05:50:17 -1.3 C 42 %
1764 02-12-2019 06:00:17 -1.2 C 41 %
1765 02-12-2019 06:10:17 -1.3 C 39 %
1766 02-12-2019 06:20:17 -1.2 C 39 %
1767 02-12-2019 06:30:17 -1.4 C 38 %
1768 02-12-2019 06:40:17 -1.4 C 40 %
1769 02-12-2019 06:50:17 -1.8 C 37 %
1770 02-12-2019 07:00:17 -2.4 C 38 %
1771 02-12-2019 07:10:17 -2.6 C 40 %
1772 02-12-2019 07:20:17 -2.9 C 40 %
1773 02-12-2019 07:30:17 -2.7 C 42 %
1774 02-12-2019 07:40:17 -2.6 C 42 %
1775 02-12-2019 07:50:17 -2.4 C 43 %
Sensor: Nr:Datum:Temp:Feuchte:
Aussen-T/F 1776 02-12-2019 08:00:17 -1.9 C 45 %
1777 02-12-2019 08:10:18 -1.6 C 44 %
1778 02-12-2019 08:20:17 -1.3 C 44 %
1779 02-12-2019 08:30:17 -1 C 43 %
1780 02-12-2019 08:40:17 -0.7 C 43 %
1781 02-12-2019 08:50:17 -0.5 C 42 %
1782 02-12-2019 09:00:17 -0.5 C 40 %
1783 02-12-2019 09:10:17 -0.4 C 38 %
1784 02-12-2019 09:20:17 -0.4 C 36 %
1785 02-12-2019 09:30:17 -0.4 C 36 %
1786 02-12-2019 09:40:17 0 C 36 %
1787 02-12-2019 09:50:17 0 C 35 %
1788 02-12-2019 10:00:17 0.1 C 35 %
1789 02-12-2019 10:10:17 0.1 C 34 %
1790 02-12-2019 10:20:17 0.2 C 35 %
1791 02-12-2019 10:30:17 0.5 C 36 %
1792 02-12-2019 10:40:17 1 C 31 %
1793 02-12-2019 10:50:17 0.8 C 31 %
1794 02-12-2019 11:00:17 1.2 C 30 %
1795 02-12-2019 11:10:17 1.1 C 30 %
1796 02-12-2019 11:20:17 1.2 C 30 %
1797 02-12-2019 11:30:17 0.9 C 31 %
1798 02-12-2019 11:40:18 1 C 31 %
1799 02-12-2019 11:50:17 0.8 C 32 %
1800 02-12-2019 12:00:18 1.6 C 31 %
Sensor: Nr:Datum:Temp:Feuchte:
Aussen-T/F 1801 02-12-2019 12:10:18 2.3 C 27 %
1802 02-12-2019 12:20:17 2.8 C 25 %
1803 02-12-2019 12:30:17 3.1 C 26 %
1804 02-12-2019 12:40:17 3 C 25 %
1805 02-12-2019 12:50:18 3.2 C 26 %
1806 02-12-2019 13:00:17 3.2 C 26 %
1807 02-12-2019 13:10:17 3.5 C 25 %
1808 02-12-2019 13:20:17 3.9 C 25 %
1809 02-12-2019 13:30:17 3.9 C 25 %
1810 02-12-2019 13:40:17 3.8 C 25 %
1811 02-12-2019 13:50:17 3.6 C 25 %
1812 02-12-2019 14:00:17 4 C 26 %
1813 02-12-2019 14:10:17 3.7 C 28 %
1814 02-12-2019 14:20:17 3.7 C 30 %
1815 02-12-2019 14:30:17 4.1 C 27 %
1816 02-12-2019 14:40:17 4.3 C 27 %
1817 02-12-2019 14:50:17 4.5 C 27 %
1818 02-12-2019 15:00:18 4.3 C 28 %
1819 02-12-2019 15:10:18 4.3 C 29 %
1820 02-12-2019 15:20:17 4.7 C 27 %
1821 02-12-2019 15:30:17 4.4 C 27 %
1822 02-12-2019 15:40:17 4.1 C 31 %
1823 02-12-2019 15:50:17 3.9 C 36 %
1824 02-12-2019 16:00:18 3.7 C 37 %
1825 02-12-2019 16:10:18 3.6 C 37 %
Sensor: Nr:Datum:Temp:Feuchte:
Aussen-T/F 1826 02-12-2019 16:20:17 3.5 C 40 %
1827 02-12-2019 16:30:17 3.5 C 38 %
1828 02-12-2019 16:40:17 3.5 C 35 %
1829 02-12-2019 16:50:17 3.5 C 35 %
1830 02-12-2019 17:00:17 3.3 C 36 %
1831 02-12-2019 17:10:17 3.2 C 39 %
1832 02-12-2019 17:20:17 3.2 C 36 %
1833 02-12-2019 17:30:18 3.3 C 36 %
1834 02-12-2019 17:40:18 3.4 C 35 %
1835 02-12-2019 17:50:17 3.3 C 35 %
1836 02-12-2019 18:01:17 3.1 C 36 %
1837 02-12-2019 18:11:17 3.2 C 37 %
1838 02-12-2019 18:21:17 3.2 C 36 %
1839 02-12-2019 18:30:17 3 C 36 %
1840 02-12-2019 18:40:17 2.5 C 40 %
1841 02-12-2019 18:50:17 2.2 C 40 %
1842 02-12-2019 19:00:17 2.1 C 42 %
1843 02-12-2019 19:10:17 2.7 C 43 %
1844 02-12-2019 19:21:17 2.7 C 42 %
1845 02-12-2019 19:30:17 2.7 C 41 %
1846 02-12-2019 19:40:17 2.9 C 42 %
1847 02-12-2019 19:51:17 2.9 C 42 %
1848 02-12-2019 20:01:17 2.9 C 39 %
1849 02-12-2019 20:11:17 2.8 C 38 %
1850 02-12-2019 20:21:17 2.9 C 37 %
Sensor: Nr:Datum:Temp:Feuchte:
Aussen-T/F 1851 02-12-2019 20:31:17 2.9 C 38 %
1852 02-12-2019 20:40:17 2.8 C 40 %
1853 02-12-2019 20:51:17 2.7 C 42 %
1854 02-12-2019 21:00:17 2.7 C 42 %
1855 02-12-2019 21:10:17 2.7 C 42 %
1856 02-12-2019 21:21:17 2.7 C 42 %
1857 02-12-2019 21:30:18 2.7 C 42 %
1858 02-12-2019 21:40:18 2.6 C 41 %
1859 02-12-2019 21:51:17 2.6 C 42 %
1860 02-12-2019 22:01:17 2.6 C 41 %
1861 02-12-2019 22:11:17 2.6 C 41 %
1862 02-12-2019 22:21:17 2.6 C 41 %
1863 02-12-2019 22:30:18 2.5 C 40 %
1864 02-12-2019 22:40:18 2.5 C 41 %
1865 02-12-2019 22:51:17 2.4 C 41 %
1866 02-12-2019 23:01:17 2.5 C 41 %
1867 02-12-2019 23:11:17 2.4 C 42 %
1868 02-12-2019 23:21:17 2.5 C 42 %
1869 02-12-2019 23:31:17 2.5 C 42 %
1870 02-12-2019 23:41:17 2.5 C 42 %
1871 02-12-2019 23:50:18 2.5 C 42 %
1872 03-12-2019 00:01:17 2.5 C 42 %
1873 03-12-2019 00:11:17 2.5 C 42 %
1874 03-12-2019 00:21:17 2.5 C 41 %
1875 03-12-2019 00:30:18 2.5 C 41 %
Sensor: Nr:Datum:Temp:Feuchte:
Aussen-T/F 1876 03-12-2019 00:40:18 2.6 C 41 %
1877 03-12-2019 00:51:17 2.6 C 41 %
1878 03-12-2019 01:01:18 2.6 C 41 %
1879 03-12-2019 01:11:18 2.6 C 41 %
1880 03-12-2019 01:21:17 2.7 C 41 %
1881 03-12-2019 01:31:17 2.7 C 41 %
1882 03-12-2019 01:41:17 2.7 C 42 %
1883 03-12-2019 01:51:17 2.7 C 42 %
1884 03-12-2019 02:01:17 2.7 C 42 %
1885 03-12-2019 02:11:17 2.8 C 42 %
1886 03-12-2019 02:21:17 2.8 C 42 %
1887 03-12-2019 02:31:17 2.8 C 42 %
1888 03-12-2019 02:41:17 2.9 C 42 %
1889 03-12-2019 02:51:17 2.8 C 42 %
1890 03-12-2019 03:01:17 2.8 C 42 %
1891 03-12-2019 03:11:17 2.8 C 42 %
1892 03-12-2019 03:21:17 2.8 C 42 %
1893 03-12-2019 03:31:17 2.9 C 42 %
1894 03-12-2019 03:41:17 3 C 42 %
1895 03-12-2019 03:51:17 3 C 42 %
1896 03-12-2019 04:01:17 3 C 42 %
1897 03-12-2019 04:11:17 3 C 42 %
1898 03-12-2019 04:21:17 3 C 42 %
1899 03-12-2019 04:31:17 3.1 C 42 %
1900 03-12-2019 04:41:17 3.1 C 42 %
Sensor: Nr:Datum:Temp:Feuchte:
Aussen-T/F 1901 03-12-2019 04:51:17 3.1 C 42 %
1902 03-12-2019 05:01:17 3.1 C 42 %
1903 03-12-2019 05:11:17 3.1 C 42 %
1904 03-12-2019 05:21:17 3.1 C 42 %
1905 03-12-2019 05:31:17 3.2 C 42 %
1906 03-12-2019 05:41:17 3.2 C 41 %
1907 03-12-2019 05:51:17 3.2 C 41 %
1908 03-12-2019 06:01:18 3.2 C 41 %
1909 03-12-2019 06:11:18 3.2 C 41 %
1910 03-12-2019 06:21:17 3.2 C 41 %
1911 03-12-2019 06:31:17 3.3 C 41 %
1912 03-12-2019 06:41:17 3.3 C 41 %
1913 03-12-2019 06:51:18 3.3 C 41 %
1914 03-12-2019 07:01:17 3.3 C 41 %
1915 03-12-2019 07:11:17 3.3 C 41 %
1916 03-12-2019 07:21:17 3.3 C 41 %
1917 03-12-2019 07:31:17 3.2 C 41 %
1918 03-12-2019 07:41:17 3.3 C 41 %
1919 03-12-2019 07:51:17 3.3 C 42 %
1920 03-12-2019 08:01:17 3.3 C 42 %
1921 03-12-2019 08:11:17 3.4 C 42 %
1922 03-12-2019 08:21:17 3.3 C 42 %
1923 03-12-2019 08:31:17 3.4 C 42 %
1924 03-12-2019 08:41:17 3.4 C 41 %
1925 03-12-2019 08:51:17 3.4 C 41 %
Sensor: Nr:Datum:Temp:Feuchte:
Aussen-T/F 1926 03-12-2019 09:01:17 3.5 C 42 %
1927 03-12-2019 09:11:17 3.5 C 42 %
1928 03-12-2019 09:21:17 3.5 C 41 %
1929 03-12-2019 09:31:17 3.6 C 41 %
1930 03-12-2019 09:41:17 3.6 C 41 %
1931 03-12-2019 09:51:17 3.7 C 41 %
1932 03-12-2019 10:01:17 3.7 C 41 %
1933 03-12-2019 10:11:17 3.8 C 41 %
1934 03-12-2019 10:21:17 3.8 C 41 %
1935 03-12-2019 10:31:17 3.8 C 41 %
1936 03-12-2019 10:41:17 4.1 C 40 %
1937 03-12-2019 10:51:17 4.1 C 40 %
1938 03-12-2019 11:01:18 4.3 C 39 %
1939 03-12-2019 11:11:18 4.3 C 37 %
1940 03-12-2019 11:21:17 4.4 C 37 %
1941 03-12-2019 11:31:17 4.6 C 37 %
1942 03-12-2019 11:41:17 4.6 C 37 %
1943 03-12-2019 11:51:17 4.7 C 37 %
1944 03-12-2019 12:01:17 4.7 C 37 %
1945 03-12-2019 12:11:17 4.9 C 35 %
1946 03-12-2019 12:21:17 5 C 34 %
1947 03-12-2019 12:31:17 5 C 35 %
1948 03-12-2019 12:41:17 5.2 C 35 %
1949 03-12-2019 12:51:18 5.3 C 34 %
1950 03-12-2019 13:01:17 5.6 C 34 %
Sensor: Nr:Datum:Temp:Feuchte:
Aussen-T/F 1951 03-12-2019 13:11:17 5.8 C 33 %
1952 03-12-2019 13:21:17 5.8 C 32 %
1953 03-12-2019 13:31:17 5.7 C 32 %
1954 03-12-2019 13:41:17 5.9 C 32 %
1955 03-12-2019 13:51:18 6.1 C 31 %
1956 03-12-2019 14:01:17 6.1 C 31 %
1957 03-12-2019 14:11:17 6.2 C 31 %
1958 03-12-2019 14:21:17 6.1 C 31 %
1959 03-12-2019 14:31:17 6.3 C 31 %
1960 03-12-2019 14:41:17 6.2 C 30 %
1961 03-12-2019 14:51:18 6.4 C 31 %
1962 03-12-2019 15:01:17 6.2 C 30 %
1963 03-12-2019 15:11:17 6.3 C 31 %
1964 03-12-2019 15:21:17 6.3 C 31 %
1965 03-12-2019 15:31:17 6.2 C 31 %
1966 03-12-2019 15:41:17 6.1 C 32 %
1967 03-12-2019 15:51:17 6 C 33 %
1968 03-12-2019 16:01:17 5.7 C 36 %
1969 03-12-2019 16:11:17 5.6 C 39 %
1970 03-12-2019 16:21:17 5.4 C 40 %
1971 03-12-2019 16:31:18 5.3 C 41 %
1972 03-12-2019 16:41:18 5.2 C 41 %
1973 03-12-2019 16:51:17 5.2 C 41 %
1974 03-12-2019 17:01:18 5.1 C 41 %
1975 03-12-2019 17:11:18 5.1 C 41 %
Sensor: Nr:Datum:Temp:Feuchte:
Aussen-T/F 1976 03-12-2019 17:21:17 5.1 C 41 %
1977 03-12-2019 17:31:17 5 C 41 %
1978 03-12-2019 17:41:17 5 C 41 %
1979 03-12-2019 17:51:17 5 C 41 %
1980 03-12-2019 18:01:18 4.8 C 41 %
1981 03-12-2019 18:11:18 4.7 C 40 %
1982 03-12-2019 18:21:17 4.7 C 40 %
1983 03-12-2019 18:31:18 4.7 C 40 %
1984 03-12-2019 18:41:18 4.7 C 40 %
1985 03-12-2019 18:51:17 4.7 C 40 %
1986 03-12-2019 19:01:17 4.7 C 40 %
1987 03-12-2019 19:11:17 4.6 C 39 %
1988 03-12-2019 19:21:17 4.6 C 38 %
1989 03-12-2019 19:31:17 4.6 C 38 %
1990 03-12-2019 19:41:17 4.4 C 37 %
1991 03-12-2019 19:51:17 4.3 C 38 %
1992 03-12-2019 20:01:17 4.3 C 39 %
1993 03-12-2019 20:11:17 4.3 C 38 %
1994 03-12-2019 20:21:18 4.2 C 37 %
1995 03-12-2019 20:31:17 4.2 C 38 %
1996 03-12-2019 20:41:18 4.1 C 39 %
1997 03-12-2019 20:51:17 3.9 C 40 %
1998 03-12-2019 21:01:17 3.9 C 41 %
1999 03-12-2019 21:11:17 4 C 40 %
2000 03-12-2019 21:21:17 4 C 40 %
Sensor: Nr:Datum:Temp:Feuchte:
Aussen-T/F 2001 03-12-2019 21:31:17 3.8 C 40 %
2002 03-12-2019 21:41:17 3.5 C 40 %
2003 03-12-2019 21:51:17 3.3 C 40 %
2004 03-12-2019 22:01:17 2.9 C 41 %
2005 03-12-2019 22:11:17 2.8 C 42 %
2006 03-12-2019 22:21:18 2.8 C 42 %
2007 03-12-2019 22:31:18 3.3 C 42 %
2008 03-12-2019 22:41:18 3.5 C 40 %
2009 03-12-2019 22:51:17 3.2 C 38 %
2010 03-12-2019 23:01:18 2.6 C 39 %
2011 03-12-2019 23:11:18 2.5 C 41 %
2012 03-12-2019 23:21:17 2.5 C 41 %
2013 03-12-2019 23:31:17 2.2 C 40 %
2014 03-12-2019 23:41:17 2.8 C 40 %
2015 03-12-2019 23:51:17 2.6 C 38 %
2016 04-12-2019 00:01:18 2.3 C 39 %
2017 04-12-2019 00:11:18 1.7 C 41 %
2018 04-12-2019 00:21:17 1.3 C 42 %
2019 04-12-2019 00:31:17 0.9 C 43 %
2020 04-12-2019 00:41:17 0.4 C 43 %
2021 04-12-2019 00:51:17 0.6 C 45 %
2022 04-12-2019 01:01:18 0.2 C 44 %
2023 04-12-2019 01:11:18 0.2 C 45 %
2024 04-12-2019 01:21:17 0 C 44 %
2025 04-12-2019 01:31:17 -0.1 C 45 %
Sensor: Nr:Datum:Temp:Feuchte:
Aussen-T/F 2026 04-12-2019 01:41:17 0.1 C 45 %
2027 04-12-2019 01:51:18 -0.3 C 45 %
2028 04-12-2019 02:01:17 -0.3 C 45 %
2029 04-12-2019 02:11:17 -0.2 C 45 %
2030 04-12-2019 02:21:17 -0.5 C 45 %
2031 04-12-2019 02:31:18 -0.4 C 45 %
2032 04-12-2019 02:41:18 0.1 C 45 %
2033 04-12-2019 02:51:17 0.3 C 45 %
2034 04-12-2019 03:01:18 0.6 C 45 %
2035 04-12-2019 03:11:18 0.9 C 45 %
2036 04-12-2019 03:21:17 0.9 C 45 %
2037 04-12-2019 03:31:17 1 C 44 %
2038 04-12-2019 03:41:17 1 C 44 %
2039 04-12-2019 03:51:17 1 C 44 %
2040 04-12-2019 04:01:18 0.8 C 45 %
2041 04-12-2019 04:11:18 0.9 C 45 %
2042 04-12-2019 04:21:17 0.8 C 45 %
2043 04-12-2019 04:31:17 0.8 C 45 %
2044 04-12-2019 04:41:17 0.8 C 45 %
2045 04-12-2019 04:51:17 0.8 C 45 %
2046 04-12-2019 05:01:17 0.8 C 45 %
2047 04-12-2019 05:11:17 0.8 C 44 %
2048 04-12-2019 05:21:17 0.8 C 44 %
2049 04-12-2019 05:31:17 1 C 43 %
2050 04-12-2019 05:41:17 1 C 43 %
Sensor: Nr:Datum:Temp:Feuchte:
Aussen-T/F 2051 04-12-2019 05:51:18 1 C 43 %
2052 04-12-2019 06:01:17 1 C 43 %
2053 04-12-2019 06:11:17 1.1 C 43 %
2054 04-12-2019 06:21:17 1.2 C 43 %
2055 04-12-2019 06:31:17 1.2 C 43 %
2056 04-12-2019 06:41:18 1.2 C 43 %
2057 04-12-2019 06:51:17 1.2 C 43 %
2058 04-12-2019 07:01:17 1.1 C 43 %
2059 04-12-2019 07:11:17 1.1 C 43 %
2060 04-12-2019 07:21:18 1.1 C 43 %
2061 04-12-2019 07:31:17 1 C 43 %
2062 04-12-2019 07:41:17 0.9 C 44 %
2063 04-12-2019 07:51:17 1 C 43 %
2064 04-12-2019 08:01:17 0.9 C 44 %
2065 04-12-2019 08:11:17 0.9 C 44 %
2066 04-12-2019 08:21:17 0.9 C 44 %
2067 04-12-2019 08:31:17 0.9 C 44 %
2068 04-12-2019 08:41:17 1 C 42 %
2069 04-12-2019 08:51:17 1 C 42 %
2070 04-12-2019 09:01:18 1 C 42 %
2071 04-12-2019 09:11:18 1.2 C 42 %
2072 04-12-2019 09:21:18 1.2 C 42 %
2073 04-12-2019 09:31:17 1.2 C 41 %
2074 04-12-2019 09:41:17 1.2 C 41 %
2075 04-12-2019 09:51:17 1.4 C 41 %
Sensor: Nr:Datum:Temp:Feuchte:
Aussen-T/F 2076 04-12-2019 10:01:17 1.5 C 41 %
2077 04-12-2019 10:11:18 1.4 C 39 %
2078 04-12-2019 10:21:17 1.3 C 38 %
2079 04-12-2019 10:31:17 1.1 C 37 %
2080 04-12-2019 10:41:17 1.1 C 37 %
2081 04-12-2019 10:51:18 1 C 38 %
2082 04-12-2019 11:01:17 1 C 38 %
2083 04-12-2019 11:11:17 1.1 C 39 %
2084 04-12-2019 11:21:17 1.1 C 39 %
2085 04-12-2019 11:31:18 1.1 C 40 %
2086 04-12-2019 11:41:18 1 C 40 %
2087 04-12-2019 11:51:17 1.1 C 41 %
2088 04-12-2019 12:01:17 1.2 C 41 %
2089 04-12-2019 12:11:17 1.3 C 41 %
2090 04-12-2019 12:21:18 1.3 C 41 %
2091 04-12-2019 12:31:17 1.5 C 41 %
2092 04-12-2019 12:41:17 1.5 C 41 %
2093 04-12-2019 12:51:17 1.6 C 41 %
2094 04-12-2019 13:01:17 1.6 C 41 %
2095 04-12-2019 13:11:17 1.7 C 41 %
2096 04-12-2019 13:21:17 1.8 C 40 %
2097 04-12-2019 13:31:18 1.8 C 40 %
2098 04-12-2019 13:41:18 2.1 C 38 %
2099 04-12-2019 13:51:17 2.1 C 37 %
2100 04-12-2019 14:01:17 2.1 C 37 %
Sensor: Nr:Datum:Temp:Feuchte:
Aussen-T/F 2101 04-12-2019 14:11:17 2.1 C 36 %
2102 04-12-2019 14:21:17 2.1 C 36 %
2103 04-12-2019 14:31:18 2 C 36 %
2104 04-12-2019 14:41:18 2.2 C 35 %
2105 04-12-2019 14:51:17 2.1 C 36 %
2106 04-12-2019 15:01:18 2 C 37 %
2107 04-12-2019 15:11:18 1.7 C 38 %
2108 04-12-2019 15:21:17 1.7 C 40 %
2109 04-12-2019 15:31:17 1.7 C 40 %
2110 04-12-2019 15:41:17 1.8 C 39 %
2111 04-12-2019 15:51:18 1.8 C 39 %
2112 04-12-2019 16:01:17 1.6 C 37 %
2113 04-12-2019 16:11:17 1.5 C 37 %
2114 04-12-2019 16:21:17 1.4 C 37 %
2115 04-12-2019 16:31:17 1.4 C 37 %
2116 04-12-2019 16:41:17 1.2 C 37 %
2117 04-12-2019 16:51:17 1.1 C 36 %
2118 04-12-2019 17:01:17 1 C 37 %
2119 04-12-2019 17:11:17 1 C 37 %
2120 04-12-2019 17:21:18 1 C 36 %
2121 04-12-2019 17:31:17 0.9 C 38 %
2122 04-12-2019 17:41:17 0.6 C 38 %
2123 04-12-2019 17:51:18 0.7 C 39 %
2124 04-12-2019 18:01:17 0.8 C 38 %
2125 04-12-2019 18:11:17 0.3 C 39 %
Sensor: Nr:Datum:Temp:Feuchte:
Aussen-T/F 2126 04-12-2019 18:21:17 0.4 C 40 %
2127 04-12-2019 18:31:17 0.6 C 40 %
2128 04-12-2019 18:41:17 -0.2 C 40 %
2129 04-12-2019 18:51:17 -0.5 C 41 %
2130 04-12-2019 19:01:17 -0.3 C 44 %
2131 04-12-2019 19:11:17 -0.7 C 42 %
2132 04-12-2019 19:21:17 -1.1 C 42 %
2133 04-12-2019 19:31:17 -1 C 44 %
2134 04-12-2019 19:41:17 -1.2 C 44 %
2135 04-12-2019 19:51:17 -1.4 C 43 %
2136 04-12-2019 20:01:17 -1.3 C 44 %
2137 04-12-2019 20:11:17 -1.1 C 45 %
2138 04-12-2019 20:21:17 -1.5 C 44 %
2139 04-12-2019 20:31:17 -1.5 C 44 %
2140 04-12-2019 20:41:17 -1.8 C 43 %
2141 04-12-2019 20:51:18 -1.9 C 44 %
2142 04-12-2019 21:01:18 -1.9 C 44 %
2143 04-12-2019 21:11:18 -1.7 C 44 %
2144 04-12-2019 21:21:17 -2 C 43 %
2145 04-12-2019 21:31:17 -2 C 43 %
2146 04-12-2019 21:41:17 -2.4 C 43 %
2147 04-12-2019 21:51:17 -2.4 C 43 %
2148 04-12-2019 22:01:17 -2.5 C 43 %
2149 04-12-2019 22:11:17 -2.6 C 43 %
2150 04-12-2019 22:21:17 -2.7 C 44 %
Sensor: Nr:Datum:Temp:Feuchte:
Aussen-T/F 2151 04-12-2019 22:31:18 -2.8 C 43 %
2152 04-12-2019 22:41:18 -2.7 C 43 %
2153 04-12-2019 22:51:17 -2.5 C 43 %
2154 04-12-2019 23:01:17 -2.6 C 42 %
2155 04-12-2019 23:11:17 -2.9 C 42 %
2156 04-12-2019 23:21:17 -2.7 C 42 %
2157 04-12-2019 23:31:17 -2.7 C 42 %
2158 04-12-2019 23:41:17 -2.9 C 41 %
2159 04-12-2019 23:51:18 -2.9 C 42 %
2160 05-12-2019 00:01:17 -3 C 41 %
2161 05-12-2019 00:11:17 -3 C 41 %
2162 05-12-2019 00:21:17 -3.1 C 41 %
2163 05-12-2019 00:31:18 -2.8 C 41 %
2164 05-12-2019 00:41:18 -2.8 C 41 %
2165 05-12-2019 00:51:17 -2.9 C 41 %
2166 05-12-2019 01:01:17 -2.9 C 41 %
2167 05-12-2019 01:11:17 -3.2 C 41 %
2168 05-12-2019 01:21:17 -2.5 C 43 %
2169 05-12-2019 01:31:18 -2.6 C 43 %
2170 05-12-2019 01:41:18 -2.7 C 43 %
2171 05-12-2019 01:51:17 -2.6 C 43 %
2172 05-12-2019 02:01:17 -2.6 C 42 %
2173 05-12-2019 02:11:18 -2.8 C 41 %
2174 05-12-2019 02:21:17 -3 C 41 %
2175 05-12-2019 02:31:17 -3.2 C 41 %
Sensor: Nr:Datum:Temp:Feuchte:
Aussen-T/F 2176 05-12-2019 02:41:17 -3.2 C 41 %
2177 05-12-2019 02:51:17 -3.2 C 41 %
2178 05-12-2019 03:01:17 -3.4 C 40 %
2179 05-12-2019 03:11:17 -3.5 C 40 %
2180 05-12-2019 03:21:17 -3.3 C 41 %
2181 05-12-2019 03:31:17 -3.2 C 41 %
2182 05-12-2019 03:41:17 -3.6 C 40 %
2183 05-12-2019 03:51:17 -3 C 43 %
2184 05-12-2019 04:01:17 -2.7 C 43 %
2185 05-12-2019 04:11:17 -2.7 C 43 %
2186 05-12-2019 04:21:17 -2.7 C 43 %
2187 05-12-2019 04:31:18 -2.9 C 42 %
2188 05-12-2019 04:41:18 -3.3 C 40 %
2189 05-12-2019 04:51:17 -2.9 C 42 %
2190 05-12-2019 05:01:17 -2.8 C 43 %
2191 05-12-2019 05:11:17 -2.8 C 42 %
2192 05-12-2019 05:21:17 -2.7 C 43 %
2193 05-12-2019 05:31:17 -2.7 C 43 %
2194 05-12-2019 05:41:18 -2.5 C 43 %
2195 05-12-2019 05:51:17 -2.5 C 43 %
2196 05-12-2019 06:01:17 -2.6 C 43 %
2197 05-12-2019 06:11:17 -2.7 C 43 %
2198 05-12-2019 06:21:17 -2.9 C 43 %
2199 05-12-2019 06:31:17 -2.9 C 43 %
2200 05-12-2019 06:41:17 -3 C 42 %
Sensor: Nr:Datum:Temp:Feuchte:
Aussen-T/F 2201 05-12-2019 06:51:17 -2.9 C 43 %
2202 05-12-2019 07:01:17 -2.9 C 42 %
2203 05-12-2019 07:11:17 -2.9 C 42 %
2204 05-12-2019 07:21:17 -3.2 C 42 %
2205 05-12-2019 07:31:17 -3.1 C 42 %
2206 05-12-2019 07:41:18 -2.9 C 42 %
2207 05-12-2019 07:51:17 -2.9 C 42 %
2208 05-12-2019 08:01:17 -3 C 42 %
2209 05-12-2019 08:11:17 -2.8 C 43 %
2210 05-12-2019 08:21:18 -2.9 C 42 %
2211 05-12-2019 08:31:17 -2.8 C 42 %
2212 05-12-2019 08:41:17 -3 C 42 %
2213 05-12-2019 08:51:17 -3 C 42 %
2214 05-12-2019 09:01:18 -2.7 C 43 %
2215 05-12-2019 09:11:18 -2.6 C 43 %
2216 05-12-2019 09:21:17 -2.6 C 42 %
2217 05-12-2019 09:31:17 -2.6 C 42 %
2218 05-12-2019 09:41:17 -2.5 C 43 %
2219 05-12-2019 09:51:17 -2.4 C 42 %
2220 05-12-2019 10:01:18 -2.3 C 42 %
2221 05-12-2019 10:11:18 -2.4 C 42 %
2222 05-12-2019 10:21:17 -2.1 C 43 %
2223 05-12-2019 10:31:17 -1.7 C 43 %
2224 05-12-2019 10:41:17 -2 C 42 %
2225 05-12-2019 10:51:18 -1.7 C 42 %
Sensor: Nr:Datum:Temp:Feuchte:
Aussen-T/F 2226 05-12-2019 11:01:17 -1.7 C 43 %
2227 05-12-2019 11:11:17 -1.4 C 42 %
2228 05-12-2019 11:21:17 -1.2 C 41 %
2229 05-12-2019 11:31:18 -1.2 C 41 %
2230 05-12-2019 11:41:18 -0.7 C 42 %
2231 05-12-2019 11:51:17 -0.9 C 42 %
2232 05-12-2019 12:01:18 -1 C 41 %
2233 05-12-2019 12:11:18 -0.8 C 41 %
2234 05-12-2019 12:21:17 -0.6 C 41 %
2235 05-12-2019 12:31:17 -0.8 C 40 %
2236 05-12-2019 12:41:17 -0.9 C 40 %
2237 05-12-2019 12:51:18 -0.6 C 41 %
2238 05-12-2019 13:01:17 -0.5 C 40 %
2239 05-12-2019 13:11:17 -0.6 C 40 %
2240 05-12-2019 13:21:17 -0.4 C 41 %
2241 05-12-2019 13:31:17 -0.4 C 41 %
2242 05-12-2019 13:41:17 -0.2 C 41 %
2243 05-12-2019 13:51:17 0.1 C 40 %
2244 05-12-2019 14:01:18 0.1 C 40 %
2245 05-12-2019 14:11:18 0.2 C 40 %
2246 05-12-2019 14:21:17 0.2 C 40 %
2247 05-12-2019 14:31:17 0.2 C 40 %
2248 05-12-2019 14:41:17 0.2 C 40 %
2249 05-12-2019 14:51:17 0.2 C 41 %
2250 05-12-2019 15:01:17 0.1 C 41 %
Sensor: Nr:Datum:Temp:Feuchte:
Aussen-T/F 2251 05-12-2019 15:11:17 0 C 41 %
2252 05-12-2019 15:21:17 -0.1 C 42 %
2253 05-12-2019 15:31:17 -0.1 C 43 %
2254 05-12-2019 15:41:17 -0.1 C 44 %
2255 05-12-2019 15:51:18 -0.1 C 44 %
2256 05-12-2019 16:01:17 -0.4 C 44 %
2257 05-12-2019 16:11:17 -0.5 C 44 %
2258 05-12-2019 16:21:17 -0.7 C 45 %
2259 05-12-2019 16:31:18 -0.8 C 44 %
2260 05-12-2019 16:41:18 -1 C 44 %
2261 05-12-2019 16:51:17 -1 C 44 %
2262 05-12-2019 17:01:17 -1.2 C 44 %
2263 05-12-2019 17:11:17 -1.1 C 45 %
2264 05-12-2019 17:21:18 -1.2 C 45 %
2265 05-12-2019 17:31:17 -1.3 C 44 %
2266 05-12-2019 17:41:17 -1.7 C 44 %
2267 05-12-2019 17:51:17 -1.6 C 44 %
2268 05-12-2019 18:01:18 -1.8 C 43 %
2269 05-12-2019 18:11:18 -2 C 43 %
2270 05-12-2019 18:21:17 -2 C 43 %
2271 05-12-2019 18:31:17 -2 C 43 %
2272 05-12-2019 18:41:17 -2.2 C 43 %
2273 05-12-2019 18:51:18 -2.5 C 42 %
2274 05-12-2019 19:01:17 -2.1 C 43 %
2275 05-12-2019 19:11:17 -2.1 C 44 %
Sensor: Nr:Datum:Temp:Feuchte:
Aussen-T/F 2276 05-12-2019 19:21:17 -2.6 C 42 %
2277 05-12-2019 19:31:17 -2.9 C 41 %
2278 05-12-2019 19:41:17 -2.6 C 42 %
2279 05-12-2019 19:51:18 -1.9 C 43 %
2280 05-12-2019 20:01:17 -1.5 C 44 %
2281 05-12-2019 20:11:17 -1.6 C 43 %
2282 05-12-2019 20:21:17 -1.5 C 43 %
2283 05-12-2019 20:31:17 -1.9 C 42 %
2284 05-12-2019 20:41:17 -2 C 42 %
2285 05-12-2019 20:51:18 -2.1 C 42 %
2286 05-12-2019 21:01:17 -2.3 C 42 %
2287 05-12-2019 21:11:17 -2.6 C 42 %
2288 05-12-2019 21:21:17 -2.1 C 43 %
2289 05-12-2019 21:31:17 -2 C 43 %
2290 05-12-2019 21:41:17 -2 C 43 %
2291 05-12-2019 21:51:17 -2 C 43 %
2292 05-12-2019 22:01:17 -2.3 C 42 %
2293 05-12-2019 22:11:17 -2.3 C 42 %
2294 05-12-2019 22:21:18 -2.2 C 42 %
2295 05-12-2019 22:31:17 -2.4 C 42 %
2296 05-12-2019 22:41:17 -2.4 C 42 %
2297 05-12-2019 22:51:17 -2.3 C 42 %
2298 05-12-2019 23:01:17 -2.6 C 41 %
2299 05-12-2019 23:11:17 -2.7 C 41 %
2300 05-12-2019 23:21:18 -2.7 C 42 %
Sensor: Nr:Datum:Temp:Feuchte:
Aussen-T/F 2301 05-12-2019 23:31:17 -3.1 C 41 %
2302 05-12-2019 23:41:17 -3.3 C 41 %
2303 05-12-2019 23:51:17 -3.2 C 42 %
2304 06-12-2019 00:01:18 -2.9 C 42 %
2305 06-12-2019 00:11:18 -3.4 C 40 %
2306 06-12-2019 00:21:17 -3.8 C 40 %
2307 06-12-2019 00:31:17 -3.4 C 42 %
2308 06-12-2019 00:41:17 -3.2 C 42 %
2309 06-12-2019 00:51:17 -2.7 C 43 %
2310 06-12-2019 01:01:17 -2.4 C 43 %
2311 06-12-2019 01:11:17 -2.1 C 43 %
2312 06-12-2019 01:21:17 -2 C 41 %
2313 06-12-2019 01:31:18 -1.8 C 42 %
2314 06-12-2019 01:41:18 -1.6 C 43 %
2315 06-12-2019 01:51:17 -1.6 C 43 %
2316 06-12-2019 02:01:17 -1.4 C 42 %
2317 06-12-2019 02:11:17 -1.4 C 40 %
2318 06-12-2019 02:21:17 -1.6 C 40 %
2319 06-12-2019 02:31:17 -1.5 C 40 %
2320 06-12-2019 02:41:17 -1.7 C 39 %
2321 06-12-2019 02:51:17 -1.6 C 40 %
2322 06-12-2019 03:01:18 -1.4 C 39 %
2323 06-12-2019 03:11:18 -1.2 C 39 %
2324 06-12-2019 03:21:17 -1 C 38 %
2325 06-12-2019 03:31:17 -1 C 37 %
Sensor: Nr:Datum:Temp:Feuchte:
Aussen-T/F 2326 06-12-2019 03:41:17 -1 C 38 %
2327 06-12-2019 03:51:17 -1.1 C 37 %
2328 06-12-2019 04:01:17 -1.2 C 38 %
2329 06-12-2019 04:11:17 -1.3 C 37 %
2330 06-12-2019 04:21:17 -1.3 C 38 %
2331 06-12-2019 04:31:17 -1.1 C 38 %
2332 06-12-2019 04:41:17 -1.1 C 38 %
2333 06-12-2019 04:51:17 -0.8 C 38 %
2334 06-12-2019 05:01:17 -1 C 38 %
2335 06-12-2019 05:11:17 -0.8 C 37 %
2336 06-12-2019 05:21:17 -0.9 C 36 %
2337 06-12-2019 05:31:18 -1 C 37 %
2338 06-12-2019 05:41:18 -0.8 C 38 %
2339 06-12-2019 05:51:17 -0.6 C 36 %
2340 06-12-2019 06:01:17 -0.6 C 35 %
2341 06-12-2019 06:11:17 -0.6 C 36 %
2342 06-12-2019 06:21:17 -0.5 C 36 %
2343 06-12-2019 06:31:17 -0.5 C 35 %
2344 06-12-2019 06:41:17 -0.4 C 36 %
2345 06-12-2019 06:51:18 -0.4 C 37 %
2346 06-12-2019 07:01:17 -0.4 C 38 %
2347 06-12-2019 07:11:17 -0.4 C 38 %
2348 06-12-2019 07:21:17 -0.1 C 37 %
2349 06-12-2019 07:31:17 0 C 36 %
2350 06-12-2019 07:41:17 0.2 C 34 %
Sensor: Nr:Datum:Temp:Feuchte:
Aussen-T/F 2351 06-12-2019 07:51:18 0.4 C 32 %
2352 06-12-2019 08:01:17 0.4 C 32 %
2353 06-12-2019 08:11:17 0.4 C 32 %
2354 06-12-2019 08:21:17 0.4 C 35 %
2355 06-12-2019 08:31:17 0.6 C 32 %
2356 06-12-2019 08:41:17 0.5 C 35 %
2357 06-12-2019 08:51:18 0.5 C 35 %
2358 06-12-2019 09:01:17 0.6 C 36 %
2359 06-12-2019 09:11:17 0.8 C 36 %
2360 06-12-2019 09:21:17 1.2 C 33 %
2361 06-12-2019 09:31:17 1.4 C 33 %
2362 06-12-2019 09:41:17 1.5 C 33 %
2363 06-12-2019 09:51:17 1.7 C 34 %
2364 06-12-2019 10:01:17 1.8 C 33 %
2365 06-12-2019 10:11:17 1.8 C 35 %
2366 06-12-2019 10:21:18 1.9 C 36 %
2367 06-12-2019 10:31:17 1.9 C 36 %
2368 06-12-2019 10:41:17 2.4 C 35 %
2369 06-12-2019 10:51:17 2.5 C 35 %
2370 06-12-2019 11:01:18 2.7 C 35 %
2371 06-12-2019 11:11:18 3.2 C 32 %
2372 06-12-2019 11:21:17 3.3 C 32 %
2373 06-12-2019 11:31:17 3.5 C 32 %
2374 06-12-2019 11:41:17 3.5 C 32 %
2375 06-12-2019 11:51:17 3.5 C 33 %
Sensor: Nr:Datum:Temp:Feuchte:
Aussen-T/F 2376 06-12-2019 12:01:17 3.6 C 33 %
2377 06-12-2019 12:11:17 3.6 C 33 %
2378 06-12-2019 12:21:17 3.6 C 35 %
2379 06-12-2019 12:31:18 3.7 C 37 %
2380 06-12-2019 12:41:18 3.7 C 39 %
2381 06-12-2019 12:51:17 3.7 C 40 %
2382 06-12-2019 13:01:17 3.8 C 39 %
2383 06-12-2019 13:11:17 3.9 C 38 %
2384 06-12-2019 13:21:17 4 C 36 %
2385 06-12-2019 13:31:18 4.2 C 35 %
2386 06-12-2019 13:41:18 4.2 C 35 %
2387 06-12-2019 13:51:17 4.1 C 36 %
2388 06-12-2019 14:01:17 4.1 C 39 %
2389 06-12-2019 14:11:17 4.2 C 40 %
2390 06-12-2019 14:21:17 4.2 C 38 %
2391 06-12-2019 14:31:18 4.2 C 38 %
2392 06-12-2019 14:41:18 4.4 C 38 %
2393 06-12-2019 14:51:17 4.4 C 39 %
2394 06-12-2019 15:01:17 4.3 C 38 %
2395 06-12-2019 15:11:17 4.4 C 38 %
2396 06-12-2019 15:21:17 4.7 C 36 %
2397 06-12-2019 15:31:17 4.5 C 37 %
2398 06-12-2019 15:41:17 4.5 C 37 %
2399 06-12-2019 15:51:18 4.6 C 37 %
2400 06-12-2019 16:01:18 4.8 C 38 %
Sensor: Nr:Datum:Temp:Feuchte:
Aussen-T/F 2401 06-12-2019 16:11:18 5 C 34 %
2402 06-12-2019 16:21:17 5.2 C 32 %
2403 06-12-2019 16:31:17 5.1 C 32 %
2404 06-12-2019 16:41:17 5.3 C 32 %
2405 06-12-2019 16:51:17 5.2 C 31 %
2406 06-12-2019 17:01:17 5.2 C 31 %
2407 06-12-2019 17:11:17 5.3 C 31 %
2408 06-12-2019 17:21:17 5.3 C 30 %
2409 06-12-2019 17:31:18 5.5 C 30 %
2410 06-12-2019 17:41:18 5.6 C 29 %
2411 06-12-2019 17:51:17 5.5 C 30 %
2412 06-12-2019 18:01:17 5.9 C 29 %
2413 06-12-2019 18:11:17 6 C 28 %
2414 06-12-2019 18:21:18 6.2 C 29 %
2415 06-12-2019 18:31:17 6.1 C 28 %
2416 06-12-2019 18:41:17 6.1 C 29 %
2417 06-12-2019 18:51:17 5.9 C 30 %
2418 06-12-2019 19:01:17 5.6 C 31 %
2419 06-12-2019 19:11:17 5.8 C 32 %
2420 06-12-2019 19:21:17 5.9 C 31 %
2421 06-12-2019 19:31:17 6.2 C 30 %
2422 06-12-2019 19:41:17 6.5 C 28 %
2423 06-12-2019 19:51:17 6.5 C 28 %
2424 06-12-2019 20:01:17 6.8 C 28 %
2425 06-12-2019 20:11:17 6.7 C 28 %
Sensor: Nr:Datum:Temp:Feuchte:
Aussen-T/F 2426 06-12-2019 20:21:17 6.8 C 28 %
2427 06-12-2019 20:31:17 6.7 C 28 %
2428 06-12-2019 20:41:17 6.7 C 28 %
2429 06-12-2019 20:51:18 6.7 C 28 %
2430 06-12-2019 21:01:17 6.8 C 27 %
2431 06-12-2019 21:11:17 6.7 C 28 %
2432 06-12-2019 21:21:17 6.7 C 28 %
2433 06-12-2019 21:31:17 6.6 C 28 %
2434 06-12-2019 21:41:17 6.5 C 28 %
2435 06-12-2019 21:51:17 6.5 C 29 %
2436 06-12-2019 22:01:17 6.6 C 29 %
2437 06-12-2019 22:11:17 6.7 C 28 %
2438 06-12-2019 22:21:17 6.7 C 28 %
2439 06-12-2019 22:31:17 6.7 C 28 %
2440 06-12-2019 22:41:17 6.9 C 28 %
2441 06-12-2019 22:51:17 6.9 C 27 %
2442 06-12-2019 23:01:18 7 C 27 %
2443 06-12-2019 23:11:18 6.9 C 28 %
2444 06-12-2019 23:21:17 6.8 C 29 %
2445 06-12-2019 23:31:17 6.8 C 29 %
2446 06-12-2019 23:41:17 6.9 C 29 %
2447 06-12-2019 23:51:18 6.8 C 30 %
2448 07-12-2019 00:01:17 6.9 C 30 %
2449 07-12-2019 00:11:17 7 C 28 %
2450 07-12-2019 00:21:17 7.2 C 28 %
Sensor: Nr:Datum:Temp:Feuchte:
Aussen-T/F 2451 07-12-2019 00:31:17 7.2 C 28 %
2452 07-12-2019 00:41:17 7.2 C 28 %
2453 07-12-2019 00:51:17 7.4 C 28 %
2454 07-12-2019 01:01:17 7.4 C 28 %
2455 07-12-2019 01:11:17 7.6 C 28 %
2456 07-12-2019 01:21:17 7.7 C 28 %
2457 07-12-2019 01:31:18 7.8 C 28 %
2458 07-12-2019 01:41:18 7.6 C 29 %
2459 07-12-2019 01:51:17 7.6 C 29 %
2460 07-12-2019 02:01:17 7.5 C 30 %
2461 07-12-2019 02:11:17 7.7 C 31 %
2462 07-12-2019 02:21:17 7.5 C 31 %
2463 07-12-2019 02:31:17 7.1 C 35 %
2464 07-12-2019 02:41:17 7.2 C 38 %
2465 07-12-2019 02:51:17 7.3 C 35 %
2466 07-12-2019 03:01:17 7.4 C 35 %
2467 07-12-2019 03:11:17 7.6 C 33 %
2468 07-12-2019 03:21:17 8.4 C 30 %
2469 07-12-2019 03:31:17 8.5 C 29 %
2470 07-12-2019 03:41:17 8.7 C 28 %
2471 07-12-2019 03:51:17 9 C 27 %
2472 07-12-2019 04:01:18 8.4 C 29 %
2473 07-12-2019 04:11:18 8.5 C 29 %
2474 07-12-2019 04:21:17 8 C 30 %
2475 07-12-2019 04:31:17 7.9 C 30 %
Sensor: Nr:Datum:Temp:Feuchte:
Aussen-T/F 2476 07-12-2019 04:41:17 8 C 30 %
2477 07-12-2019 04:51:17 8 C 30 %
2478 07-12-2019 05:01:17 7.7 C 30 %
2479 07-12-2019 05:11:17 8 C 30 %
2480 07-12-2019 05:21:17 8 C 30 %
2481 07-12-2019 05:31:17 7.8 C 31 %
2482 07-12-2019 05:41:17 8.2 C 30 %
2483 07-12-2019 05:51:18 7.2 C 31 %
2484 07-12-2019 06:01:18 7.6 C 30 %
2485 07-12-2019 06:11:18 8.7 C 26 %
2486 07-12-2019 06:21:17 8.6 C 26 %
2487 07-12-2019 06:31:18 8.2 C 26 %
2488 07-12-2019 06:41:18 8.1 C 26 %
2489 07-12-2019 06:51:17 7.5 C 27 %
2490 07-12-2019 07:01:17 6.8 C 30 %
2491 07-12-2019 07:11:17 7.1 C 28 %
2492 07-12-2019 07:21:17 7.3 C 27 %
2493 07-12-2019 07:31:17 6.8 C 30 %
2494 07-12-2019 07:41:17 6.3 C 31 %
2495 07-12-2019 07:51:18 7.8 C 28 %
2496 07-12-2019 08:01:18 8 C 27 %
2497 07-12-2019 08:11:18 7.9 C 28 %
2498 07-12-2019 08:21:17 8.1 C 28 %
2499 07-12-2019 08:31:17 8.1 C 27 %
2500 07-12-2019 08:41:17 8.3 C 28 %
Sensor: Nr:Datum:Temp:Feuchte:
Aussen-T/F 2501 07-12-2019 08:51:17 8.4 C 27 %
2502 07-12-2019 09:01:17 8.4 C 27 %
2503 07-12-2019 09:11:17 8.3 C 28 %
2504 07-12-2019 09:21:17 8.2 C 28 %
2505 07-12-2019 09:31:17 8.1 C 29 %
2506 07-12-2019 09:41:17 8.3 C 28 %
2507 07-12-2019 09:51:18 8.6 C 27 %
2508 07-12-2019 10:01:17 8.6 C 27 %
2509 07-12-2019 10:11:17 8.8 C 27 %
2510 07-12-2019 10:21:17 9 C 26 %
2511 07-12-2019 10:31:17 9.1 C 25 %
2512 07-12-2019 10:41:17 9.1 C 26 %
2513 07-12-2019 10:51:18 9.2 C 25 %
2514 07-12-2019 11:01:18 9 C 26 %
2515 07-12-2019 11:11:18 8.4 C 29 %
2516 07-12-2019 11:21:17 8.3 C 30 %
2517 07-12-2019 11:31:17 8.4 C 30 %
2518 07-12-2019 11:41:17 8.5 C 30 %
2519 07-12-2019 11:51:17 8.6 C 28 %
2520 07-12-2019 12:01:17 8.8 C 27 %
2521 07-12-2019 12:11:17 8.9 C 27 %
2522 07-12-2019 12:21:17 9.2 C 25 %
2523 07-12-2019 12:31:18 9.4 C 25 %
2524 07-12-2019 12:41:18 9.5 C 25 %
2525 07-12-2019 12:51:17 9.5 C 25 %
Sensor: Nr:Datum:Temp:Feuchte:
Aussen-T/F 2526 07-12-2019 13:01:17 9.7 C 23 %
2527 07-12-2019 13:11:17 10 C 20 %
2528 07-12-2019 13:21:17 9.8 C 20 %
2529 07-12-2019 13:31:17 9.8 C 20 %
2530 07-12-2019 13:41:17 9.9 C 20 %
2531 07-12-2019 13:51:17 9.9 C 20 %
2532 07-12-2019 14:01:17 9.8 C 20 %
2533 07-12-2019 14:11:17 9.7 C 20 %
2534 07-12-2019 14:21:17 9.9 C 20 %
2535 07-12-2019 14:31:18 9.9 C 20 %
2536 07-12-2019 14:41:18 9.9 C 20 %
2537 07-12-2019 14:51:17 9.9 C 20 %
2538 07-12-2019 15:01:17 9.9 C 20 %
2539 07-12-2019 15:11:17 9.7 C 21 %
2540 07-12-2019 15:21:17 9.6 C 21 %
2541 07-12-2019 15:31:17 9.7 C 21 %
2542 07-12-2019 15:41:17 9.6 C 20 %
2543 07-12-2019 15:51:17 9.4 C 23 %
2544 07-12-2019 16:01:17 9 C 25 %
2545 07-12-2019 16:11:17 8.9 C 25 %
2546 07-12-2019 16:21:18 8.8 C 25 %
2547 07-12-2019 16:31:17 8.6 C 26 %
2548 07-12-2019 16:41:18 8.5 C 26 %
2549 07-12-2019 16:51:17 8.2 C 27 %
2550 07-12-2019 17:01:17 8.1 C 29 %
Sensor: Nr:Datum:Temp:Feuchte:
Aussen-T/F 2551 07-12-2019 17:11:17 8.2 C 28 %
2552 07-12-2019 17:21:17 8.1 C 28 %
2553 07-12-2019 17:31:18 8.2 C 28 %
2554 07-12-2019 17:41:18 8.3 C 27 %
2555 07-12-2019 17:51:17 8.1 C 27 %
2556 07-12-2019 18:01:18 8 C 28 %
2557 07-12-2019 18:11:18 8 C 27 %
2558 07-12-2019 18:21:17 7.8 C 28 %
2559 07-12-2019 18:31:17 7.7 C 29 %
2560 07-12-2019 18:41:17 7.6 C 30 %
2561 07-12-2019 18:51:17 7.6 C 30 %
2562 07-12-2019 19:01:17 7.5 C 31 %
2563 07-12-2019 19:11:17 7.5 C 31 %
2564 07-12-2019 19:21:17 7.5 C 32 %
2565 07-12-2019 19:31:17 7.7 C 31 %
2566 07-12-2019 19:41:17 7.6 C 30 %
2567 07-12-2019 19:51:17 7.7 C 30 %
2568 07-12-2019 20:01:18 7.4 C 30 %
2569 07-12-2019 20:11:18 7.3 C 31 %
2570 07-12-2019 20:21:17 7.3 C 31 %
2571 07-12-2019 20:31:17 7.4 C 30 %
2572 07-12-2019 20:41:17 7.6 C 30 %
2573 07-12-2019 20:51:17 7.6 C 30 %
2574 07-12-2019 21:01:17 7.5 C 30 %
2575 07-12-2019 21:11:17 7.6 C 30 %
Sensor: Nr:Datum:Temp:Feuchte:
Aussen-T/F 2576 07-12-2019 21:21:17 8 C 28 %
2577 07-12-2019 21:31:17 8.1 C 28 %
2578 07-12-2019 21:41:17 8.2 C 28 %
2579 07-12-2019 21:51:17 7.9 C 28 %
2580 07-12-2019 22:01:17 8.2 C 28 %
2581 07-12-2019 22:11:17 8.1 C 27 %
2582 07-12-2019 22:21:17 7.8 C 28 %
2583 07-12-2019 22:31:18 7.7 C 30 %
2584 07-12-2019 22:41:18 7.6 C 30 %
2585 07-12-2019 22:51:17 7.5 C 31 %
2586 07-12-2019 23:01:17 7.4 C 32 %
2587 07-12-2019 23:11:17 7.6 C 31 %
2588 07-12-2019 23:21:17 7.6 C 32 %
2589 07-12-2019 23:31:17 7.5 C 32 %
2590 07-12-2019 23:41:17 7.7 C 31 %
2591 07-12-2019 23:51:18 7.9 C 28 %
2592 08-12-2019 00:01:17 8.1 C 27 %
2593 08-12-2019 00:11:17 8.9 C 23 %
2594 08-12-2019 00:21:17 8.9 C 21 %
2595 08-12-2019 00:31:18 9 C 21 %
2596 08-12-2019 00:41:18 8.9 C 23 %
2597 08-12-2019 00:51:17 8.5 C 25 %
2598 08-12-2019 01:01:18 8.3 C 25 %
2599 08-12-2019 01:11:18 8.5 C 25 %
2600 08-12-2019 01:21:17 8.4 C 26 %
Sensor: Nr:Datum:Temp:Feuchte:
Aussen-T/F 2601 08-12-2019 01:31:17 8.9 C 25 %
2602 08-12-2019 01:41:17 8.8 C 25 %
2603 08-12-2019 01:51:18 9.2 C 20 %
2604 08-12-2019 02:01:17 9.2 C 20 %
2605 08-12-2019 02:11:17 8.9 C 20 %
2606 08-12-2019 02:21:17 9 C 20 %
2607 08-12-2019 02:31:17 9.1 C 20 %
2608 08-12-2019 02:41:18 9 C 20 %
2609 08-12-2019 02:51:17 9.1 C 20 %
2610 08-12-2019 03:01:17 9 C 20 %
2611 08-12-2019 03:11:17 9.1 C 20 %
2612 08-12-2019 03:21:17 9.1 C 20 %
2613 08-12-2019 03:31:17 9.3 C 20 %
2614 08-12-2019 03:41:17 9.3 C 20 %
2615 08-12-2019 03:51:17 9.4 C 20 %
2616 08-12-2019 04:01:17 9.7 C 20 %
2617 08-12-2019 04:11:18 9.6 C 20 %
2618 08-12-2019 04:21:17 9.5 C 20 %
2619 08-12-2019 04:31:17 9.6 C 20 %
2620 08-12-2019 04:41:17 9.6 C 20 %
2621 08-12-2019 04:51:17 9.5 C 20 %
2622 08-12-2019 05:01:17 9.6 C 20 %
2623 08-12-2019 05:11:17 9.5 C 21 %
2624 08-12-2019 05:21:17 9.5 C 21 %
2625 08-12-2019 05:31:17 9.4 C 23 %
Sensor: Nr:Datum:Temp:Feuchte:
Aussen-T/F 2626 08-12-2019 05:41:17 9.5 C 23 %
2627 08-12-2019 05:51:17 9.2 C 25 %
2628 08-12-2019 06:01:17 9.3 C 25 %
2629 08-12-2019 06:11:18 9.5 C 25 %
2630 08-12-2019 06:21:17 9.9 C 21 %
2631 08-12-2019 06:31:17 9.8 C 23 %
2632 08-12-2019 06:41:17 9.7 C 25 %
2633 08-12-2019 06:51:17 9.9 C 23 %
2634 08-12-2019 07:01:18 10 C 21 %
2635 08-12-2019 07:11:18 10.1 C 20 %
2636 08-12-2019 07:21:17 9.9 C 21 %
2637 08-12-2019 07:31:17 10 C 21 %
2638 08-12-2019 07:41:17 10.1 C 20 %
2639 08-12-2019 07:51:17 10 C 20 %
2640 08-12-2019 08:01:17 10 C 20 %
2641 08-12-2019 08:11:17 10.2 C 20 %
2642 08-12-2019 08:21:17 10.1 C 20 %
2643 08-12-2019 08:31:17 10.3 C 21 %
2644 08-12-2019 08:41:17 10.1 C 21 %
2645 08-12-2019 08:51:17 10.3 C 21 %
2646 08-12-2019 09:01:17 10.3 C 21 %
2647 08-12-2019 09:11:17 10.1 C 21 %
2648 08-12-2019 09:21:17 10.2 C 21 %
2649 08-12-2019 09:31:17 10.3 C 21 %
2650 08-12-2019 09:41:17 10.4 C 21 %
Sensor: Nr:Datum:Temp:Feuchte:
Aussen-T/F 2651 08-12-2019 09:51:17 10.4 C 21 %
2652 08-12-2019 10:01:17 10.4 C 21 %
2653 08-12-2019 10:11:17 10.5 C 21 %
2654 08-12-2019 10:21:17 10.5 C 22 %
2655 08-12-2019 10:31:17 10.5 C 22 %
2656 08-12-2019 10:41:17 10.1 C 25 %
2657 08-12-2019 10:51:17 10.2 C 25 %
2658 08-12-2019 11:01:17 10.5 C 25 %
2659 08-12-2019 11:11:17 10.6 C 23 %
2660 08-12-2019 11:21:17 10.8 C 23 %
2661 08-12-2019 11:31:17 10.8 C 23 %
2662 08-12-2019 11:41:17 10.8 C 22 %
2663 08-12-2019 11:51:17 11 C 22 %
2664 08-12-2019 12:01:18 11.1 C 22 %
2665 08-12-2019 12:11:18 11.3 C 22 %
2666 08-12-2019 12:21:17 11.4 C 22 %
2667 08-12-2019 12:31:17 11.4 C 22 %
2668 08-12-2019 12:41:17 11.4 C 23 %
2669 08-12-2019 12:51:17 11.3 C 24 %
2670 08-12-2019 13:01:18 11.5 C 24 %
2671 08-12-2019 13:11:18 11.5 C 22 %
2672 08-12-2019 13:21:17 11.3 C 25 %
2673 08-12-2019 13:31:17 11.1 C 25 %
2674 08-12-2019 13:41:17 11.4 C 25 %
2675 08-12-2019 13:51:17 11.4 C 25 %
Sensor: Nr:Datum:Temp:Feuchte:
Aussen-T/F 2676 08-12-2019 14:01:17 11.5 C 25 %
2677 08-12-2019 14:11:17 11.5 C 25 %
2678 08-12-2019 14:21:17 11.5 C 25 %
2679 08-12-2019 14:31:18 11.7 C 25 %
2680 08-12-2019 14:41:18 11.7 C 25 %
2681 08-12-2019 14:51:17 11.7 C 25 %
2682 08-12-2019 15:01:18 11.8 C 25 %
2683 08-12-2019 15:11:18 11.8 C 25 %
2684 08-12-2019 15:21:18 11.7 C 25 %
2685 08-12-2019 15:31:18 11.7 C 25 %
2686 08-12-2019 15:41:18 11.8 C 25 %
2687 08-12-2019 15:51:17 11.8 C 25 %
2688 08-12-2019 16:01:17 11.7 C 25 %
2689 08-12-2019 16:11:17 11.8 C 25 %
2690 08-12-2019 16:21:18 11.7 C 25 %
2691 08-12-2019 16:31:18 11.6 C 26 %
2692 08-12-2019 16:41:18 11.4 C 27 %
2693 08-12-2019 16:51:17 9.4 C 31 %
2694 08-12-2019 17:01:17 8.9 C 33 %
2695 08-12-2019 17:11:17 8.8 C 33 %
2696 08-12-2019 17:21:17 8.7 C 34 %
2697 08-12-2019 17:31:17 9.2 C 27 %
2698 08-12-2019 17:41:17 8.5 C 33 %
2699 08-12-2019 17:51:17 8.5 C 33 %
2700 08-12-2019 18:01:17 8.5 C 32 %
Sensor: Nr:Datum:Temp:Feuchte:
Aussen-T/F 2701 08-12-2019 18:11:17 8.6 C 31 %
2702 08-12-2019 18:21:17 8.2 C 33 %
2703 08-12-2019 18:31:18 8.5 C 29 %
2704 08-12-2019 18:41:18 8.5 C 29 %
2705 08-12-2019 18:51:17 8.6 C 28 %
2706 08-12-2019 19:01:17 8.9 C 27 %
2707 08-12-2019 19:11:17 8.5 C 28 %
2708 08-12-2019 19:21:17 8.5 C 28 %
2709 08-12-2019 19:31:17 8.6 C 27 %
2710 08-12-2019 19:41:17 8 C 31 %
2711 08-12-2019 19:51:18 7.8 C 33 %
2712 08-12-2019 20:01:17 7.5 C 36 %
2713 08-12-2019 20:11:17 8.1 C 33 %
2714 08-12-2019 20:21:17 8.2 C 30 %
2715 08-12-2019 20:31:17 8.3 C 29 %
2716 08-12-2019 20:41:17 8.5 C 28 %
2717 08-12-2019 20:51:17 8.6 C 26 %
2718 08-12-2019 21:01:18 8.8 C 26 %
2719 08-12-2019 21:11:18 8.9 C 25 %
2720 08-12-2019 21:21:17 8.4 C 26 %
2721 08-12-2019 21:31:17 8.7 C 26 %
2722 08-12-2019 21:41:17 8.4 C 26 %
2723 08-12-2019 21:51:18 8.4 C 26 %
2724 08-12-2019 22:01:17 8.5 C 26 %
2725 08-12-2019 22:11:17 7.9 C 27 %
Sensor: Nr:Datum:Temp:Feuchte:
Aussen-T/F 2726 08-12-2019 22:21:17 8.1 C 26 %
2727 08-12-2019 22:31:17 8.6 C 26 %
2728 08-12-2019 22:41:17 8.8 C 26 %
2729 08-12-2019 22:51:17 8.7 C 25 %
2730 08-12-2019 23:01:17 8.8 C 25 %
2731 08-12-2019 23:11:17 8.7 C 26 %
2732 08-12-2019 23:21:17 8.8 C 25 %
2733 08-12-2019 23:31:18 8.7 C 25 %
2734 08-12-2019 23:41:18 8.5 C 25 %
2735 08-12-2019 23:51:17 8.4 C 21 %
2736 09-12-2019 00:01:18 8.7 C 20 %
2737 09-12-2019 00:11:18 8.1 C 21 %
2738 09-12-2019 00:21:17 8.4 C 21 %
2739 09-12-2019 00:31:17 8.4 C 21 %
2740 09-12-2019 00:41:17 8.5 C 20 %
2741 09-12-2019 00:51:17 8.4 C 20 %
2742 09-12-2019 01:01:17 8.4 C 20 %
2743 09-12-2019 01:11:17 8.5 C 20 %
2744 09-12-2019 01:21:18 8.1 C 20 %
2745 09-12-2019 01:31:17 8 C 20 %
2746 09-12-2019 01:41:17 8.3 C 20 %
2747 09-12-2019 01:51:17 8.2 C 20 %
2748 09-12-2019 02:01:17 7.8 C 20 %
2749 09-12-2019 02:11:17 7.6 C 20 %
2750 09-12-2019 02:21:17 7.4 C 21 %
Sensor: Nr:Datum:Temp:Feuchte:
Aussen-T/F 2751 09-12-2019 02:31:18 7.4 C 21 %
2752 09-12-2019 02:41:18 7.1 C 23 %
2753 09-12-2019 02:51:18 7.5 C 20 %
2754 09-12-2019 03:01:17 7.5 C 20 %
2755 09-12-2019 03:11:17 7.5 C 20 %
2756 09-12-2019 03:21:17 7.5 C 20 %
2757 09-12-2019 03:31:17 7.3 C 20 %
2758 09-12-2019 03:41:17 6.8 C 23 %
2759 09-12-2019 03:51:17 7.3 C 21 %
2760 09-12-2019 04:01:17 7.3 C 20 %
2761 09-12-2019 04:11:17 7.9 C 20 %
2762 09-12-2019 04:21:18 8 C 20 %
2763 09-12-2019 04:31:18 7.6 C 20 %
2764 09-12-2019 04:41:18 7.4 C 21 %
2765 09-12-2019 04:51:17 6.9 C 25 %
2766 09-12-2019 05:01:17 6.9 C 25 %
2767 09-12-2019 05:11:17 7.4 C 20 %
2768 09-12-2019 05:21:17 7.5 C 20 %
2769 09-12-2019 05:31:17 7.4 C 20 %
2770 09-12-2019 05:41:18 7.1 C 20 %
2771 09-12-2019 05:51:17 7.2 C 20 %
2772 09-12-2019 06:01:17 7.4 C 20 %
2773 09-12-2019 06:11:17 7.4 C 20 %
2774 09-12-2019 06:21:17 7.4 C 20 %
2775 09-12-2019 06:31:17 7.6 C 20 %
Sensor: Nr:Datum:Temp:Feuchte:
Aussen-T/F 2776 09-12-2019 06:41:17 7.8 C 20 %
2777 09-12-2019 06:51:18 7.7 C 20 %
2778 09-12-2019 07:01:17 7.6 C 20 %
2779 09-12-2019 07:11:18 7.5 C 20 %
2780 09-12-2019 07:21:17 7.2 C 20 %
2781 09-12-2019 07:31:17 7.2 C 20 %
2782 09-12-2019 07:41:17 7.6 C 20 %
2783 09-12-2019 07:51:18 7.5 C 20 %
2784 09-12-2019 08:01:17 7.9 C 20 %
2785 09-12-2019 08:11:17 7.8 C 20 %
2786 09-12-2019 08:21:17 7.9 C 20 %
2787 09-12-2019 08:31:17 8 C 20 %
2788 09-12-2019 08:41:17 7.9 C 20 %
2789 09-12-2019 08:51:17 7.9 C 20 %
2790 09-12-2019 09:01:17 7.8 C 20 %
2791 09-12-2019 09:11:17 7.9 C 20 %
2792 09-12-2019 09:21:17 7.5 C 20 %
2793 09-12-2019 09:31:17 7.4 C 23 %
2794 09-12-2019 09:41:17 7.5 C 21 %
2795 09-12-2019 09:51:17 7.7 C 21 %
2796 09-12-2019 10:01:17 7.9 C 21 %
2797 09-12-2019 10:11:17 7.9 C 21 %
2798 09-12-2019 10:21:17 7.9 C 20 %
2799 09-12-2019 10:31:18 7.9 C 21 %
2800 09-12-2019 10:41:18 7.9 C 21 %
Sensor: Nr:Datum:Temp:Feuchte:
Aussen-T/F 2801 09-12-2019 10:51:17 8.1 C 20 %
2802 09-12-2019 11:01:17 8 C 20 %
2803 09-12-2019 11:11:17 8.2 C 20 %
2804 09-12-2019 11:21:17 8.4 C 20 %
2805 09-12-2019 11:31:18 8.4 C 20 %
2806 09-12-2019 11:41:18 8.3 C 20 %
2807 09-12-2019 11:51:17 8.1 C 20 %
2808 09-12-2019 12:01:17 8.2 C 20 %
2809 09-12-2019 12:11:17 8 C 20 %
2810 09-12-2019 12:21:18 8.1 C 20 %
2811 09-12-2019 12:31:17 8.3 C 20 %
2812 09-12-2019 12:41:17 8.2 C 20 %
2813 09-12-2019 12:51:17 8.3 C 20 %
2814 09-12-2019 13:01:18 8.3 C 20 %
2815 09-12-2019 13:11:18 8.3 C 20 %
2816 09-12-2019 13:21:17 8.2 C 20 %
2817 09-12-2019 13:31:17 8.1 C 20 %
2818 09-12-2019 13:41:17 8.5 C 20 %
2819 09-12-2019 13:51:17 8.8 C 20 %
2820 09-12-2019 14:01:17 8.6 C 20 %
2821 09-12-2019 14:11:17 8.5 C 20 %
2822 09-12-2019 14:21:17 8.6 C 20 %
2823 09-12-2019 14:31:17 8.4 C 20 %
2824 09-12-2019 14:41:17 7.9 C 20 %
2825 09-12-2019 14:51:18 8.4 C 20 %
Sensor: Nr:Datum:Temp:Feuchte:
Aussen-T/F 2826 09-12-2019 15:01:17 7.9 C 20 %
2827 09-12-2019 15:11:17 7.3 C 25 %
2828 09-12-2019 15:21:17 7 C 27 %
2829 09-12-2019 15:31:18 7.1 C 26 %
2830 09-12-2019 15:41:18 7.1 C 25 %
2831 09-12-2019 15:51:17 7.4 C 23 %
2832 09-12-2019 16:01:18 7.5 C 20 %
2833 09-12-2019 16:11:18 7.5 C 20 %
2834 09-12-2019 16:21:17 7.6 C 20 %
2835 09-12-2019 16:31:18 7.3 C 20 %
2836 09-12-2019 16:41:18 7.4 C 20 %
2837 09-12-2019 16:51:17 7.3 C 20 %
2838 09-12-2019 17:01:18 7.1 C 20 %
2839 09-12-2019 17:11:18 7.2 C 20 %
2840 09-12-2019 17:21:17 6.7 C 25 %
2841 09-12-2019 17:31:17 6.1 C 32 %
2842 09-12-2019 17:41:17 5.9 C 36 %
2843 09-12-2019 17:51:17 6 C 34 %
2844 09-12-2019 18:01:18 6 C 30 %
2845 09-12-2019 18:11:18 6.1 C 31 %
2846 09-12-2019 18:21:17 6 C 33 %
2847 09-12-2019 18:31:17 5.8 C 35 %
2848 09-12-2019 18:41:17 5.7 C 37 %
2849 09-12-2019 18:51:18 5.7 C 38 %
2850 09-12-2019 19:01:17 5.6 C 35 %
Sensor: Nr:Datum:Temp:Feuchte:
Aussen-T/F 2851 09-12-2019 19:11:17 5.5 C 38 %
2852 09-12-2019 19:21:17 5.6 C 39 %
2853 09-12-2019 19:31:17 5.6 C 38 %
2854 09-12-2019 19:41:17 5.6 C 38 %
2855 09-12-2019 19:51:17 5.6 C 37 %
2856 09-12-2019 20:01:17 5.6 C 35 %
2857 09-12-2019 20:11:17 5.6 C 34 %
2858 09-12-2019 20:21:17 5.6 C 35 %
2859 09-12-2019 20:31:17 5.6 C 32 %
2860 09-12-2019 20:41:17 5.4 C 33 %
2861 09-12-2019 20:51:17 5.3 C 34 %
2862 09-12-2019 21:01:17 5.2 C 33 %
2863 09-12-2019 21:11:18 5.1 C 34 %
2864 09-12-2019 21:21:17 5.2 C 35 %
2865 09-12-2019 21:31:17 5.3 C 32 %
2866 09-12-2019 21:41:17 5.1 C 31 %
2867 09-12-2019 21:51:17 5 C 31 %
2868 09-12-2019 22:01:17 4.8 C 32 %
2869 09-12-2019 22:11:17 4.7 C 31 %
2870 09-12-2019 22:21:17 4.9 C 30 %
2871 09-12-2019 22:31:17 4.9 C 30 %
2872 09-12-2019 22:41:17 4.9 C 30 %
2873 09-12-2019 22:51:18 4.7 C 30 %
2874 09-12-2019 23:01:17 4.6 C 29 %
2875 09-12-2019 23:11:17 4.5 C 29 %
Sensor: Nr:Datum:Temp:Feuchte:
Aussen-T/F 2876 09-12-2019 23:21:17 4.1 C 30 %
2877 09-12-2019 23:31:18 4 C 30 %
2878 09-12-2019 23:41:18 4.1 C 29 %
2879 09-12-2019 23:51:17 4.1 C 29 %
2880 10-12-2019 00:01:17 3.7 C 30 %
2881 10-12-2019 00:11:17 4.1 C 28 %
2882 10-12-2019 00:21:17 3.4 C 30 %
2883 10-12-2019 00:31:17 3.6 C 30 %
2884 10-12-2019 00:41:17 3.1 C 31 %
2885 10-12-2019 00:51:17 3 C 31 %
2886 10-12-2019 01:01:17 2.4 C 33 %
2887 10-12-2019 01:11:17 2.4 C 36 %
2888 10-12-2019 01:21:17 2.5 C 36 %
2889 10-12-2019 01:31:18 2.8 C 34 %
2890 10-12-2019 01:41:18 2.4 C 34 %
2891 10-12-2019 01:51:17 2.4 C 33 %
2892 10-12-2019 02:01:18 2.7 C 33 %
2893 10-12-2019 02:11:18 2.9 C 32 %
2894 10-12-2019 02:21:17 2.3 C 33 %
2895 10-12-2019 02:31:17 2.1 C 35 %
2896 10-12-2019 02:41:17 1.7 C 37 %
2897 10-12-2019 02:51:17 1.6 C 39 %
2898 10-12-2019 03:01:17 1.8 C 40 %
2899 10-12-2019 03:11:17 1.8 C 40 %
2900 10-12-2019 03:21:17 1.8 C 40 %
Sensor: Nr:Datum:Temp:Feuchte:
Aussen-T/F 2901 10-12-2019 03:31:17 2 C 40 %
2902 10-12-2019 03:41:17 1.4 C 41 %
2903 10-12-2019 03:51:17 1.4 C 43 %
2904 10-12-2019 04:01:17 1.1 C 43 %
2905 10-12-2019 04:11:17 1.3 C 41 %
2906 10-12-2019 04:21:17 0.6 C 41 %
2907 10-12-2019 04:31:18 0.6 C 44 %
2908 10-12-2019 04:41:18 0.7 C 45 %
2909 10-12-2019 04:51:17 0.9 C 46 %
2910 10-12-2019 05:01:17 1.1 C 44 %
2911 10-12-2019 05:11:17 1.8 C 41 %
2912 10-12-2019 05:21:18 2.2 C 35 %
2913 10-12-2019 05:31:18 2 C 35 %
2914 10-12-2019 05:41:18 2 C 35 %
2915 10-12-2019 05:51:17 1.8 C 36 %
2916 10-12-2019 06:01:17 1.5 C 36 %
2917 10-12-2019 06:11:17 1.6 C 37 %
2918 10-12-2019 06:21:18 1.4 C 36 %
2919 10-12-2019 06:31:17 1.1 C 38 %
2920 10-12-2019 06:41:17 0.9 C 42 %
2921 10-12-2019 06:51:17 1.2 C 42 %
2922 10-12-2019 07:01:18 1.3 C 40 %
2923 10-12-2019 07:11:18 1.5 C 40 %
2924 10-12-2019 07:21:17 1.7 C 36 %
2925 10-12-2019 07:31:17 1.2 C 37 %
Sensor: Nr:Datum:Temp:Feuchte:
Aussen-T/F 2926 10-12-2019 07:41:17 0.8 C 41 %
2927 10-12-2019 07:51:17 0.8 C 41 %
2928 10-12-2019 08:01:17 0.7 C 41 %
2929 10-12-2019 08:11:17 0.8 C 41 %
2930 10-12-2019 08:21:17 0.4 C 42 %
2931 10-12-2019 08:31:18 0.6 C 42 %
2932 10-12-2019 08:41:18 0.4 C 42 %
2933 10-12-2019 08:51:17 0.4 C 43 %
2934 10-12-2019 09:01:17 0.1 C 42 %
2935 10-12-2019 09:11:17 0.5 C 44 %
2936 10-12-2019 09:21:17 0.8 C 44 %
2937 10-12-2019 09:31:17 1.4 C 42 %
2938 10-12-2019 09:41:17 1.7 C 39 %
2939 10-12-2019 09:51:17 1.8 C 39 %
2940 10-12-2019 10:01:17 2.2 C 36 %
2941 10-12-2019 10:11:17 2.5 C 35 %
2942 10-12-2019 10:21:17 2.7 C 33 %
2943 10-12-2019 10:31:17 2.7 C 33 %
2944 10-12-2019 10:41:17 2.5 C 33 %
2945 10-12-2019 10:51:17 2.4 C 35 %
2946 10-12-2019 11:01:17 2.4 C 34 %
2947 10-12-2019 11:11:17 2.5 C 34 %
2948 10-12-2019 11:21:17 2.3 C 35 %
2949 10-12-2019 11:31:18 2.2 C 36 %
2950 10-12-2019 11:41:18 2.9 C 34 %
Sensor: Nr:Datum:Temp:Feuchte:
Aussen-T/F 2951 10-12-2019 11:51:17 3.5 C 30 %
2952 10-12-2019 12:01:17 3.7 C 30 %
2953 10-12-2019 12:11:17 3.8 C 30 %
2954 10-12-2019 12:21:17 3.9 C 30 %
2955 10-12-2019 12:31:17 3.9 C 30 %
2956 10-12-2019 12:41:17 4.3 C 27 %
2957 10-12-2019 12:51:17 4.5 C 27 %
2958 10-12-2019 13:01:17 4.6 C 27 %
2959 10-12-2019 13:11:17 4.7 C 27 %
2960 10-12-2019 13:21:17 4.7 C 27 %
2961 10-12-2019 13:31:17 4.9 C 27 %
2962 10-12-2019 13:41:17 5.1 C 25 %
2963 10-12-2019 13:51:17 5 C 25 %
2964 10-12-2019 14:01:17 4.6 C 27 %
2965 10-12-2019 14:11:17 4.2 C 28 %
2966 10-12-2019 14:21:17 3.8 C 30 %
2967 10-12-2019 14:31:18 3.9 C 30 %
2968 10-12-2019 14:41:18 3.8 C 30 %
2969 10-12-2019 14:51:17 3.5 C 30 %
2970 10-12-2019 15:01:17 3.5 C 30 %
2971 10-12-2019 15:11:17 3.3 C 31 %
2972 10-12-2019 15:21:17 3.2 C 31 %
2973 10-12-2019 15:31:17 3.1 C 31 %
2974 10-12-2019 15:41:18 3.2 C 31 %
2975 10-12-2019 15:51:17 2.9 C 31 %
Sensor: Nr:Datum:Temp:Feuchte:
Aussen-T/F 2976 10-12-2019 16:01:17 2.4 C 32 %
2977 10-12-2019 16:11:17 3.1 C 31 %
2978 10-12-2019 16:21:17 3.4 C 30 %
2979 10-12-2019 16:31:17 3.5 C 28 %
2980 10-12-2019 16:41:17 3.3 C 28 %
2981 10-12-2019 16:51:17 3.3 C 26 %
2982 10-12-2019 17:01:17 2.8 C 27 %
2983 10-12-2019 17:11:17 2.7 C 27 %
2984 10-12-2019 17:21:18 2.7 C 27 %
2985 10-12-2019 17:31:17 2.7 C 27 %
2986 10-12-2019 17:41:17 2.6 C 27 %
2987 10-12-2019 17:51:17 2.4 C 28 %
2988 10-12-2019 18:01:17 2.3 C 27 %
2989 10-12-2019 18:11:17 1.7 C 31 %
2990 10-12-2019 18:21:17 1.9 C 32 %
2991 10-12-2019 18:31:17 1.8 C 33 %
2992 10-12-2019 18:41:17 1.7 C 34 %
2993 10-12-2019 18:51:17 1.6 C 35 %
2994 10-12-2019 19:01:17 1.5 C 36 %
2995 10-12-2019 19:11:17 1.5 C 36 %
2996 10-12-2019 19:21:17 1.6 C 36 %
2997 10-12-2019 19:31:17 1.5 C 36 %
2998 10-12-2019 19:41:18 1.7 C 36 %
2999 10-12-2019 19:51:17 1.7 C 35 %
3000 10-12-2019 20:01:17 2.2 C 32 %
Sensor: Nr:Datum:Temp:Feuchte:
Aussen-T/F 3001 10-12-2019 20:11:17 2.1 C 32 %
3002 10-12-2019 20:21:17 2.7 C 29 %
3003 10-12-2019 20:31:18 2.9 C 28 %
3004 10-12-2019 20:41:18 2.6 C 30 %
3005 10-12-2019 20:51:17 2.3 C 30 %
3006 10-12-2019 21:01:17 2.5 C 31 %
3007 10-12-2019 21:11:17 2.3 C 31 %
3008 10-12-2019 21:21:17 2.1 C 32 %
3009 10-12-2019 21:31:17 2 C 33 %
3010 10-12-2019 21:41:18 1.8 C 35 %
3011 10-12-2019 21:51:17 1.8 C 36 %
3012 10-12-2019 22:01:17 1.8 C 36 %
3013 10-12-2019 22:11:17 2.1 C 35 %
3014 10-12-2019 22:21:17 2.2 C 34 %
3015 10-12-2019 22:31:17 2.4 C 32 %
3016 10-12-2019 22:41:17 2.5 C 33 %
3017 10-12-2019 22:51:18 2.8 C 31 %
3018 10-12-2019 23:01:17 2.9 C 30 %
3019 10-12-2019 23:11:17 3 C 30 %
3020 10-12-2019 23:21:17 3 C 30 %
3021 10-12-2019 23:31:17 2.9 C 31 %
3022 10-12-2019 23:41:17 3.3 C 28 %
3023 10-12-2019 23:51:17 3.3 C 30 %
3024 11-12-2019 00:01:18 3.2 C 30 %
3025 11-12-2019 00:11:18 3.3 C 29 %
Sensor: Nr:Datum:Temp:Feuchte:
Aussen-T/F 3026 11-12-2019 00:21:17 3.4 C 28 %
3027 11-12-2019 00:31:17 3.4 C 29 %
3028 11-12-2019 00:41:17 3.5 C 27 %
3029 11-12-2019 00:51:17 3.4 C 27 %
3030 11-12-2019 01:01:17 3.5 C 25 %
3031 11-12-2019 01:11:17 3.4 C 27 %
3032 11-12-2019 01:21:18 3.4 C 28 %
3033 11-12-2019 01:31:17 3.4 C 29 %
3034 11-12-2019 01:41:17 3.2 C 30 %
3035 11-12-2019 01:51:17 3.1 C 32 %
3036 11-12-2019 02:01:17 3 C 33 %
3037 11-12-2019 02:11:17 2.9 C 33 %
3038 11-12-2019 02:21:17 2.9 C 32 %
3039 11-12-2019 02:31:18 2.8 C 34 %
3040 11-12-2019 02:41:18 2.9 C 31 %
3041 11-12-2019 02:51:17 3 C 30 %
3042 11-12-2019 03:01:18 3.1 C 30 %
3043 11-12-2019 03:11:18 3 C 32 %
3044 11-12-2019 03:21:17 2.9 C 30 %
3045 11-12-2019 03:31:17 3 C 30 %
3046 11-12-2019 03:41:17 3 C 35 %
3047 11-12-2019 03:51:17 2.8 C 36 %
3048 11-12-2019 04:01:17 2.7 C 35 %
3049 11-12-2019 04:11:17 2.8 C 35 %
3050 11-12-2019 04:21:17 2.8 C 35 %
Sensor: Nr:Datum:Temp:Feuchte:
Aussen-T/F 3051 11-12-2019 04:31:18 2.8 C 38 %
3052 11-12-2019 04:41:18 2.7 C 38 %
3053 11-12-2019 04:51:17 2.7 C 39 %
3054 11-12-2019 05:01:17 2.7 C 39 %
3055 11-12-2019 05:11:17 2.7 C 39 %
3056 11-12-2019 05:21:18 2.7 C 40 %
3057 11-12-2019 05:31:17 2.6 C 42 %
3058 11-12-2019 05:41:17 2.6 C 43 %
3059 11-12-2019 05:51:17 2.5 C 44 %
3060 11-12-2019 06:01:18 2.5 C 44 %
3061 11-12-2019 06:11:18 2.5 C 44 %
3062 11-12-2019 06:21:17 2.5 C 44 %
3063 11-12-2019 06:31:17 2.5 C 44 %
3064 11-12-2019 06:41:17 2.5 C 44 %
3065 11-12-2019 06:51:17 2.5 C 44 %
3066 11-12-2019 07:01:17 2.4 C 44 %
3067 11-12-2019 07:11:17 2.5 C 44 %
3068 11-12-2019 07:21:17 2.4 C 44 %
3069 11-12-2019 07:31:17 2.4 C 44 %
3070 11-12-2019 07:41:18 2.4 C 43 %
3071 11-12-2019 07:51:17 2.4 C 43 %
3072 11-12-2019 08:01:17 2.4 C 43 %
3073 11-12-2019 08:11:17 2.4 C 43 %
3074 11-12-2019 08:21:17 2.4 C 43 %
3075 11-12-2019 08:31:18 2.3 C 43 %
Sensor: Nr:Datum:Temp:Feuchte:
Aussen-T/F 3076 11-12-2019 08:41:18 2.3 C 43 %
3077 11-12-2019 08:51:17 2.3 C 43 %
3078 11-12-2019 09:01:18 2.3 C 43 %
3079 11-12-2019 09:11:18 2.4 C 43 %
3080 11-12-2019 09:21:17 2.5 C 43 %
3081 11-12-2019 09:31:17 2.5 C 43 %
3082 11-12-2019 09:41:17 2.5 C 43 %
3083 11-12-2019 09:51:17 2.5 C 43 %
3084 11-12-2019 10:01:17 2.6 C 43 %
3085 11-12-2019 10:11:17 2.7 C 43 %
3086 11-12-2019 10:21:17 2.7 C 42 %
3087 11-12-2019 10:31:17 2.7 C 42 %
3088 11-12-2019 10:41:17 2.8 C 41 %
3089 11-12-2019 10:51:17 3.1 C 40 %
3090 11-12-2019 11:01:17 3 C 39 %
3091 11-12-2019 11:11:17 3.1 C 39 %
3092 11-12-2019 11:21:17 3.2 C 39 %
3093 11-12-2019 11:31:17 3.1 C 38 %
3094 11-12-2019 11:41:17 3.1 C 38 %
3095 11-12-2019 11:51:17 3.2 C 39 %
3096 11-12-2019 12:01:18 3.2 C 39 %
3097 11-12-2019 12:11:18 3.1 C 39 %
3098 11-12-2019 12:21:17 3.1 C 39 %
3099 11-12-2019 12:31:17 3.1 C 40 %
3100 11-12-2019 12:41:17 3.1 C 40 %
Sensor: Nr:Datum:Temp:Feuchte:
Aussen-T/F 3101 11-12-2019 12:51:17 3.1 C 40 %
3102 11-12-2019 13:01:18 3.2 C 40 %
3103 11-12-2019 13:11:18 3.2 C 40 %
3104 11-12-2019 13:21:17 3.2 C 40 %
3105 11-12-2019 13:31:17 3.2 C 40 %
3106 11-12-2019 13:41:17 3.2 C 40 %
3107 11-12-2019 13:51:17 3.2 C 40 %
3108 11-12-2019 14:01:17 3.2 C 41 %
3109 11-12-2019 14:11:18 3.2 C 41 %
3110 11-12-2019 14:21:17 3.2 C 41 %
3111 11-12-2019 14:31:17 3.3 C 41 %
3112 11-12-2019 14:41:17 3.3 C 42 %
3113 11-12-2019 14:51:17 3.3 C 42 %
3114 11-12-2019 15:01:17 3.3 C 42 %
3115 11-12-2019 15:11:17 3.4 C 42 %
3116 11-12-2019 15:21:17 3.3 C 42 %
3117 11-12-2019 15:31:18 3.3 C 42 %
3118 11-12-2019 15:41:18 3.3 C 42 %
3119 11-12-2019 15:51:17 3.3 C 42 %
3120 11-12-2019 16:01:17 3.2 C 42 %
3121 11-12-2019 16:11:17 3.2 C 42 %
3122 11-12-2019 16:21:17 3.2 C 42 %
3123 11-12-2019 16:31:17 3.2 C 42 %
3124 11-12-2019 16:41:17 3.1 C 42 %
3125 11-12-2019 16:51:17 3.1 C 42 %
Sensor: Nr:Datum:Temp:Feuchte:
Aussen-T/F 3126 11-12-2019 17:01:17 3.1 C 43 %
3127 11-12-2019 17:11:17 3.1 C 42 %
3128 11-12-2019 17:21:17 3.1 C 42 %
3129 11-12-2019 17:31:17 3.1 C 42 %
3130 11-12-2019 17:41:17 3.1 C 42 %
3131 11-12-2019 17:51:18 3.2 C 43 %
3132 11-12-2019 18:01:17 3.2 C 43 %
3133 11-12-2019 18:11:17 3.3 C 43 %
3134 11-12-2019 18:21:17 3.3 C 43 %
3135 11-12-2019 18:31:18 3.4 C 43 %
3136 11-12-2019 18:41:18 3.4 C 43 %
3137 11-12-2019 18:51:17 3.5 C 43 %
3138 11-12-2019 19:01:17 3.5 C 42 %
3139 11-12-2019 19:11:17 3.5 C 42 %
3140 11-12-2019 19:21:18 3.5 C 42 %
3141 11-12-2019 19:31:17 3.5 C 42 %
3142 11-12-2019 19:41:17 3.6 C 42 %
3143 11-12-2019 19:51:18 3.6 C 42 %
3144 11-12-2019 20:01:17 3.6 C 42 %
3145 11-12-2019 20:11:17 3.7 C 42 %
3146 11-12-2019 20:21:17 3.8 C 42 %
3147 11-12-2019 20:31:18 3.8 C 42 %
3148 11-12-2019 20:41:18 3.9 C 42 %
3149 11-12-2019 20:51:17 4.1 C 41 %
3150 11-12-2019 21:01:17 4.1 C 40 %
Sensor: Nr:Datum:Temp:Feuchte:
Aussen-T/F 3151 11-12-2019 21:11:17 4.3 C 39 %
3152 11-12-2019 21:21:17 4.4 C 37 %
3153 11-12-2019 21:31:17 4.1 C 37 %
3154 11-12-2019 21:41:17 4.3 C 37 %
3155 11-12-2019 21:51:17 4.3 C 36 %
3156 11-12-2019 22:01:17 4.5 C 35 %
3157 11-12-2019 22:11:17 4.1 C 35 %
3158 11-12-2019 22:21:17 3.9 C 37 %
3159 11-12-2019 22:31:17 3.6 C 39 %
3160 11-12-2019 22:41:17 3.8 C 39 %
3161 11-12-2019 22:51:18 3.5 C 40 %
3162 11-12-2019 23:01:17 3.8 C 40 %
3163 11-12-2019 23:11:17 3.8 C 40 %
3164 11-12-2019 23:21:17 3.4 C 40 %
3165 11-12-2019 23:31:17 3 C 41 %
3166 11-12-2019 23:41:17 3.4 C 43 %
3167 11-12-2019 23:51:18 3.2 C 42 %
3168 12-12-2019 00:01:17 3 C 42 %
3169 12-12-2019 00:11:17 2.9 C 43 %
3170 12-12-2019 00:21:17 2.8 C 43 %
3171 12-12-2019 00:31:17 2.5 C 43 %
3172 12-12-2019 00:41:17 2.4 C 43 %
3173 12-12-2019 00:51:17 2.3 C 43 %
3174 12-12-2019 01:01:17 2.7 C 44 %
3175 12-12-2019 01:11:17 2.8 C 44 %
Sensor: Nr:Datum:Temp:Feuchte:
Aussen-T/F 3176 12-12-2019 01:21:18 2.6 C 43 %
3177 12-12-2019 01:31:17 2.2 C 43 %
3178 12-12-2019 01:41:17 2.5 C 43 %
3179 12-12-2019 01:51:18 2.1 C 43 %
3180 12-12-2019 02:01:17 1.8 C 44 %
3181 12-12-2019 02:11:17 1.6 C 44 %
3182 12-12-2019 02:21:17 1.7 C 44 %
3183 12-12-2019 02:31:18 1.6 C 44 %
3184 12-12-2019 02:41:18 2 C 43 %
3185 12-12-2019 02:51:17 2 C 43 %
3186 12-12-2019 03:01:17 2.3 C 43 %
3187 12-12-2019 03:11:17 2.4 C 43 %
3188 12-12-2019 03:21:17 2.5 C 43 %
3189 12-12-2019 03:31:17 2.4 C 43 %
3190 12-12-2019 03:41:17 2.5 C 43 %
3191 12-12-2019 03:51:17 2.7 C 43 %
3192 12-12-2019 04:01:17 2.6 C 43 %
3193 12-12-2019 04:11:17 2.7 C 43 %
3194 12-12-2019 04:21:17 2.8 C 43 %
3195 12-12-2019 04:31:17 2.8 C 43 %
3196 12-12-2019 04:41:17 2.9 C 43 %
3197 12-12-2019 04:51:17 2.4 C 42 %
3198 12-12-2019 05:01:17 2 C 42 %
3199 12-12-2019 05:11:17 2.1 C 42 %
3200 12-12-2019 05:21:17 2.2 C 42 %
Sensor: Nr:Datum:Temp:Feuchte:
Aussen-T/F 3201 12-12-2019 05:31:18 2.1 C 42 %
3202 12-12-2019 05:41:18 2.1 C 42 %
3203 12-12-2019 05:51:17 2.1 C 42 %
3204 12-12-2019 06:01:17 1.9 C 43 %
3205 12-12-2019 06:11:17 2 C 42 %
3206 12-12-2019 06:21:17 2.1 C 42 %
3207 12-12-2019 06:31:17 2.1 C 42 %
3208 12-12-2019 06:41:17 2.3 C 42 %
3209 12-12-2019 06:51:17 2.7 C 43 %
3210 12-12-2019 07:01:17 3 C 42 %
3211 12-12-2019 07:11:17 3 C 42 %
3212 12-12-2019 07:21:17 3 C 42 %
3213 12-12-2019 07:31:17 3 C 42 %
3214 12-12-2019 07:41:17 2.8 C 42 %
3215 12-12-2019 07:51:17 2.9 C 42 %
3216 12-12-2019 08:01:17 2.9 C 42 %
3217 12-12-2019 08:11:17 3.1 C 42 %
3218 12-12-2019 08:21:17 3.2 C 42 %
3219 12-12-2019 08:31:18 3.3 C 42 %
3220 12-12-2019 08:41:18 3.5 C 42 %
3221 12-12-2019 08:51:17 3.5 C 42 %
3222 12-12-2019 09:01:18 3.5 C 42 %
3223 12-12-2019 09:11:18 3.6 C 42 %
3224 12-12-2019 09:21:17 3.9 C 42 %
3225 12-12-2019 09:31:17 3.9 C 42 %
Sensor: Nr:Datum:Temp:Feuchte:
Aussen-T/F 3226 12-12-2019 09:41:17 3.7 C 41 %
3227 12-12-2019 09:51:17 3.5 C 41 %
3228 12-12-2019 10:01:17 3.9 C 41 %
3229 12-12-2019 10:11:17 4 C 40 %
3230 12-12-2019 10:21:18 4.4 C 37 %
3231 12-12-2019 10:31:17 4.6 C 35 %
3232 12-12-2019 10:41:17 4.7 C 32 %
3233 12-12-2019 10:51:17 4.8 C 31 %
3234 12-12-2019 11:01:18 4.7 C 32 %
3235 12-12-2019 11:11:18 4.6 C 31 %
3236 12-12-2019 11:21:17 4.4 C 31 %
3237 12-12-2019 11:31:17 4.4 C 32 %
3238 12-12-2019 11:41:17 4.7 C 31 %
3239 12-12-2019 11:51:18 4.9 C 29 %
3240 12-12-2019 12:01:17 5.1 C 29 %
3241 12-12-2019 12:11:17 5.1 C 27 %
3242 12-12-2019 12:21:17 5 C 26 %
3243 12-12-2019 12:31:18 4.7 C 27 %
3244 12-12-2019 12:41:18 4.7 C 28 %
3245 12-12-2019 12:51:17 4.7 C 27 %
3246 12-12-2019 13:01:17 4.6 C 28 %
3247 12-12-2019 13:11:18 5 C 26 %
3248 12-12-2019 13:21:17 4.8 C 27 %
3249 12-12-2019 13:31:17 4.6 C 26 %
3250 12-12-2019 13:41:17 4.2 C 26 %
Sensor: Nr:Datum:Temp:Feuchte:
Aussen-T/F 3251 12-12-2019 13:51:17 4.6 C 25 %
3252 12-12-2019 14:01:17 4.6 C 25 %
3253 12-12-2019 14:11:17 4.3 C 25 %
3254 12-12-2019 14:21:17 4 C 27 %
3255 12-12-2019 14:31:18 4.5 C 25 %
3256 12-12-2019 14:41:18 4.8 C 25 %
3257 12-12-2019 14:51:17 4.7 C 25 %
3258 12-12-2019 15:01:18 4 C 26 %
3259 12-12-2019 15:11:18 4.2 C 26 %
3260 12-12-2019 15:21:17 3.6 C 29 %
3261 12-12-2019 15:31:17 3.5 C 29 %
3262 12-12-2019 15:41:17 3.8 C 28 %
3263 12-12-2019 15:51:17 3.7 C 28 %
3264 12-12-2019 16:01:17 3.6 C 28 %
3265 12-12-2019 16:11:17 3.7 C 26 %
3266 12-12-2019 16:21:18 3.5 C 27 %
3267 12-12-2019 16:31:17 3.4 C 26 %
3268 12-12-2019 16:41:17 3.3 C 28 %
3269 12-12-2019 16:51:17 3.1 C 30 %
3270 12-12-2019 17:01:17 2.6 C 30 %
3271 12-12-2019 17:11:17 1.7 C 35 %
3272 12-12-2019 17:21:17 1.2 C 36 %
3273 12-12-2019 17:31:17 1.1 C 38 %
3274 12-12-2019 17:41:17 0.9 C 41 %
3275 12-12-2019 17:51:17 1 C 40 %
Sensor: Nr:Datum:Temp:Feuchte:
Aussen-T/F 3276 12-12-2019 18:01:17 1.1 C 40 %
3277 12-12-2019 18:11:17 1.1 C 40 %
3278 12-12-2019 18:21:17 1.1 C 40 %
3279 12-12-2019 18:31:17 1 C 40 %
3280 12-12-2019 18:41:17 0.9 C 41 %
3281 12-12-2019 18:51:17 0.7 C 41 %
3282 12-12-2019 19:01:17 0.7 C 41 %
3283 12-12-2019 19:11:17 0.6 C 41 %
3284 12-12-2019 19:21:17 0.6 C 42 %
3285 12-12-2019 19:31:17 0.6 C 42 %
3286 12-12-2019 19:41:17 0.7 C 42 %
3287 12-12-2019 19:51:17 0.7 C 41 %
3288 12-12-2019 20:01:17 0.6 C 41 %
3289 12-12-2019 20:11:17 0.6 C 41 %
3290 12-12-2019 20:21:17 0.6 C 41 %
3291 12-12-2019 20:31:17 0.6 C 41 %
3292 12-12-2019 20:41:17 0.6 C 41 %
3293 12-12-2019 20:51:17 1.3 C 42 %
3294 12-12-2019 21:01:17 1.6 C 38 %
3295 12-12-2019 21:11:17 1.6 C 36 %
3296 12-12-2019 21:21:17 1.3 C 36 %
3297 12-12-2019 21:31:17 1.3 C 35 %
3298 12-12-2019 21:41:17 1 C 35 %
3299 12-12-2019 21:51:17 0.7 C 37 %
3300 12-12-2019 22:01:17 1.2 C 37 %
Sensor: Nr:Datum:Temp:Feuchte:
Aussen-T/F 3301 12-12-2019 22:11:17 0.9 C 37 %
3302 12-12-2019 22:21:18 0.4 C 38 %
3303 12-12-2019 22:31:17 0.3 C 39 %
3304 12-12-2019 22:41:17 0.2 C 40 %
3305 12-12-2019 22:51:17 0.4 C 39 %
3306 12-12-2019 23:01:18 1.1 C 37 %
3307 12-12-2019 23:11:18 1.5 C 35 %
3308 12-12-2019 23:21:17 1.9 C 32 %
3309 12-12-2019 23:31:17 1.6 C 31 %
3310 12-12-2019 23:41:17 1.4 C 32 %
3311 12-12-2019 23:51:17 1.5 C 31 %
3312 13-12-2019 00:01:17 0.9 C 33 %
3313 13-12-2019 00:11:17 0.6 C 35 %
3314 13-12-2019 00:21:17 1 C 33 %
3315 13-12-2019 00:31:18 0.7 C 34 %
3316 13-12-2019 00:41:18 0.9 C 35 %
3317 13-12-2019 00:51:17 1.3 C 32 %
3318 13-12-2019 01:01:18 1.7 C 30 %
3319 13-12-2019 01:11:18 1.8 C 29 %
3320 13-12-2019 01:21:17 2 C 27 %
3321 13-12-2019 01:31:17 1.9 C 28 %
3322 13-12-2019 01:41:17 2 C 27 %
3323 13-12-2019 01:51:17 2 C 27 %
3324 13-12-2019 02:01:18 1.9 C 29 %
3325 13-12-2019 02:11:18 2 C 27 %
Sensor: Nr:Datum:Temp:Feuchte:
Aussen-T/F 3326 13-12-2019 02:21:17 2 C 27 %
3327 13-12-2019 02:31:17 2 C 27 %
3328 13-12-2019 02:41:17 2 C 27 %
3329 13-12-2019 02:51:17 2 C 27 %
3330 13-12-2019 03:01:17 1.8 C 29 %
3331 13-12-2019 03:11:17 1.8 C 30 %
3332 13-12-2019 03:21:17 1.7 C 30 %
3333 13-12-2019 03:31:17 1.6 C 30 %
3334 13-12-2019 03:41:17 1.7 C 30 %
3335 13-12-2019 03:51:17 1.6 C 31 %
3336 13-12-2019 04:01:17 1.4 C 32 %
3337 13-12-2019 04:11:17 1.5 C 32 %
3338 13-12-2019 04:21:17 1.6 C 32 %
3339 13-12-2019 04:31:17 1.6 C 32 %
3340 13-12-2019 04:41:17 1.6 C 32 %
3341 13-12-2019 04:51:17 1.4 C 34 %
3342 13-12-2019 05:01:17 1.4 C 35 %
3343 13-12-2019 05:11:17 1.5 C 34 %
3344 13-12-2019 05:21:17 1.5 C 34 %
3345 13-12-2019 05:31:18 1.7 C 33 %
3346 13-12-2019 05:41:18 1.7 C 32 %
3347 13-12-2019 05:51:17 1.8 C 33 %
3348 13-12-2019 06:01:17 1.9 C 32 %
3349 13-12-2019 06:11:17 2 C 31 %
3350 13-12-2019 06:21:17 2 C 31 %
Sensor: Nr:Datum:Temp:Feuchte:
Aussen-T/F 3351 13-12-2019 06:31:17 2 C 32 %
3352 13-12-2019 06:41:17 1.7 C 35 %
3353 13-12-2019 06:51:17 1.8 C 37 %
3354 13-12-2019 07:01:17 1.8 C 37 %
3355 13-12-2019 07:11:18 1.7 C 39 %
3356 13-12-2019 07:21:17 1.8 C 38 %
3357 13-12-2019 07:31:17 1.8 C 40 %
3358 13-12-2019 07:41:17 1.8 C 39 %
3359 13-12-2019 07:51:17 1.9 C 38 %
3360 13-12-2019 08:01:17 1.8 C 38 %
3361 13-12-2019 08:11:17 1.8 C 39 %
3362 13-12-2019 08:21:17 1.7 C 40 %
3363 13-12-2019 08:31:17 1.7 C 41 %
3364 13-12-2019 08:41:17 1.6 C 41 %
3365 13-12-2019 08:51:17 1.7 C 41 %
3366 13-12-2019 09:01:17 1.9 C 40 %
3367 13-12-2019 09:11:17 1.9 C 40 %
3368 13-12-2019 09:21:17 1.9 C 40 %
3369 13-12-2019 09:31:17 1.7 C 42 %
3370 13-12-2019 09:41:17 1.7 C 42 %
3371 13-12-2019 09:51:18 1.9 C 43 %
3372 13-12-2019 10:01:17 1.8 C 43 %
3373 13-12-2019 10:11:17 1.9 C 43 %
3374 13-12-2019 10:21:18 2 C 41 %
3375 13-12-2019 10:31:17 2.2 C 41 %
Sensor: Nr:Datum:Temp:Feuchte:
Aussen-T/F 3376 13-12-2019 10:41:17 2.3 C 41 %
3377 13-12-2019 10:51:18 2.3 C 41 %
3378 13-12-2019 11:01:17 2.4 C 41 %
3379 13-12-2019 11:11:17 2.3 C 40 %
3380 13-12-2019 11:21:17 2.3 C 40 %
3381 13-12-2019 11:31:17 2.4 C 41 %
3382 13-12-2019 11:41:17 2.5 C 41 %
3383 13-12-2019 11:51:18 2.8 C 42 %
3384 13-12-2019 12:01:17 3 C 41 %
3385 13-12-2019 12:11:17 3.1 C 39 %
3386 13-12-2019 12:21:17 3.2 C 38 %
3387 13-12-2019 12:31:17 3.5 C 38 %
3388 13-12-2019 12:41:17 3.5 C 38 %
3389 13-12-2019 12:51:18 3.6 C 38 %
3390 13-12-2019 13:01:18 3.8 C 39 %
3391 13-12-2019 13:11:18 4.1 C 37 %
3392 13-12-2019 13:21:17 4.6 C 38 %
3393 13-12-2019 13:31:17 5.2 C 35 %
3394 13-12-2019 13:41:17 5.7 C 35 %
3395 13-12-2019 13:51:17 6.4 C 31 %
3396 13-12-2019 14:01:17 6.7 C 30 %
3397 13-12-2019 14:11:17 7 C 28 %
3398 13-12-2019 14:21:17 6.8 C 29 %
3399 13-12-2019 14:31:17 6.8 C 28 %
3400 13-12-2019 14:41:17 6.7 C 28 %
Sensor: Nr:Datum:Temp:Feuchte:
Aussen-T/F 3401 13-12-2019 14:51:18 6.4 C 29 %
3402 13-12-2019 15:01:18 6.3 C 29 %
3403 13-12-2019 15:11:18 6.3 C 29 %
3404 13-12-2019 15:21:17 6.2 C 30 %
3405 13-12-2019 15:31:17 5.9 C 30 %
3406 13-12-2019 15:41:17 5.8 C 31 %
3407 13-12-2019 15:51:17 5.5 C 31 %
3408 13-12-2019 16:01:18 5.3 C 30 %
3409 13-12-2019 16:11:18 5.4 C 30 %
3410 13-12-2019 16:21:17 5.3 C 30 %
3411 13-12-2019 16:31:17 5.1 C 30 %
3412 13-12-2019 16:41:17 4.8 C 31 %
3413 13-12-2019 16:51:17 4.5 C 31 %
3414 13-12-2019 17:01:17 4.6 C 31 %
3415 13-12-2019 17:11:17 4.5 C 31 %
3416 13-12-2019 17:21:17 4.3 C 34 %
3417 13-12-2019 17:31:18 4.3 C 34 %
3418 13-12-2019 17:41:18 4.2 C 33 %
3419 13-12-2019 17:51:17 4 C 33 %
3420 13-12-2019 18:01:17 3.8 C 36 %
3421 13-12-2019 18:11:17 3.7 C 40 %
3422 13-12-2019 18:21:17 3.8 C 39 %
3423 13-12-2019 18:31:17 3.8 C 40 %
3424 13-12-2019 18:41:18 3.8 C 39 %
3425 13-12-2019 18:51:17 3.9 C 36 %
Sensor: Nr:Datum:Temp:Feuchte:
Aussen-T/F 3426 13-12-2019 19:01:17 3.9 C 36 %
3427 13-12-2019 19:11:17 3.9 C 35 %
3428 13-12-2019 19:21:17 4 C 34 %
3429 13-12-2019 19:31:17 4.1 C 35 %
3430 13-12-2019 19:41:17 4 C 36 %
3431 13-12-2019 19:51:17 4.6 C 32 %
3432 13-12-2019 20:01:17 4.6 C 32 %
3433 13-12-2019 20:11:17 4.8 C 31 %
3434 13-12-2019 20:21:17 4.7 C 31 %
3435 13-12-2019 20:31:17 4.7 C 31 %
3436 13-12-2019 20:41:17 4.7 C 32 %
3437 13-12-2019 20:51:17 4.5 C 32 %
3438 13-12-2019 21:01:17 4.3 C 34 %
3439 13-12-2019 21:11:17 4 C 36 %
3440 13-12-2019 21:21:17 4.5 C 35 %
3441 13-12-2019 21:31:18 4.4 C 33 %
3442 13-12-2019 21:41:18 4.4 C 35 %
3443 13-12-2019 21:51:17 4.6 C 32 %
3444 13-12-2019 22:01:17 4.6 C 31 %
3445 13-12-2019 22:11:17 4.6 C 30 %
3446 13-12-2019 22:21:17 4.7 C 30 %
3447 13-12-2019 22:31:18 4.7 C 30 %
3448 13-12-2019 22:41:18 3.8 C 34 %
3449 13-12-2019 22:51:17 3.8 C 36 %
3450 13-12-2019 23:01:17 4.5 C 32 %
Sensor: Nr:Datum:Temp:Feuchte:
Aussen-T/F 3451 13-12-2019 23:11:17 5.1 C 29 %
3452 13-12-2019 23:21:17 5.2 C 28 %
3453 13-12-2019 23:31:17 5.2 C 28 %
3454 13-12-2019 23:41:17 5 C 30 %
3455 13-12-2019 23:51:17 5 C 30 %
3456 14-12-2019 00:01:17 4.4 C 32 %
3457 14-12-2019 00:11:17 4.5 C 30 %
3458 14-12-2019 00:21:17 4.6 C 30 %
3459 14-12-2019 00:31:18 4.3 C 33 %
3460 14-12-2019 00:41:18 4.7 C 32 %
3461 14-12-2019 00:51:17 5.1 C 28 %
3462 14-12-2019 01:01:17 5.4 C 27 %
3463 14-12-2019 01:11:17 5.3 C 27 %
3464 14-12-2019 01:21:17 5.2 C 26 %
3465 14-12-2019 01:31:17 5.1 C 26 %
3466 14-12-2019 01:41:17 5.3 C 25 %
3467 14-12-2019 01:51:17 5.2 C 25 %
3468 14-12-2019 02:01:17 5 C 26 %
3469 14-12-2019 02:11:17 4.5 C 30 %
3470 14-12-2019 02:21:17 4.6 C 29 %
3471 14-12-2019 02:31:18 4.7 C 29 %
3472 14-12-2019 02:41:18 4.8 C 28 %
3473 14-12-2019 02:51:17 4.5 C 30 %
3474 14-12-2019 03:01:18 4.2 C 33 %
3475 14-12-2019 03:11:18 4.1 C 36 %
Sensor: Nr:Datum:Temp:Feuchte:
Aussen-T/F 3476 14-12-2019 03:21:17 3.9 C 38 %
3477 14-12-2019 03:31:17 3.9 C 39 %
3478 14-12-2019 03:41:17 3.9 C 36 %
3479 14-12-2019 03:51:18 3.8 C 36 %
3480 14-12-2019 04:01:17 3.8 C 40 %
3481 14-12-2019 04:11:17 3.8 C 41 %
3482 14-12-2019 04:21:17 3.7 C 42 %
3483 14-12-2019 04:31:18 3.5 C 42 %
3484 14-12-2019 04:41:18 3.5 C 42 %
3485 14-12-2019 04:51:17 3.4 C 42 %
3486 14-12-2019 05:01:17 3.4 C 41 %
3487 14-12-2019 05:11:17 3.4 C 41 %
3488 14-12-2019 05:21:17 3.4 C 42 %
3489 14-12-2019 05:31:18 3.4 C 42 %
3490 14-12-2019 05:41:18 3.4 C 43 %
3491 14-12-2019 05:51:17 3.4 C 43 %
3492 14-12-2019 06:01:18 3.4 C 42 %
3493 14-12-2019 06:11:18 3.7 C 43 %
3494 14-12-2019 06:21:17 4 C 42 %
3495 14-12-2019 06:31:17 5 C 40 %
3496 14-12-2019 06:41:17 5.2 C 39 %
3497 14-12-2019 06:51:18 5.6 C 36 %
3498 14-12-2019 07:01:17 5.6 C 36 %
3499 14-12-2019 07:11:18 5.7 C 36 %
3500 14-12-2019 07:21:17 5.8 C 36 %
Sensor: Nr:Datum:Temp:Feuchte:
Aussen-T/F 3501 14-12-2019 07:31:17 5.8 C 36 %
3502 14-12-2019 07:41:17 6.3 C 37 %
3503 14-12-2019 07:51:17 6.5 C 36 %
3504 14-12-2019 08:01:17 6.8 C 35 %
3505 14-12-2019 08:11:17 7 C 28 %
3506 14-12-2019 08:21:17 7.2 C 26 %
3507 14-12-2019 08:31:18 7.1 C 25 %
3508 14-12-2019 08:41:18 6.9 C 25 %
3509 14-12-2019 08:51:17 6.7 C 25 %
3510 14-12-2019 09:01:17 6.9 C 23 %
3511 14-12-2019 09:11:17 6.7 C 23 %
3512 14-12-2019 09:21:18 6.5 C 23 %
3513 14-12-2019 09:31:18 6.7 C 20 %
3514 14-12-2019 09:41:18 6.5 C 21 %
3515 14-12-2019 09:51:17 6.7 C 21 %
3516 14-12-2019 10:01:17 6.7 C 21 %
3517 14-12-2019 10:11:17 6.6 C 23 %
3518 14-12-2019 10:21:17 6.6 C 25 %
3519 14-12-2019 10:31:17 6.7 C 25 %
3520 14-12-2019 10:41:17 6.4 C 26 %
3521 14-12-2019 10:51:17 5.9 C 29 %
3522 14-12-2019 11:01:18 5.9 C 29 %
3523 14-12-2019 11:11:18 6.4 C 27 %
3524 14-12-2019 11:21:17 6.7 C 26 %
3525 14-12-2019 11:31:17 6.3 C 26 %
Sensor: Nr:Datum:Temp:Feuchte:
Aussen-T/F 3526 14-12-2019 11:41:17 6.4 C 25 %
3527 14-12-2019 11:51:17 6.9 C 20 %
3528 14-12-2019 12:01:17 7 C 20 %
3529 14-12-2019 12:11:17 7.2 C 20 %
3530 14-12-2019 12:21:18 7 C 20 %
3531 14-12-2019 12:31:17 7.3 C 20 %
3532 14-12-2019 12:41:17 7.6 C 20 %
3533 14-12-2019 12:51:17 7.8 C 20 %
3534 14-12-2019 13:01:17 7.9 C 20 %
3535 14-12-2019 13:11:17 8 C 20 %
3536 14-12-2019 13:21:17 8.4 C 20 %
3537 14-12-2019 13:31:17 8.4 C 20 %
3538 14-12-2019 13:41:17 8.3 C 20 %
3539 14-12-2019 13:51:17 8.4 C 20 %
3540 14-12-2019 14:01:18 8.5 C 20 %
3541 14-12-2019 14:11:18 8.4 C 20 %
3542 14-12-2019 14:21:17 8.4 C 20 %
3543 14-12-2019 14:31:18 8.7 C 20 %
3544 14-12-2019 14:41:18 8.8 C 20 %
3545 14-12-2019 14:51:18 8.6 C 20 %
3546 14-12-2019 15:01:17 7.3 C 23 %
3547 14-12-2019 15:11:17 6.8 C 28 %
3548 14-12-2019 15:21:17 6.6 C 30 %
3549 14-12-2019 15:31:17 6.7 C 28 %
3550 14-12-2019 15:41:18 6.8 C 28 %
Sensor: Nr:Datum:Temp:Feuchte:
Aussen-T/F 3551 14-12-2019 15:51:17 7.1 C 26 %
3552 14-12-2019 16:01:17 7 C 26 %
3553 14-12-2019 16:11:17 6.9 C 26 %
3554 14-12-2019 16:21:17 6.9 C 27 %
3555 14-12-2019 16:31:18 7.2 C 25 %
3556 14-12-2019 16:41:18 7.6 C 25 %
3557 14-12-2019 16:51:17 7.5 C 25 %
3558 14-12-2019 17:01:17 7.6 C 25 %
3559 14-12-2019 17:11:17 7.6 C 25 %
3560 14-12-2019 17:21:17 7.4 C 25 %
3561 14-12-2019 17:31:18 7.2 C 26 %
3562 14-12-2019 17:41:18 6.9 C 27 %
3563 14-12-2019 17:51:17 7.1 C 26 %
3564 14-12-2019 18:01:17 7.1 C 26 %
3565 14-12-2019 18:11:17 7.3 C 26 %
3566 14-12-2019 18:22:17 7.6 C 25 %
3567 14-12-2019 18:31:17 7.8 C 25 %
3568 14-12-2019 18:41:17 7.4 C 25 %
3569 14-12-2019 18:52:17 7 C 26 %
3570 14-12-2019 19:01:18 6.7 C 27 %
3571 14-12-2019 19:11:18 6.2 C 28 %
3572 14-12-2019 19:21:17 6.4 C 26 %
3573 14-12-2019 19:31:17 6.1 C 26 %
3574 14-12-2019 19:41:17 6.4 C 25 %
3575 14-12-2019 19:52:17 6.4 C 25 %
Sensor: Nr:Datum:Temp:Feuchte:
Aussen-T/F 3576 14-12-2019 20:01:18 6.6 C 25 %
3577 14-12-2019 20:11:18 6.7 C 25 %
3578 14-12-2019 20:21:17 6.9 C 25 %
3579 14-12-2019 20:31:17 5.8 C 27 %
3580 14-12-2019 20:41:17 5.9 C 27 %
3581 14-12-2019 20:52:17 7 C 25 %
3582 14-12-2019 21:01:17 7.2 C 25 %
3583 14-12-2019 21:11:17 7 C 25 %
3584 14-12-2019 21:22:17 7.1 C 25 %
3585 14-12-2019 21:31:18 6.7 C 26 %
3586 14-12-2019 21:41:18 6.8 C 26 %
3587 14-12-2019 21:52:17 6.9 C 26 %
3588 14-12-2019 22:02:17 7.1 C 25 %
3589 14-12-2019 22:11:17 6.8 C 26 %
3590 14-12-2019 22:22:17 6.9 C 26 %
3591 14-12-2019 22:31:17 7.3 C 25 %
3592 14-12-2019 22:41:17 7 C 26 %
3593 14-12-2019 22:52:17 7.3 C 25 %
3594 14-12-2019 23:02:17 7.1 C 25 %
3595 14-12-2019 23:12:17 7.3 C 25 %
3596 14-12-2019 23:22:17 7 C 26 %
3597 14-12-2019 23:31:18 7 C 26 %
3598 14-12-2019 23:41:18 7.4 C 25 %
3599 14-12-2019 23:51:18 7 C 25 %
3600 15-12-2019 00:02:17 6.4 C 27 %
Sensor: Nr:Datum:Temp:Feuchte:
Aussen-T/F 3601 15-12-2019 00:11:17 6 C 28 %
3602 15-12-2019 00:22:17 5.6 C 30 %
3603 15-12-2019 00:31:18 5.3 C 31 %
3604 15-12-2019 00:41:18 5.1 C 32 %
3605 15-12-2019 00:52:17 5.2 C 32 %
3606 15-12-2019 01:02:17 5.2 C 32 %
3607 15-12-2019 01:12:17 5.3 C 33 %
3608 15-12-2019 01:22:17 5.5 C 33 %
3609 15-12-2019 01:31:18 5.7 C 31 %
3610 15-12-2019 01:41:18 5.6 C 31 %
3611 15-12-2019 01:52:17 5.6 C 31 %
3612 15-12-2019 02:02:17 5.9 C 31 %
3613 15-12-2019 02:12:17 5.8 C 32 %
3614 15-12-2019 02:22:17 5.9 C 32 %
3615 15-12-2019 02:32:18 5.7 C 35 %
3616 15-12-2019 02:42:18 5.8 C 37 %
3617 15-12-2019 02:52:17 5.9 C 39 %
3618 15-12-2019 03:02:18 5.9 C 40 %
3619 15-12-2019 03:12:18 5.9 C 41 %
3620 15-12-2019 03:22:17 6 C 41 %
3621 15-12-2019 03:32:17 6 C 42 %
3622 15-12-2019 03:42:17 6.3 C 42 %
3623 15-12-2019 03:52:17 6.4 C 42 %
3624 15-12-2019 04:02:17 6.8 C 42 %
3625 15-12-2019 04:12:17 7.3 C 41 %
Sensor: Nr:Datum:Temp:Feuchte:
Aussen-T/F 3626 15-12-2019 04:22:17 7.3 C 41 %
3627 15-12-2019 04:32:17 7.5 C 41 %
3628 15-12-2019 04:42:17 7.9 C 40 %
3629 15-12-2019 04:52:17 8 C 39 %
3630 15-12-2019 05:02:17 8.2 C 38 %
3631 15-12-2019 05:12:17 8.2 C 37 %
3632 15-12-2019 05:22:17 8.4 C 37 %
3633 15-12-2019 05:32:18 9 C 34 %
3634 15-12-2019 05:42:18 10 C 30 %
3635 15-12-2019 05:52:17 10.2 C 30 %
3636 15-12-2019 06:02:17 10.3 C 29 %
3637 15-12-2019 06:12:17 10.3 C 29 %
3638 15-12-2019 06:22:17 10.1 C 29 %
3639 15-12-2019 06:32:17 10.5 C 28 %
3640 15-12-2019 06:42:17 10.8 C 27 %
3641 15-12-2019 06:52:17 10.7 C 27 %
3642 15-12-2019 07:02:17 10.5 C 27 %
3643 15-12-2019 07:12:17 10.9 C 27 %
3644 15-12-2019 07:22:17 10.3 C 27 %
3645 15-12-2019 07:32:17 10.6 C 27 %
3646 15-12-2019 07:42:17 10.5 C 27 %
3647 15-12-2019 07:52:17 10.7 C 27 %
3648 15-12-2019 08:02:17 10.7 C 27 %
3649 15-12-2019 08:12:17 11 C 26 %
3650 15-12-2019 08:22:17 10.9 C 27 %
Sensor: Nr:Datum:Temp:Feuchte:
Aussen-T/F 3651 15-12-2019 08:32:18 10.6 C 27 %
3652 15-12-2019 08:42:18 10.2 C 28 %
3653 15-12-2019 08:52:17 9.5 C 34 %
3654 15-12-2019 09:02:17 9.2 C 34 %
3655 15-12-2019 09:12:17 8.9 C 35 %
3656 15-12-2019 09:22:17 8.7 C 33 %
3657 15-12-2019 09:32:17 8.5 C 34 %
3658 15-12-2019 09:42:17 8.2 C 35 %
3659 15-12-2019 09:52:18 8 C 36 %
3660 15-12-2019 10:02:18 8.1 C 34 %
3661 15-12-2019 10:12:18 8.2 C 32 %
3662 15-12-2019 10:22:18 8.2 C 34 %
3663 15-12-2019 10:32:17 8.1 C 33 %
3664 15-12-2019 10:42:17 8.5 C 31 %
3665 15-12-2019 10:52:17 8.7 C 30 %
3666 15-12-2019 11:02:17 8.4 C 30 %
3667 15-12-2019 11:12:17 8.5 C 30 %
3668 15-12-2019 11:22:17 8.5 C 28 %
3669 15-12-2019 11:32:17 8.6 C 28 %
3670 15-12-2019 11:42:17 8.6 C 28 %
3671 15-12-2019 11:52:17 8.3 C 27 %
3672 15-12-2019 12:02:17 8.3 C 27 %
3673 15-12-2019 12:12:17 8.1 C 27 %
3674 15-12-2019 12:22:17 8.1 C 28 %
3675 15-12-2019 12:32:17 7.9 C 29 %
Sensor: Nr:Datum:Temp:Feuchte:
Aussen-T/F 3676 15-12-2019 12:42:17 8.2 C 28 %
3677 15-12-2019 12:52:18 8.4 C 28 %
3678 15-12-2019 13:02:18 8.7 C 27 %
3679 15-12-2019 13:12:18 9.1 C 25 %
3680 15-12-2019 13:22:17 9.3 C 23 %
3681 15-12-2019 13:32:17 9.2 C 21 %
3682 15-12-2019 13:42:17 9.2 C 20 %
3683 15-12-2019 13:52:18 9.2 C 20 %
3684 15-12-2019 14:02:17 9.2 C 20 %
3685 15-12-2019 14:12:17 9.3 C 20 %
3686 15-12-2019 14:22:17 9.3 C 20 %
3687 15-12-2019 14:32:17 9.1 C 20 %
3688 15-12-2019 14:42:17 9.1 C 20 %
3689 15-12-2019 14:52:17 9 C 20 %
3690 15-12-2019 15:02:17 9 C 20 %
3691 15-12-2019 15:12:17 8.9 C 20 %
3692 15-12-2019 15:22:17 8.9 C 20 %
3693 15-12-2019 15:32:17 8.8 C 20 %
3694 15-12-2019 15:42:17 8.7 C 20 %
3695 15-12-2019 15:52:17 8.7 C 20 %
3696 15-12-2019 16:02:17 8.4 C 20 %
3697 15-12-2019 16:12:17 8.2 C 20 %
3698 15-12-2019 16:22:18 8.4 C 20 %
3699 15-12-2019 16:32:17 7.9 C 20 %
3700 15-12-2019 16:42:17 7.6 C 20 %
Sensor: Nr:Datum:Temp:Feuchte:
Aussen-T/F 3701 15-12-2019 16:52:17 8 C 20 %
3702 15-12-2019 17:02:17 7.4 C 20 %
3703 15-12-2019 17:12:17 7.4 C 20 %
3704 15-12-2019 17:22:17 7.8 C 20 %
3705 15-12-2019 17:32:17 7.2 C 21 %
3706 15-12-2019 17:42:17 7.6 C 20 %
3707 15-12-2019 17:52:17 7.7 C 20 %
3708 15-12-2019 18:02:17 7.5 C 20 %
3709 15-12-2019 18:12:17 8.2 C 20 %
3710 15-12-2019 18:22:17 7.5 C 20 %
3711 15-12-2019 18:32:17 6.9 C 25 %
3712 15-12-2019 18:42:17 6.2 C 27 %
3713 15-12-2019 18:52:18 5.9 C 29 %
3714 15-12-2019 19:02:17 5.4 C 30 %
3715 15-12-2019 19:12:17 5.3 C 31 %
3716 15-12-2019 19:22:17 4.9 C 32 %
3717 15-12-2019 19:32:18 5.3 C 32 %
3718 15-12-2019 19:42:18 5 C 33 %
3719 15-12-2019 19:52:17 5.4 C 33 %
3720 15-12-2019 20:02:17 5.2 C 33 %
3721 15-12-2019 20:12:17 4.7 C 35 %
3722 15-12-2019 20:22:17 4.4 C 36 %
3723 15-12-2019 20:32:17 4.3 C 37 %
3724 15-12-2019 20:42:17 3.9 C 39 %
3725 15-12-2019 20:52:17 3.7 C 40 %
Sensor: Nr:Datum:Temp:Feuchte:
Aussen-T/F 3726 15-12-2019 21:02:17 3.5 C 41 %
3727 15-12-2019 21:12:17 3.3 C 41 %
3728 15-12-2019 21:22:17 3.1 C 41 %
3729 15-12-2019 21:32:18 2.8 C 42 %
3730 15-12-2019 21:42:18 2.9 C 43 %
3731 15-12-2019 21:52:17 3.3 C 43 %
3732 15-12-2019 22:02:17 3.3 C 44 %
3733 15-12-2019 22:12:17 3.3 C 43 %
3734 15-12-2019 22:22:17 3.5 C 43 %
3735 15-12-2019 22:32:17 3.5 C 43 %
3736 15-12-2019 22:42:17 3.4 C 43 %
3737 15-12-2019 22:52:18 3.3 C 43 %
3738 15-12-2019 23:02:17 3.5 C 43 %
3739 15-12-2019 23:12:18 3.6 C 43 %
3740 15-12-2019 23:22:17 3.7 C 43 %
3741 15-12-2019 23:32:18 3.5 C 42 %
3742 15-12-2019 23:42:18 3.3 C 42 %
3743 15-12-2019 23:52:17 3.8 C 43 %
3744 16-12-2019 00:02:17 4 C 42 %
3745 16-12-2019 00:12:17 4.4 C 42 %
3746 16-12-2019 00:22:17 4.4 C 42 %
3747 16-12-2019 00:32:17 4.5 C 42 %
3748 16-12-2019 00:42:17 4.5 C 42 %
3749 16-12-2019 00:52:18 4.7 C 42 %
3750 16-12-2019 01:02:17 5.1 C 41 %
Sensor: Nr:Datum:Temp:Feuchte:
Aussen-T/F 3751 16-12-2019 01:12:17 5 C 41 %
3752 16-12-2019 01:22:17 5.2 C 42 %
3753 16-12-2019 01:32:17 5.2 C 41 %
3754 16-12-2019 01:42:18 5.3 C 42 %
3755 16-12-2019 01:52:17 5.5 C 42 %
3756 16-12-2019 02:02:18 5.4 C 42 %
3757 16-12-2019 02:12:18 5.5 C 42 %
3758 16-12-2019 02:22:17 5.7 C 42 %
3759 16-12-2019 02:32:17 5.7 C 42 %
3760 16-12-2019 02:42:17 5.9 C 42 %
3761 16-12-2019 02:52:18 5.8 C 41 %
3762 16-12-2019 03:02:17 5.8 C 41 %
3763 16-12-2019 03:12:17 5.9 C 41 %
3764 16-12-2019 03:22:17 5.9 C 41 %
3765 16-12-2019 03:32:18 5.9 C 41 %
3766 16-12-2019 03:42:18 5.8 C 41 %
3767 16-12-2019 03:52:17 6 C 41 %
3768 16-12-2019 04:02:17 6 C 41 %
3769 16-12-2019 04:12:17 6 C 41 %
3770 16-12-2019 04:22:17 5.9 C 41 %
3771 16-12-2019 04:32:17 6.1 C 41 %
3772 16-12-2019 04:42:17 6.2 C 41 %
3773 16-12-2019 04:52:17 6.3 C 41 %
3774 16-12-2019 05:02:17 6.4 C 41 %
3775 16-12-2019 05:12:17 6.4 C 41 %
Sensor: Nr:Datum:Temp:Feuchte:
Aussen-T/F 3776 16-12-2019 05:22:17 6.5 C 41 %
3777 16-12-2019 05:32:17 6.6 C 41 %
3778 16-12-2019 05:42:17 6.6 C 41 %
3779 16-12-2019 05:52:17 6.8 C 41 %
3780 16-12-2019 06:02:17 6.9 C 41 %
3781 16-12-2019 06:12:17 6.9 C 41 %
3782 16-12-2019 06:22:17 6.8 C 40 %
3783 16-12-2019 06:32:17 6.7 C 40 %
3784 16-12-2019 06:42:17 6.8 C 40 %
3785 16-12-2019 06:52:17 6.8 C 40 %
3786 16-12-2019 07:02:17 6.8 C 40 %
3787 16-12-2019 07:12:17 6.7 C 40 %
3788 16-12-2019 07:22:17 6.8 C 40 %
3789 16-12-2019 07:32:18 6.9 C 41 %
3790 16-12-2019 07:42:18 6.9 C 41 %
3791 16-12-2019 07:52:17 7 C 40 %
3792 16-12-2019 08:02:17 7.1 C 40 %
3793 16-12-2019 08:12:17 7 C 40 %
3794 16-12-2019 08:22:17 7.1 C 40 %
3795 16-12-2019 08:32:17 7.1 C 40 %
3796 16-12-2019 08:42:17 7.1 C 40 %
3797 16-12-2019 08:52:17 7.2 C 40 %
3798 16-12-2019 09:02:17 7.3 C 40 %
3799 16-12-2019 09:12:17 7.5 C 40 %
3800 16-12-2019 09:22:18 7.4 C 40 %
Sensor: Nr:Datum:Temp:Feuchte:
Aussen-T/F 3801 16-12-2019 09:32:17 7.5 C 40 %
3802 16-12-2019 09:42:17 7.5 C 40 %
3803 16-12-2019 09:52:17 7.6 C 40 %
3804 16-12-2019 10:02:18 7.6 C 40 %
3805 16-12-2019 10:12:18 7.7 C 40 %
3806 16-12-2019 10:22:17 7.8 C 40 %
3807 16-12-2019 10:32:17 7.9 C 40 %
3808 16-12-2019 10:42:17 8.1 C 40 %
3809 16-12-2019 10:52:17 8.2 C 40 %
3810 16-12-2019 11:02:17 8.3 C 40 %
3811 16-12-2019 11:12:17 8.5 C 40 %
3812 16-12-2019 11:22:17 8.9 C 40 %
3813 16-12-2019 11:32:18 8.8 C 39 %
3814 16-12-2019 11:42:18 9.1 C 39 %
3815 16-12-2019 11:52:17 9.4 C 39 %
3816 16-12-2019 12:02:17 9.3 C 38 %
3817 16-12-2019 12:12:17 9.3 C 37 %
3818 16-12-2019 12:22:17 9.3 C 37 %
3819 16-12-2019 12:32:17 9.4 C 37 %
3820 16-12-2019 12:42:17 9.4 C 38 %
3821 16-12-2019 12:52:17 9.8 C 38 %
3822 16-12-2019 13:02:17 9.9 C 36 %
3823 16-12-2019 13:12:17 9.9 C 36 %
3824 16-12-2019 13:22:17 10 C 35 %
3825 16-12-2019 13:32:17 10.2 C 34 %
Sensor: Nr:Datum:Temp:Feuchte:
Aussen-T/F 3826 16-12-2019 13:42:17 10.2 C 35 %
3827 16-12-2019 13:52:18 10.3 C 34 %
3828 16-12-2019 14:02:17 10.1 C 34 %
3829 16-12-2019 14:12:17 10.2 C 34 %
3830 16-12-2019 14:22:17 10.3 C 34 %
3831 16-12-2019 14:32:17 10.2 C 33 %
3832 16-12-2019 14:42:17 10.1 C 34 %
3833 16-12-2019 14:52:18 10.1 C 34 %
3834 16-12-2019 15:02:17 9.9 C 35 %
3835 16-12-2019 15:12:17 9.8 C 35 %
3836 16-12-2019 15:22:17 9.6 C 36 %
3837 16-12-2019 15:32:18 9.3 C 37 %
3838 16-12-2019 15:42:18 9.1 C 39 %
3839 16-12-2019 15:52:17 9 C 40 %
3840 16-12-2019 16:02:17 8.7 C 40 %
3841 16-12-2019 16:12:17 8.5 C 40 %
3842 16-12-2019 16:22:17 8.4 C 40 %
3843 16-12-2019 16:32:18 8.2 C 41 %
3844 16-12-2019 16:42:18 8 C 40 %
3845 16-12-2019 16:52:17 7.7 C 41 %
3846 16-12-2019 17:02:17 7.4 C 41 %
3847 16-12-2019 17:12:17 7.3 C 41 %
3848 16-12-2019 17:22:17 7.5 C 41 %
3849 16-12-2019 17:32:17 7.3 C 41 %
3850 16-12-2019 17:42:17 7.2 C 41 %
Sensor: Nr:Datum:Temp:Feuchte:
Aussen-T/F 3851 16-12-2019 17:52:17 7 C 41 %
3852 16-12-2019 18:02:17 7.1 C 41 %
3853 16-12-2019 18:12:17 7.4 C 41 %
3854 16-12-2019 18:22:17 7.5 C 41 %
3855 16-12-2019 18:32:17 8.2 C 40 %
3856 16-12-2019 18:42:17 8.1 C 38 %
3857 16-12-2019 18:52:17 8.7 C 37 %
3858 16-12-2019 19:02:18 8.5 C 35 %
3859 16-12-2019 19:12:18 7.9 C 36 %
3860 16-12-2019 19:22:17 7.7 C 37 %
3861 16-12-2019 19:32:17 8.5 C 40 %
3862 16-12-2019 19:42:17 7.9 C 37 %
3863 16-12-2019 19:52:18 8 C 37 %
3864 16-12-2019 20:02:17 7.9 C 37 %
3865 16-12-2019 20:12:17 8.1 C 36 %
3866 16-12-2019 20:22:17 7.7 C 37 %
3867 16-12-2019 20:32:17 8 C 39 %
3868 16-12-2019 20:42:17 7.9 C 36 %
3869 16-12-2019 20:52:17 7.8 C 36 %
3870 16-12-2019 21:02:17 7.3 C 37 %
3871 16-12-2019 21:12:17 7.2 C 40 %
3872 16-12-2019 21:22:17 7.5 C 39 %
3873 16-12-2019 21:32:17 7.2 C 38 %
3874 16-12-2019 21:42:17 7 C 40 %
3875 16-12-2019 21:52:17 6.7 C 41 %
Sensor: Nr:Datum:Temp:Feuchte:
Aussen-T/F 3876 16-12-2019 22:02:17 6.9 C 41 %
3877 16-12-2019 22:12:17 7.5 C 40 %
3878 16-12-2019 22:22:17 7.4 C 38 %
3879 16-12-2019 22:32:17 7.9 C 37 %
3880 16-12-2019 22:42:17 7.8 C 36 %
3881 16-12-2019 22:52:18 7.3 C 37 %
3882 16-12-2019 23:02:17 7.3 C 39 %
3883 16-12-2019 23:12:17 7.3 C 39 %
3884 16-12-2019 23:22:17 7.5 C 40 %
3885 16-12-2019 23:32:17 7.6 C 39 %
3886 16-12-2019 23:42:17 7.6 C 39 %
3887 16-12-2019 23:52:18 7.8 C 39 %
3888 17-12-2019 00:02:17 7.6 C 37 %
3889 17-12-2019 00:12:17 7.5 C 38 %
3890 17-12-2019 00:22:17 7.6 C 38 %
3891 17-12-2019 00:32:18 7.3 C 39 %
3892 17-12-2019 00:42:18 7.2 C 40 %
3893 17-12-2019 00:52:17 7.4 C 39 %
3894 17-12-2019 01:02:17 7.2 C 39 %
3895 17-12-2019 01:12:17 7.4 C 40 %
3896 17-12-2019 01:22:17 7.8 C 39 %
3897 17-12-2019 01:32:17 7.3 C 37 %
3898 17-12-2019 01:42:17 7.4 C 38 %
3899 17-12-2019 01:52:17 7.4 C 37 %
3900 17-12-2019 02:02:18 7.4 C 37 %
Sensor: Nr:Datum:Temp:Feuchte:
Aussen-T/F 3901 17-12-2019 02:12:18 7.6 C 37 %
3902 17-12-2019 02:22:17 7.3 C 37 %
3903 17-12-2019 02:32:17 7.1 C 37 %
3904 17-12-2019 02:42:17 7.5 C 36 %
3905 17-12-2019 02:52:18 7.6 C 36 %
3906 17-12-2019 03:02:17 8 C 35 %
3907 17-12-2019 03:12:17 8.1 C 35 %
3908 17-12-2019 03:22:17 8.4 C 35 %
3909 17-12-2019 03:32:17 8.8 C 32 %
3910 17-12-2019 03:42:17 8.9 C 32 %
3911 17-12-2019 03:52:18 8.8 C 32 %
3912 17-12-2019 04:02:17 8.5 C 32 %
3913 17-12-2019 04:12:17 8.5 C 32 %
3914 17-12-2019 04:22:17 8.4 C 32 %
3915 17-12-2019 04:32:17 8.4 C 32 %
3916 17-12-2019 04:42:17 8 C 32 %
3917 17-12-2019 04:52:18 8.3 C 33 %
3918 17-12-2019 05:02:17 8.5 C 33 %
3919 17-12-2019 05:12:17 8.5 C 33 %
3920 17-12-2019 05:22:17 8.2 C 33 %
3921 17-12-2019 05:32:17 8.1 C 34 %
3922 17-12-2019 05:42:17 7.9 C 35 %
3923 17-12-2019 05:52:17 7.9 C 36 %
3924 17-12-2019 06:02:17 7.8 C 36 %
3925 17-12-2019 06:12:17 7.3 C 36 %
Sensor: Nr:Datum:Temp:Feuchte:
Aussen-T/F 3926 17-12-2019 06:22:18 7.3 C 38 %
3927 17-12-2019 06:32:17 7.5 C 38 %
3928 17-12-2019 06:42:17 7.6 C 36 %
3929 17-12-2019 06:52:17 7.6 C 38 %
3930 17-12-2019 07:02:17 7.7 C 36 %
3931 17-12-2019 07:12:17 7.6 C 37 %
3932 17-12-2019 07:22:17 7.5 C 36 %
3933 17-12-2019 07:32:18 7 C 37 %
3934 17-12-2019 07:42:18 7.4 C 38 %
3935 17-12-2019 07:52:17 7.2 C 36 %
3936 17-12-2019 08:02:17 7.2 C 36 %
3937 17-12-2019 08:12:17 6.9 C 37 %
3938 17-12-2019 08:22:17 6.9 C 38 %
3939 17-12-2019 08:32:17 7 C 38 %
3940 17-12-2019 08:42:18 6.9 C 37 %
3941 17-12-2019 08:52:17 6.9 C 37 %
3942 17-12-2019 09:02:17 6.5 C 38 %
3943 17-12-2019 09:12:17 6.4 C 39 %
3944 17-12-2019 09:22:18 6.5 C 40 %
3945 17-12-2019 09:32:17 6.4 C 40 %
3946 17-12-2019 09:42:17 6.6 C 40 %
3947 17-12-2019 09:52:17 6.3 C 39 %
3948 17-12-2019 10:02:18 6.4 C 40 %
3949 17-12-2019 10:12:18 6.4 C 40 %
3950 17-12-2019 10:22:17 6.4 C 39 %
Sensor: Nr:Datum:Temp:Feuchte:
Aussen-T/F 3951 17-12-2019 10:32:17 6.8 C 40 %
3952 17-12-2019 10:42:17 7.2 C 37 %
3953 17-12-2019 10:52:17 8 C 36 %
3954 17-12-2019 11:02:17 8.6 C 34 %
3955 17-12-2019 11:12:17 8.5 C 32 %
3956 17-12-2019 11:22:17 8.7 C 32 %
3957 17-12-2019 11:32:17 9 C 32 %
3958 17-12-2019 11:42:17 9.1 C 32 %
3959 17-12-2019 11:52:17 9 C 32 %
3960 17-12-2019 12:02:17 9 C 34 %
3961 17-12-2019 12:12:17 9.2 C 34 %
3962 17-12-2019 12:22:17 9.5 C 33 %
3963 17-12-2019 12:32:17 9.7 C 32 %
3964 17-12-2019 12:42:17 9.8 C 32 %
3965 17-12-2019 12:52:17 9.6 C 32 %
3966 17-12-2019 13:02:17 10.1 C 31 %
3967 17-12-2019 13:12:17 10.4 C 30 %
3968 17-12-2019 13:22:17 10.6 C 30 %
3969 17-12-2019 13:32:17 11 C 29 %
3970 17-12-2019 13:42:17 11.6 C 28 %
3971 17-12-2019 13:52:18 12.3 C 26 %
3972 17-12-2019 14:02:17 12.5 C 26 %
3973 17-12-2019 14:12:17 12.4 C 26 %
3974 17-12-2019 14:22:17 11.6 C 27 %
3975 17-12-2019 14:32:17 11.4 C 27 %
Sensor: Nr:Datum:Temp:Feuchte:
Aussen-T/F 3976 17-12-2019 14:42:17 11.5 C 27 %
3977 17-12-2019 14:52:17 11.8 C 27 %
3978 17-12-2019 15:02:17 12 C 26 %
3979 17-12-2019 15:12:17 12 C 26 %
3980 17-12-2019 15:22:17 11.8 C 27 %
3981 17-12-2019 15:32:17 11.8 C 27 %
3982 17-12-2019 15:42:17 12.3 C 25 %
3983 17-12-2019 15:52:18 12.2 C 25 %
3984 17-12-2019 16:02:17 12.4 C 25 %
3985 17-12-2019 16:12:17 12.4 C 25 %
3986 17-12-2019 16:22:17 12.5 C 25 %
3987 17-12-2019 16:32:18 12.6 C 25 %
3988 17-12-2019 16:42:18 12.2 C 25 %
3989 17-12-2019 16:52:17 11.8 C 25 %
3990 17-12-2019 17:02:17 11.2 C 26 %
3991 17-12-2019 17:12:18 11.5 C 25 %
3992 17-12-2019 17:22:17 12 C 24 %
3993 17-12-2019 17:32:18 13.1 C 20 %
3994 17-12-2019 17:42:18 13.4 C 20 %
3995 17-12-2019 17:52:17 13.8 C 20 %
3996 17-12-2019 18:02:17 13.4 C 20 %
3997 17-12-2019 18:12:17 13.2 C 20 %
3998 17-12-2019 18:22:17 13.6 C 20 %
3999 17-12-2019 18:32:17 13.7 C 20 %
4000 17-12-2019 18:42:17 13.1 C 21 %
Sensor: Nr:Datum:Temp:Feuchte:
Aussen-T/F 4001 17-12-2019 18:52:17 12.7 C 25 %
4002 17-12-2019 19:02:17 12.8 C 25 %
4003 17-12-2019 19:12:17 13.1 C 22 %
4004 17-12-2019 19:22:17 12.8 C 25 %
4005 17-12-2019 19:32:18 11.7 C 29 %
4006 17-12-2019 19:42:18 11.6 C 29 %
4007 17-12-2019 19:52:17 11.6 C 30 %
4008 17-12-2019 20:02:18 11.6 C 30 %
4009 17-12-2019 20:12:18 11.5 C 31 %
4010 17-12-2019 20:22:17 11.6 C 31 %
4011 17-12-2019 20:32:17 11.3 C 33 %
4012 17-12-2019 20:42:17 11.2 C 35 %
4013 17-12-2019 20:52:17 11 C 36 %
4014 17-12-2019 21:02:17 10.9 C 36 %
4015 17-12-2019 21:12:17 10.5 C 38 %
4016 17-12-2019 21:22:17 10.3 C 39 %
4017 17-12-2019 21:32:17 10.4 C 38 %
4018 17-12-2019 21:42:17 11.5 C 31 %
4019 17-12-2019 21:52:17 11.3 C 31 %
4020 17-12-2019 22:02:17 13 C 25 %
4021 17-12-2019 22:12:17 12.5 C 26 %
4022 17-12-2019 22:22:17 13.1 C 25 %
4023 17-12-2019 22:32:17 13.4 C 25 %
4024 17-12-2019 22:42:17 13.2 C 25 %
4025 17-12-2019 22:52:17 13.1 C 25 %
Sensor: Nr:Datum:Temp:Feuchte:
Aussen-T/F 4026 17-12-2019 23:02:17 12.4 C 26 %
4027 17-12-2019 23:12:17 11.9 C 29 %
4028 17-12-2019 23:22:17 11.3 C 30 %
4029 17-12-2019 23:32:17 11.1 C 31 %
4030 17-12-2019 23:42:17 11 C 30 %
4031 17-12-2019 23:52:17 10.8 C 33 %
4032 18-12-2019 00:02:17 10.4 C 35 %
4033 18-12-2019 00:12:17 10.4 C 34 %
4034 18-12-2019 00:22:17 10.5 C 34 %
4035 18-12-2019 00:32:18 10.9 C 31 %
4036 18-12-2019 00:42:18 11 C 30 %
4037 18-12-2019 00:52:17 11 C 30 %
4038 18-12-2019 01:02:17 10.8 C 30 %
4039 18-12-2019 01:12:17 11 C 29 %
4040 18-12-2019 01:22:17 11.1 C 29 %
4041 18-12-2019 01:32:18 10.9 C 30 %
4042 18-12-2019 01:42:18 10.4 C 30 %
4043 18-12-2019 01:52:17 10.8 C 30 %
4044 18-12-2019 02:02:17 11.1 C 30 %
4045 18-12-2019 02:12:17 11.1 C 29 %
4046 18-12-2019 02:22:17 11.2 C 30 %
4047 18-12-2019 02:32:17 11.3 C 29 %
4048 18-12-2019 02:42:18 10.9 C 30 %
4049 18-12-2019 02:52:17 10.9 C 31 %
4050 18-12-2019 03:02:17 10.6 C 33 %
Sensor: Nr:Datum:Temp:Feuchte:
Aussen-T/F 4051 18-12-2019 03:12:17 10.3 C 35 %
4052 18-12-2019 03:22:18 10.3 C 37 %
4053 18-12-2019 03:32:17 10.1 C 37 %
4054 18-12-2019 03:42:17 10 C 38 %
4055 18-12-2019 03:52:18 10.1 C 38 %
4056 18-12-2019 04:02:18 10 C 38 %
4057 18-12-2019 04:12:18 9.9 C 38 %
4058 18-12-2019 04:22:17 9.8 C 35 %
4059 18-12-2019 04:32:18 9.6 C 34 %
4060 18-12-2019 04:42:18 9.5 C 33 %
4061 18-12-2019 04:52:17 9.3 C 33 %
4062 18-12-2019 05:02:18 9.2 C 33 %
4063 18-12-2019 05:12:18 9.1 C 33 %
4064 18-12-2019 05:22:17 8.8 C 35 %
4065 18-12-2019 05:32:17 8.7 C 36 %
4066 18-12-2019 05:42:17 8.2 C 36 %
4067 18-12-2019 05:52:17 8.2 C 39 %
4068 18-12-2019 06:02:18 8.1 C 39 %
4069 18-12-2019 06:12:18 8 C 37 %
4070 18-12-2019 06:22:17 8 C 37 %
4071 18-12-2019 06:32:18 7.9 C 37 %
4072 18-12-2019 06:42:18 7.5 C 37 %
4073 18-12-2019 06:52:17 7.4 C 39 %
4074 18-12-2019 07:02:17 7.2 C 40 %
4075 18-12-2019 07:12:17 7.3 C 40 %
Sensor: Nr:Datum:Temp:Feuchte:
Aussen-T/F 4076 18-12-2019 07:22:17 7.3 C 40 %
4077 18-12-2019 07:32:17 7.1 C 39 %
4078 18-12-2019 07:42:17 6.8 C 40 %
4079 18-12-2019 07:52:17 6.9 C 41 %
4080 18-12-2019 08:02:17 6.7 C 41 %
4081 18-12-2019 08:12:17 6.5 C 41 %
4082 18-12-2019 08:22:17 6.5 C 41 %
4083 18-12-2019 08:32:17 6.3 C 41 %
4084 18-12-2019 08:42:17 6.4 C 42 %
4085 18-12-2019 08:52:17 6.6 C 42 %
4086 18-12-2019 09:02:17 6.5 C 41 %
4087 18-12-2019 09:12:17 6.1 C 40 %
4088 18-12-2019 09:22:17 6 C 41 %
4089 18-12-2019 09:32:17 6.5 C 42 %
4090 18-12-2019 09:42:17 6.7 C 42 %
4091 18-12-2019 09:52:17 6.9 C 41 %
4092 18-12-2019 10:02:17 7 C 40 %
4093 18-12-2019 10:12:18 7.1 C 40 %
4094 18-12-2019 10:22:17 7.5 C 38 %
4095 18-12-2019 10:32:17 7.5 C 36 %
4096 18-12-2019 10:42:17 7.4 C 36 %
4097 18-12-2019 10:52:17 6.9 C 38 %
4098 18-12-2019 11:02:17 6.8 C 38 %
4099 18-12-2019 11:12:17 6.8 C 38 %
4100 18-12-2019 11:22:17 6.6 C 38 %
Sensor: Nr:Datum:Temp:Feuchte:
Aussen-T/F 4101 18-12-2019 11:32:18 6.7 C 39 %
4102 18-12-2019 11:42:18 6.9 C 38 %
4103 18-12-2019 11:52:17 7.6 C 35 %
4104 18-12-2019 12:02:17 8.1 C 33 %
4105 18-12-2019 12:12:17 8 C 32 %
4106 18-12-2019 12:22:17 8.3 C 31 %
4107 18-12-2019 12:32:17 8.6 C 30 %
4108 18-12-2019 12:42:17 8.8 C 29 %
4109 18-12-2019 12:52:17 8.7 C 29 %
4110 18-12-2019 13:02:17 8.4 C 30 %
4111 18-12-2019 13:12:17 8.2 C 30 %
4112 18-12-2019 13:22:17 7.9 C 31 %
4113 18-12-2019 13:32:18 7.8 C 32 %
4114 18-12-2019 13:42:18 7.7 C 33 %
4115 18-12-2019 13:52:17 7.8 C 32 %
4116 18-12-2019 14:02:18 7.8 C 33 %
4117 18-12-2019 14:12:18 7.7 C 33 %
4118 18-12-2019 14:22:17 7.5 C 34 %
4119 18-12-2019 14:32:17 7.3 C 35 %
4120 18-12-2019 14:42:17 7.2 C 35 %
4121 18-12-2019 14:52:17 7.2 C 35 %
4122 18-12-2019 15:02:17 7.2 C 35 %
4123 18-12-2019 15:12:17 7 C 36 %
4124 18-12-2019 15:22:17 7 C 36 %
4125 18-12-2019 15:32:17 6.7 C 37 %
Sensor: Nr:Datum:Temp:Feuchte:
Aussen-T/F 4126 18-12-2019 15:42:17 6.8 C 37 %
4127 18-12-2019 15:52:17 6.7 C 36 %
4128 18-12-2019 16:02:17 6.6 C 36 %
4129 18-12-2019 16:12:17 6.5 C 36 %
4130 18-12-2019 16:22:17 6.4 C 36 %
4131 18-12-2019 16:32:17 6 C 36 %
4132 18-12-2019 16:42:17 5.8 C 37 %
4133 18-12-2019 16:52:17 5.7 C 39 %
4134 18-12-2019 17:02:17 5.3 C 38 %
4135 18-12-2019 17:12:17 4.9 C 40 %
4136 18-12-2019 17:22:17 5 C 42 %
4137 18-12-2019 17:32:17 4.4 C 41 %
4138 18-12-2019 17:42:17 4.2 C 42 %
4139 18-12-2019 17:52:18 4.1 C 42 %
4140 18-12-2019 18:02:17 4.1 C 43 %
4141 18-12-2019 18:12:17 4.1 C 43 %
4142 18-12-2019 18:22:17 4.4 C 43 %
4143 18-12-2019 18:32:17 4.5 C 43 %
4144 18-12-2019 18:42:17 4.3 C 42 %
4145 18-12-2019 18:52:17 4.6 C 43 %
4146 18-12-2019 19:02:17 5 C 42 %
4147 18-12-2019 19:12:17 4.7 C 42 %
4148 18-12-2019 19:22:17 4.3 C 42 %
4149 18-12-2019 19:32:18 4.9 C 43 %
4150 18-12-2019 19:42:18 4.7 C 42 %
Sensor: Nr:Datum:Temp:Feuchte:
Aussen-T/F 4151 18-12-2019 19:52:17 4.6 C 42 %
4152 18-12-2019 20:02:17 5 C 42 %
4153 18-12-2019 20:12:17 5 C 41 %
4154 18-12-2019 20:22:17 4.5 C 41 %
4155 18-12-2019 20:32:17 4.5 C 41 %
4156 18-12-2019 20:42:18 4.1 C 41 %
4157 18-12-2019 20:52:17 3.9 C 42 %
4158 18-12-2019 21:02:17 3.7 C 43 %
4159 18-12-2019 21:12:17 3.6 C 42 %
4160 18-12-2019 21:22:17 3.6 C 43 %
4161 18-12-2019 21:32:17 3.7 C 43 %
4162 18-12-2019 21:42:17 3.6 C 43 %
4163 18-12-2019 21:52:17 3.4 C 43 %
4164 18-12-2019 22:02:17 3.1 C 43 %
4165 18-12-2019 22:12:17 3.1 C 43 %
4166 18-12-2019 22:22:17 2.7 C 43 %
4167 18-12-2019 22:32:17 2.6 C 43 %
4168 18-12-2019 22:42:17 2.5 C 43 %
4169 18-12-2019 22:52:17 2.4 C 43 %
4170 18-12-2019 23:02:17 2.4 C 43 %
4171 18-12-2019 23:12:17 2.3 C 43 %
4172 18-12-2019 23:22:18 2.3 C 43 %
4173 18-12-2019 23:32:17 2 C 43 %
4174 18-12-2019 23:42:17 2 C 43 %
4175 18-12-2019 23:52:17 2 C 43 %
Sensor: Nr:Datum:Temp:Feuchte:
G-T/H 1 20-11-2019 00:09:17 9.2 C 71 %
2 20-11-2019 00:19:17 9.2 C 71 %
3 20-11-2019 00:29:17 9.2 C 71 %
4 20-11-2019 00:39:17 9.2 C 71 %
5 20-11-2019 00:49:17 9.2 C 71 %
6 20-11-2019 00:59:17 9.2 C 71 %
7 20-11-2019 01:09:17 9.2 C 71 %
8 20-11-2019 01:19:17 9.2 C 71 %
9 20-11-2019 01:29:17 9.1 C 71 %
10 20-11-2019 01:39:17 9.1 C 71 %
11 20-11-2019 01:49:17 9.2 C 71 %
12 20-11-2019 01:59:17 9.1 C 71 %
13 20-11-2019 02:09:17 9.1 C 71 %
14 20-11-2019 02:19:17 9.1 C 71 %
15 20-11-2019 02:29:17 9.1 C 71 %
16 20-11-2019 02:39:17 9.1 C 71 %
17 20-11-2019 02:49:17 9.1 C 71 %
18 20-11-2019 02:59:17 9.1 C 71 %
19 20-11-2019 03:09:17 9.1 C 71 %
20 20-11-2019 03:19:17 9.1 C 71 %
21 20-11-2019 03:29:17 9.1 C 70 %
22 20-11-2019 03:39:17 9.1 C 70 %
23 20-11-2019 03:49:17 9.1 C 70 %
24 20-11-2019 03:59:17 9 C 70 %
25 20-11-2019 04:09:17 9 C 70 %
Sensor: Nr:Datum:Temp:Feuchte:
G-T/H 26 20-11-2019 04:19:17 9 C 70 %
27 20-11-2019 04:29:17 9 C 70 %
28 20-11-2019 04:39:17 9 C 70 %
29 20-11-2019 04:49:17 9 C 70 %
30 20-11-2019 04:59:17 9 C 70 %
31 20-11-2019 05:09:17 9 C 70 %
32 20-11-2019 05:19:17 9 C 70 %
33 20-11-2019 05:29:17 9 C 70 %
34 20-11-2019 05:39:17 9 C 70 %
35 20-11-2019 05:49:17 9 C 70 %
36 20-11-2019 05:59:17 9 C 70 %
37 20-11-2019 06:09:17 8.9 C 71 %
38 20-11-2019 06:19:17 9 C 70 %
39 20-11-2019 06:29:17 8.9 C 71 %
40 20-11-2019 06:39:17 8.9 C 71 %
41 20-11-2019 06:49:17 8.9 C 71 %
42 20-11-2019 06:59:17 8.9 C 71 %
43 20-11-2019 07:09:17 8.9 C 71 %
44 20-11-2019 07:19:17 8.9 C 71 %
45 20-11-2019 07:29:17 8.9 C 71 %
46 20-11-2019 07:39:18 8.9 C 71 %
47 20-11-2019 07:49:17 8.9 C 71 %
48 20-11-2019 07:59:17 8.9 C 71 %
49 20-11-2019 08:09:17 8.9 C 71 %
50 20-11-2019 08:19:17 8.9 C 71 %
Sensor: Nr:Datum:Temp:Feuchte:
G-T/H 51 20-11-2019 08:29:17 8.9 C 71 %
52 20-11-2019 08:39:17 8.8 C 71 %
53 20-11-2019 08:49:17 8.9 C 71 %
54 20-11-2019 08:59:17 8.9 C 71 %
55 20-11-2019 09:09:17 8.9 C 71 %
56 20-11-2019 09:19:17 8.8 C 71 %
57 20-11-2019 09:29:17 8.9 C 71 %
58 20-11-2019 09:39:17 8.8 C 71 %
59 20-11-2019 09:49:17 8.9 C 71 %
60 20-11-2019 09:59:17 8.8 C 71 %
61 20-11-2019 10:09:17 8.8 C 71 %
62 20-11-2019 10:19:17 8.8 C 71 %
63 20-11-2019 10:29:17 8.9 C 71 %
64 20-11-2019 10:39:17 8.9 C 71 %
65 20-11-2019 10:49:17 8.9 C 71 %
66 20-11-2019 10:59:17 8.8 C 71 %
67 20-11-2019 11:09:17 8.9 C 71 %
68 20-11-2019 11:19:17 8.8 C 71 %
69 20-11-2019 11:29:17 8.9 C 72 %
70 20-11-2019 11:39:17 8.9 C 72 %
71 20-11-2019 11:49:17 8.9 C 72 %
72 20-11-2019 11:59:17 8.9 C 72 %
73 20-11-2019 12:09:17 8.9 C 72 %
74 20-11-2019 12:19:17 8.9 C 72 %
75 20-11-2019 12:29:17 8.9 C 72 %
Sensor: Nr:Datum:Temp:Feuchte:
G-T/H 76 20-11-2019 12:39:17 8.9 C 72 %
77 20-11-2019 12:49:17 8.9 C 72 %
78 20-11-2019 12:59:17 8.9 C 72 %
79 20-11-2019 13:09:17 8.9 C 72 %
80 20-11-2019 13:19:17 8.9 C 72 %
81 20-11-2019 13:29:17 8.9 C 72 %
82 20-11-2019 13:39:17 8.9 C 72 %
83 20-11-2019 13:49:17 8.9 C 72 %
84 20-11-2019 13:59:17 8.9 C 72 %
85 20-11-2019 14:09:17 8.9 C 72 %
86 20-11-2019 14:19:17 8.9 C 72 %
87 20-11-2019 14:29:17 9 C 71 %
88 20-11-2019 14:39:17 8.9 C 72 %
89 20-11-2019 14:49:17 8.9 C 72 %
90 20-11-2019 14:59:17 9 C 71 %
91 20-11-2019 15:09:17 8.9 C 72 %
92 20-11-2019 15:19:17 9 C 71 %
93 20-11-2019 15:29:17 9 C 71 %
94 20-11-2019 15:39:17 9 C 71 %
95 20-11-2019 15:49:17 9 C 71 %
96 20-11-2019 15:59:17 9 C 71 %
97 20-11-2019 16:09:17 9 C 71 %
98 20-11-2019 16:19:17 9 C 71 %
99 20-11-2019 16:29:17 9 C 71 %
100 20-11-2019 16:39:17 9 C 71 %
Sensor: Nr:Datum:Temp:Feuchte:
G-T/H 101 20-11-2019 16:49:17 9 C 71 %
102 20-11-2019 16:59:17 8.9 C 72 %
103 20-11-2019 17:09:17 9 C 71 %
104 20-11-2019 17:19:17 9 C 71 %
105 20-11-2019 17:29:17 8.9 C 72 %
106 20-11-2019 17:39:17 9 C 71 %
107 20-11-2019 17:49:17 9 C 71 %
108 20-11-2019 17:59:17 8.9 C 72 %
109 20-11-2019 18:09:17 8.9 C 72 %
110 20-11-2019 18:19:17 8.9 C 72 %
111 20-11-2019 18:29:17 8.9 C 72 %
112 20-11-2019 18:39:17 8.9 C 72 %
113 20-11-2019 18:49:17 8.9 C 72 %
114 20-11-2019 18:59:17 8.9 C 72 %
115 20-11-2019 19:09:17 8.9 C 72 %
116 20-11-2019 19:19:17 8.9 C 72 %
117 20-11-2019 19:29:17 8.9 C 72 %
118 20-11-2019 19:39:18 8.9 C 72 %
119 20-11-2019 19:49:18 8.9 C 72 %
120 20-11-2019 19:59:18 8.9 C 72 %
121 20-11-2019 20:09:18 8.9 C 72 %
122 20-11-2019 20:19:17 8.9 C 72 %
123 20-11-2019 20:29:17 8.9 C 71 %
124 20-11-2019 20:39:17 8.9 C 71 %
125 20-11-2019 20:59:17 8.9 C 71 %
Sensor: Nr:Datum:Temp:Feuchte:
G-T/H 126 20-11-2019 20:59:17 8.8 C 71 %
127 20-11-2019 21:09:17 8.8 C 71 %
128 20-11-2019 21:19:17 8.8 C 71 %
129 20-11-2019 21:29:17 8.8 C 71 %
130 20-11-2019 21:39:17 8.8 C 71 %
131 20-11-2019 21:49:17 8.8 C 71 %
132 20-11-2019 21:59:17 8.8 C 71 %
133 20-11-2019 22:09:17 8.8 C 71 %
134 20-11-2019 22:19:17 8.8 C 71 %
135 20-11-2019 22:29:17 8.7 C 71 %
136 20-11-2019 22:39:17 8.7 C 71 %
137 20-11-2019 22:49:17 8.7 C 71 %
138 20-11-2019 22:59:17 8.7 C 71 %
139 20-11-2019 23:09:17 8.7 C 71 %
140 20-11-2019 23:19:17 8.7 C 71 %
141 20-11-2019 23:29:17 8.7 C 70 %
142 20-11-2019 23:39:17 8.7 C 70 %
143 20-11-2019 23:49:17 8.7 C 70 %
144 20-11-2019 23:59:17 8.7 C 70 %
145 21-11-2019 00:09:17 8.7 C 70 %
146 21-11-2019 00:29:17 8.6 C 70 %
147 21-11-2019 00:30:17 8.6 C 70 %
148 21-11-2019 00:39:17 8.6 C 70 %
149 21-11-2019 00:50:17 8.6 C 70 %
150 21-11-2019 01:00:17 8.6 C 70 %
Sensor: Nr:Datum:Temp:Feuchte:
G-T/H 151 21-11-2019 01:10:17 8.6 C 70 %
152 21-11-2019 01:20:17 8.6 C 70 %
153 21-11-2019 01:30:17 8.6 C 70 %
154 21-11-2019 01:40:17 8.5 C 70 %
155 21-11-2019 01:50:17 8.6 C 70 %
156 21-11-2019 02:00:17 8.5 C 70 %
157 21-11-2019 02:10:17 8.5 C 70 %
158 21-11-2019 02:20:17 8.5 C 70 %
159 21-11-2019 02:30:17 8.5 C 70 %
160 21-11-2019 02:40:17 8.5 C 70 %
161 21-11-2019 02:50:17 8.5 C 70 %
162 21-11-2019 03:00:17 8.5 C 70 %
163 21-11-2019 03:10:17 8.5 C 70 %
164 21-11-2019 03:20:17 8.4 C 70 %
165 21-11-2019 03:30:17 8.4 C 70 %
166 21-11-2019 03:40:17 8.4 C 70 %
167 21-11-2019 03:50:17 8.4 C 70 %
168 21-11-2019 04:00:17 8.4 C 70 %
169 21-11-2019 04:10:17 8.4 C 70 %
170 21-11-2019 04:20:17 8.4 C 70 %
171 21-11-2019 04:30:17 8.4 C 70 %
172 21-11-2019 04:40:17 8.4 C 70 %
173 21-11-2019 04:50:17 8.4 C 70 %
174 21-11-2019 05:00:17 8.4 C 70 %
175 21-11-2019 05:10:17 8.4 C 70 %
Sensor: Nr:Datum:Temp:Feuchte:
G-T/H 176 21-11-2019 05:20:17 8.4 C 70 %
177 21-11-2019 05:30:17 8.4 C 70 %
178 21-11-2019 05:40:17 8.3 C 70 %
179 21-11-2019 05:50:17 8.4 C 70 %
180 21-11-2019 06:00:17 8.3 C 70 %
181 21-11-2019 06:10:17 8.3 C 70 %
182 21-11-2019 06:20:17 8.3 C 70 %
183 21-11-2019 06:30:17 8.3 C 70 %
184 21-11-2019 06:40:17 8.3 C 70 %
185 21-11-2019 06:50:17 8.3 C 70 %
186 21-11-2019 07:00:17 8.3 C 70 %
187 21-11-2019 07:10:17 8.3 C 70 %
188 21-11-2019 07:20:17 8.3 C 70 %
189 21-11-2019 07:30:17 8.3 C 70 %
190 21-11-2019 07:40:17 8.3 C 70 %
191 21-11-2019 07:50:17 8.3 C 70 %
192 21-11-2019 08:00:17 8.3 C 70 %
193 21-11-2019 08:10:17 8.2 C 70 %
194 21-11-2019 08:20:17 8.3 C 70 %
195 21-11-2019 08:30:17 8.2 C 70 %
196 21-11-2019 08:40:17 8.3 C 70 %
197 21-11-2019 08:50:17 8.2 C 70 %
198 21-11-2019 09:00:17 8.2 C 70 %
199 21-11-2019 09:10:17 8.2 C 70 %
200 21-11-2019 09:20:17 8.2 C 70 %
Sensor: Nr:Datum:Temp:Feuchte:
G-T/H 201 21-11-2019 09:30:17 8.2 C 70 %
202 21-11-2019 09:40:17 8.2 C 70 %
203 21-11-2019 09:50:17 8.2 C 70 %
204 21-11-2019 10:00:17 8.2 C 70 %
205 21-11-2019 10:10:17 8.2 C 70 %
206 21-11-2019 10:20:17 8.2 C 70 %
207 21-11-2019 10:30:17 8.3 C 70 %
208 21-11-2019 10:40:17 8.2 C 70 %
209 21-11-2019 10:50:17 8.3 C 70 %
210 21-11-2019 11:00:17 8.2 C 70 %
211 21-11-2019 11:10:17 8.2 C 70 %
212 21-11-2019 11:20:17 8.3 C 70 %
213 21-11-2019 11:30:17 8.2 C 70 %
214 21-11-2019 11:40:17 8.2 C 70 %
215 21-11-2019 11:50:17 8.3 C 70 %
216 21-11-2019 12:00:17 8.3 C 70 %
217 21-11-2019 12:10:17 8.3 C 70 %
218 21-11-2019 12:20:17 8.2 C 70 %
219 21-11-2019 12:30:18 8.3 C 71 %
220 21-11-2019 12:40:18 8.2 C 71 %
221 21-11-2019 12:50:18 8.3 C 71 %
222 21-11-2019 13:00:17 8.3 C 71 %
223 21-11-2019 13:10:17 8.3 C 71 %
224 21-11-2019 13:20:17 8.3 C 71 %
225 21-11-2019 13:30:17 8.3 C 71 %
Sensor: Nr:Datum:Temp:Feuchte:
G-T/H 226 21-11-2019 13:40:17 8.3 C 71 %
227 21-11-2019 13:50:17 8.3 C 71 %
228 21-11-2019 14:00:17 8.3 C 71 %
229 21-11-2019 14:10:17 8.3 C 71 %
230 21-11-2019 14:20:17 8.4 C 71 %
231 21-11-2019 14:30:17 8.4 C 71 %
232 21-11-2019 14:40:17 8.3 C 71 %
233 21-11-2019 14:50:17 8.4 C 71 %
234 21-11-2019 15:00:17 8.4 C 71 %
235 21-11-2019 15:10:17 8.4 C 71 %
236 21-11-2019 15:20:17 8.4 C 71 %
237 21-11-2019 15:30:17 8.4 C 71 %
238 21-11-2019 15:40:17 8.4 C 71 %
239 21-11-2019 15:50:17 8.4 C 71 %
240 21-11-2019 16:00:17 8.4 C 72 %
241 21-11-2019 16:10:17 8.4 C 72 %
242 21-11-2019 16:20:17 8.4 C 72 %
243 21-11-2019 16:30:17 8.4 C 72 %
244 21-11-2019 16:40:17 8.4 C 72 %
245 21-11-2019 16:50:17 8.4 C 72 %
246 21-11-2019 17:00:17 8.5 C 72 %
247 21-11-2019 17:10:17 8.5 C 72 %
248 21-11-2019 17:20:17 8.5 C 72 %
249 21-11-2019 17:30:17 8.5 C 72 %
250 21-11-2019 17:40:17 8.5 C 72 %
Sensor: Nr:Datum:Temp:Feuchte:
G-T/H 251 21-11-2019 17:50:17 8.5 C 72 %
252 21-11-2019 18:00:17 8.5 C 72 %
253 21-11-2019 18:10:17 8.5 C 72 %
254 21-11-2019 18:20:17 8.5 C 72 %
255 21-11-2019 18:30:17 8.5 C 72 %
256 21-11-2019 18:40:17 8.5 C 72 %
257 21-11-2019 18:50:17 8.5 C 72 %
258 21-11-2019 19:00:17 8.5 C 72 %
259 21-11-2019 19:10:17 8.5 C 72 %
260 21-11-2019 19:20:17 8.5 C 72 %
261 21-11-2019 19:30:17 8.5 C 72 %
262 21-11-2019 19:40:17 8.5 C 72 %
263 21-11-2019 19:50:17 8.6 C 72 %
264 21-11-2019 20:00:17 8.5 C 72 %
265 21-11-2019 20:10:17 8.5 C 72 %
266 21-11-2019 20:20:17 8.5 C 72 %
267 21-11-2019 20:30:17 8.5 C 72 %
268 21-11-2019 20:40:17 8.6 C 72 %
269 21-11-2019 20:50:17 8.5 C 72 %
270 21-11-2019 21:00:17 8.5 C 72 %
271 21-11-2019 21:10:17 8.5 C 72 %
272 21-11-2019 21:20:17 8.5 C 72 %
273 21-11-2019 21:30:17 8.5 C 72 %
274 21-11-2019 21:40:17 8.5 C 72 %
275 21-11-2019 21:50:17 8.5 C 72 %
Sensor: Nr:Datum:Temp:Feuchte:
G-T/H 276 21-11-2019 22:00:17 8.5 C 72 %
277 21-11-2019 22:10:17 8.5 C 72 %
278 21-11-2019 22:20:17 8.6 C 72 %
279 21-11-2019 22:30:17 8.5 C 72 %
280 21-11-2019 22:40:17 8.6 C 72 %
281 21-11-2019 22:50:17 8.5 C 72 %
282 21-11-2019 23:00:17 8.6 C 72 %
283 21-11-2019 23:10:17 8.6 C 72 %
284 21-11-2019 23:20:17 8.5 C 72 %
285 21-11-2019 23:30:17 8.6 C 72 %
286 21-11-2019 23:40:17 8.5 C 72 %
287 21-11-2019 23:50:17 8.5 C 72 %
288 22-11-2019 00:00:17 8.5 C 72 %
289 22-11-2019 00:10:17 8.5 C 72 %
290 22-11-2019 00:20:17 8.6 C 72 %
291 22-11-2019 00:30:17 8.5 C 72 %
292 22-11-2019 00:40:17 8.5 C 72 %
293 22-11-2019 00:50:17 8.6 C 72 %
294 22-11-2019 01:00:17 8.5 C 72 %
295 22-11-2019 01:10:17 8.5 C 72 %
296 22-11-2019 01:20:17 8.6 C 72 %
297 22-11-2019 01:30:17 8.6 C 72 %
298 22-11-2019 01:40:17 8.5 C 72 %
299 22-11-2019 01:50:17 8.5 C 72 %
300 22-11-2019 02:00:17 8.5 C 72 %
Sensor: Nr:Datum:Temp:Feuchte:
G-T/H 301 22-11-2019 02:10:17 8.5 C 72 %
302 22-11-2019 02:20:17 8.5 C 72 %
303 22-11-2019 02:30:17 8.5 C 72 %
304 22-11-2019 02:40:17 8.6 C 72 %
305 22-11-2019 02:50:17 8.5 C 72 %
306 22-11-2019 03:00:17 8.5 C 72 %
307 22-11-2019 03:10:17 8.5 C 72 %
308 22-11-2019 03:20:17 8.5 C 72 %
309 22-11-2019 03:30:17 8.5 C 72 %
310 22-11-2019 03:40:17 8.5 C 72 %
311 22-11-2019 03:50:17 8.5 C 72 %
312 22-11-2019 04:00:17 8.5 C 72 %
313 22-11-2019 04:10:17 8.5 C 72 %
314 22-11-2019 04:20:17 8.5 C 72 %
315 22-11-2019 04:30:17 8.5 C 72 %
316 22-11-2019 04:40:17 8.5 C 72 %
317 22-11-2019 04:50:17 8.5 C 72 %
318 22-11-2019 05:00:18 8.5 C 72 %
319 22-11-2019 05:10:18 8.5 C 72 %
320 22-11-2019 05:20:17 8.5 C 72 %
321 22-11-2019 05:30:17 8.5 C 72 %
322 22-11-2019 05:40:17 8.5 C 72 %
323 22-11-2019 05:50:17 8.5 C 72 %
324 22-11-2019 06:00:18 8.5 C 72 %
325 22-11-2019 06:10:18 8.5 C 72 %
Sensor: Nr:Datum:Temp:Feuchte:
G-T/H 326 22-11-2019 06:20:18 8.5 C 72 %
327 22-11-2019 06:30:18 8.5 C 72 %
328 22-11-2019 06:40:18 8.5 C 72 %
329 22-11-2019 06:50:18 8.5 C 72 %
330 22-11-2019 07:00:17 8.5 C 72 %
331 22-11-2019 07:10:17 8.5 C 72 %
332 22-11-2019 07:20:17 8.5 C 72 %
333 22-11-2019 07:30:17 8.5 C 72 %
334 22-11-2019 07:40:17 8.5 C 72 %
335 22-11-2019 07:50:17 8.5 C 72 %
336 22-11-2019 08:00:17 8.5 C 72 %
337 22-11-2019 08:10:17 8.5 C 72 %
338 22-11-2019 08:20:17 8.5 C 72 %
339 22-11-2019 08:30:17 8.5 C 72 %
340 22-11-2019 08:40:17 8.5 C 72 %
341 22-11-2019 08:50:17 8.6 C 72 %
342 22-11-2019 09:00:17 8.5 C 72 %
343 22-11-2019 09:10:17 8.5 C 72 %
344 22-11-2019 09:20:17 8.5 C 72 %
345 22-11-2019 09:30:17 8.5 C 72 %
346 22-11-2019 09:40:17 8.5 C 72 %
347 22-11-2019 09:50:17 8.5 C 72 %
348 22-11-2019 10:00:17 8.6 C 72 %
349 22-11-2019 10:10:17 8.6 C 72 %
350 22-11-2019 10:20:17 8.5 C 72 %
Sensor: Nr:Datum:Temp:Feuchte:
G-T/H 351 22-11-2019 10:30:17 8.6 C 73 %
352 22-11-2019 10:40:17 8.6 C 73 %
353 22-11-2019 10:50:17 8.6 C 73 %
354 22-11-2019 11:00:17 8.6 C 73 %
355 22-11-2019 11:10:17 8.6 C 73 %
356 22-11-2019 11:20:17 8.6 C 73 %
357 22-11-2019 11:30:17 8.6 C 73 %
358 22-11-2019 11:40:17 8.6 C 73 %
359 22-11-2019 11:50:17 8.6 C 73 %
360 22-11-2019 12:00:17 8.7 C 73 %
361 22-11-2019 12:10:17 8.7 C 73 %
362 22-11-2019 12:20:17 8.7 C 73 %
363 22-11-2019 12:30:17 8.7 C 73 %
364 22-11-2019 12:40:17 8.7 C 73 %
365 22-11-2019 12:50:17 8.7 C 73 %
366 22-11-2019 13:00:17 8.7 C 73 %
367 22-11-2019 13:10:17 8.7 C 73 %
368 22-11-2019 13:20:17 8.7 C 73 %
369 22-11-2019 13:30:17 8.7 C 73 %
370 22-11-2019 13:40:17 8.7 C 73 %
371 22-11-2019 13:50:17 8.7 C 73 %
372 22-11-2019 14:00:17 8.7 C 73 %
373 22-11-2019 14:10:17 8.7 C 73 %
374 22-11-2019 14:20:17 8.7 C 73 %
375 22-11-2019 14:30:17 8.7 C 73 %
Sensor: Nr:Datum:Temp:Feuchte:
G-T/H 376 22-11-2019 14:40:17 8.7 C 73 %
377 22-11-2019 14:50:17 8.7 C 73 %
378 22-11-2019 15:00:17 8.8 C 73 %
379 22-11-2019 15:10:17 8.8 C 73 %
380 22-11-2019 15:20:17 8.7 C 73 %
381 22-11-2019 15:30:17 8.8 C 73 %
382 22-11-2019 15:40:17 8.8 C 73 %
383 22-11-2019 15:50:17 8.8 C 73 %
384 22-11-2019 16:00:17 8.8 C 73 %
385 22-11-2019 16:10:17 8.8 C 73 %
386 22-11-2019 16:20:17 8.8 C 73 %
387 22-11-2019 16:30:17 8.8 C 74 %
388 22-11-2019 16:40:17 8.8 C 74 %
389 22-11-2019 16:50:17 8.9 C 74 %
390 22-11-2019 17:00:17 8.9 C 74 %
391 22-11-2019 17:10:17 8.9 C 74 %
392 22-11-2019 17:20:17 8.9 C 74 %
393 22-11-2019 17:30:17 8.9 C 74 %
394 22-11-2019 17:40:17 8.9 C 74 %
395 22-11-2019 17:50:17 8.9 C 74 %
396 22-11-2019 18:00:17 8.9 C 74 %
397 22-11-2019 18:10:17 8.9 C 74 %
398 22-11-2019 18:20:17 8.9 C 74 %
399 22-11-2019 18:30:17 8.9 C 74 %
400 22-11-2019 18:40:17 8.9 C 74 %
Sensor: Nr:Datum:Temp:Feuchte:
G-T/H 401 22-11-2019 18:50:17 8.9 C 74 %
402 22-11-2019 19:00:17 8.9 C 74 %
403 22-11-2019 19:10:17 9 C 73 %
404 22-11-2019 19:20:17 9 C 73 %
405 22-11-2019 19:30:17 9 C 73 %
406 22-11-2019 19:40:17 9 C 73 %
407 22-11-2019 19:50:17 9 C 73 %
408 22-11-2019 20:00:17 9 C 73 %
409 22-11-2019 20:10:17 9 C 73 %
410 22-11-2019 20:20:17 9 C 73 %
411 22-11-2019 20:30:17 9 C 73 %
412 22-11-2019 20:40:17 9 C 73 %
413 22-11-2019 20:50:17 9 C 73 %
414 22-11-2019 21:00:17 9 C 73 %
415 22-11-2019 21:10:17 9 C 73 %
416 22-11-2019 21:20:17 9 C 73 %
417 22-11-2019 21:30:17 9 C 73 %
418 22-11-2019 21:40:17 9 C 73 %
419 22-11-2019 21:50:17 9 C 73 %
420 22-11-2019 22:00:17 9 C 73 %
421 22-11-2019 22:10:17 9 C 73 %
422 22-11-2019 22:20:17 9.1 C 73 %
423 22-11-2019 22:30:17 9.1 C 73 %
424 22-11-2019 22:40:17 9.1 C 73 %
425 22-11-2019 22:50:17 9.1 C 73 %
Sensor: Nr:Datum:Temp:Feuchte:
G-T/H 426 22-11-2019 23:00:17 9.1 C 73 %
427 22-11-2019 23:10:17 9.1 C 73 %
428 22-11-2019 23:20:17 9.1 C 73 %
429 22-11-2019 23:30:17 9.1 C 73 %
430 22-11-2019 23:40:17 9.1 C 73 %
431 22-11-2019 23:50:17 9.1 C 73 %
432 23-11-2019 00:00:17 9.1 C 73 %
433 23-11-2019 00:10:17 9.1 C 73 %
434 23-11-2019 00:20:17 9.1 C 73 %
435 23-11-2019 00:30:17 9.1 C 73 %
436 23-11-2019 00:40:17 9.2 C 73 %
437 23-11-2019 00:50:17 9.1 C 73 %
438 23-11-2019 01:00:17 9.1 C 73 %
439 23-11-2019 01:10:17 9.2 C 73 %
440 23-11-2019 01:20:17 9.1 C 73 %
441 23-11-2019 01:30:17 9.2 C 73 %
442 23-11-2019 01:40:17 9.1 C 73 %
443 23-11-2019 01:50:17 9.1 C 73 %
444 23-11-2019 02:00:17 9.1 C 73 %
445 23-11-2019 02:10:17 9.2 C 73 %
446 23-11-2019 02:20:17 9.2 C 73 %
447 23-11-2019 02:30:18 9.2 C 73 %
448 23-11-2019 02:40:18 9.2 C 73 %
449 23-11-2019 02:50:17 9.2 C 73 %
450 23-11-2019 03:00:17 9.2 C 73 %
Sensor: Nr:Datum:Temp:Feuchte:
G-T/H 451 23-11-2019 03:10:17 9.2 C 73 %
452 23-11-2019 03:20:17 9.2 C 73 %
453 23-11-2019 03:30:17 9.2 C 73 %
454 23-11-2019 03:40:17 9.2 C 73 %
455 23-11-2019 03:50:17 9.2 C 73 %
456 23-11-2019 04:00:17 9.2 C 73 %
457 23-11-2019 04:10:17 9.2 C 73 %
458 23-11-2019 04:20:17 9.2 C 73 %
459 23-11-2019 04:30:17 9.2 C 73 %
460 23-11-2019 04:40:17 9.2 C 73 %
461 23-11-2019 04:50:17 9.2 C 73 %
462 23-11-2019 05:00:17 9.2 C 73 %
463 23-11-2019 05:10:17 9.2 C 73 %
464 23-11-2019 05:20:17 9.2 C 73 %
465 23-11-2019 05:30:17 9.2 C 73 %
466 23-11-2019 05:40:17 9.2 C 73 %
467 23-11-2019 05:50:17 9.2 C 73 %
468 23-11-2019 06:00:17 9.2 C 73 %
469 23-11-2019 06:10:17 9.2 C 73 %
470 23-11-2019 06:20:17 9.2 C 73 %
471 23-11-2019 06:30:17 9.2 C 73 %
472 23-11-2019 06:40:17 9.2 C 73 %
473 23-11-2019 06:50:17 9.2 C 73 %
474 23-11-2019 07:00:17 9.2 C 73 %
475 23-11-2019 07:10:17 9.2 C 73 %
Sensor: Nr:Datum:Temp:Feuchte:
G-T/H 476 23-11-2019 07:20:17 9.2 C 73 %
477 23-11-2019 07:30:17 9.2 C 73 %
478 23-11-2019 07:40:17 9.2 C 73 %
479 23-11-2019 07:50:17 9.2 C 73 %
480 23-11-2019 08:00:17 9.2 C 73 %
481 23-11-2019 08:10:17 9.2 C 73 %
482 23-11-2019 08:20:17 9.2 C 73 %
483 23-11-2019 08:30:17 9.2 C 73 %
484 23-11-2019 08:40:17 9.2 C 73 %
485 23-11-2019 08:50:17 9.2 C 73 %
486 23-11-2019 09:00:17 9.2 C 73 %
487 23-11-2019 09:10:17 9.2 C 73 %
488 23-11-2019 09:20:17 9.2 C 73 %
489 23-11-2019 09:30:17 9.2 C 73 %
490 23-11-2019 09:40:17 9.2 C 73 %
491 23-11-2019 09:50:17 9.2 C 73 %
492 23-11-2019 10:00:17 9.2 C 73 %
493 23-11-2019 10:10:17 9.2 C 73 %
494 23-11-2019 10:20:17 9.2 C 73 %
495 23-11-2019 10:30:17 9.1 C 72 %
496 23-11-2019 10:40:17 9.1 C 71 %
497 23-11-2019 10:50:17 9.2 C 71 %
498 23-11-2019 11:00:17 9.2 C 71 %
499 23-11-2019 11:10:17 9.2 C 72 %
500 23-11-2019 11:20:17 9.2 C 72 %
Sensor: Nr:Datum:Temp:Feuchte:
G-T/H 501 23-11-2019 11:30:17 9.2 C 72 %
502 23-11-2019 11:40:17 9.2 C 72 %
503 23-11-2019 11:50:17 9.3 C 72 %
504 23-11-2019 12:00:17 9.4 C 72 %
505 23-11-2019 12:10:17 9.5 C 72 %
506 23-11-2019 12:20:17 9.5 C 72 %
507 23-11-2019 12:30:17 9.4 C 72 %